     2.10           OBSERVATION DATA    G (GPS)             RINEX VERSION / TYPE
teqc 2000Jul20 Karen Wendt 20040525 20:09:44UTC             PGM / RUN BY / DATE
Linux 2.0.36|Pentium II|gcc -static|Linux|486/DX+           COMMENT
teqc 2000Jul20 Karen Wendt 20040525 20:09:43UTC             COMMENT
BIT 2 OF LLI FLAGS DATA COLLECTED UNDER A/S CONDITION       COMMENT
v209 V209_1935_USC&GS                                       MARKER NAME
JLS USGS                                                    OBSERVER / AGENCY
ZE1200331018 ASHTECH UZ-12 ZE00                             REC # / TYPE / VERS
CR14341 ASH700936D_M NONE                                   ANT # / TYPE
 -2445229.0000 -4314207.0000  4000660.0000                  APPROX POSITION XYZ
        0.5279        0.0000        0.0000                  ANTENNA: DELTA H/E/N
     1     1                                                WAVELENGTH FACT L1/2
     5    C1    L1    L2    P1    P2                        # / TYPES OF OBSERV
    30.0000                                                 INTERVAL
                                                            COMMENT
National Earthquake Hazard Reduction Program                COMMENT
Crustal Strain Project                                      COMMENT
345 Middlefield Road, MS/977                                COMMENT
U.S. Geological Survey, Menlo Park, California 94025        COMMENT
Contact: kwendt@usgs.gov (Ph: 650-329-4866)                 COMMENT
Antenna height is vertical to base of antenna               COMMENT
                                                            COMMENT
SNR is mapped to RINEX snr flag value [1-9]                 COMMENT
L1: 1 -> 1; 90 -> 5; 210 -> 9                               COMMENT
L2: 1 -> 1; 150 -> 5; 250 -> 9                              COMMENT
  2004     5    20     0     0    0.0000000     GPS         TIME OF FIRST OBS
                                                            END OF HEADER
 04  5 20  0  0  0.0000000  0  5G25G20G11G14G30
  20640151.466   -19993020.26544 -15566003.54642  20640153.556    20640150.807
  22826856.826    -6751911.65343  -3831043.11842  22826858.869    22826857.251
  21446632.368   -13101767.48444 -10134615.98542  21446634.590    21446631.550
  22636751.967   -11783633.18243  -9173065.47142  22636754.111    22636751.523
  24140522.273    -3323938.41043  -2508209.11842  24140524.834    24140524.363
 04  5 20  0  0 30.0000000  0  6G25G20G11G 1G14G30
  20639505.967   -19996412.25244 -15568646.64242  20639508.040    20639505.264
  22810431.946    -6838225.34043  -3898300.47642  22810433.839    22810432.225
  21449184.188   -13088357.39643 -10124166.59042  21449186.437    21449183.508
  23564250.858     -598889.88853   -454918.54752  23564249.283    23564253.679
  22651282.386   -11707275.61243  -9113566.11142  22651284.505    22651281.970
  24138030.055    -3337034.35043  -2518413.69442  24138032.806    24138032.071
 04  5 20  0  1  0.0000000  0  6G25G20G11G 1G14G30
  20638963.244   -19999264.46244 -15570869.13042  20638965.333    20638962.493
  22794027.389    -6924431.74843  -3965474.24142  22794029.319    22794027.663
  21451841.184   -13074394.61844 -10113286.53042  21451843.411    21451840.572
  23549792.258     -674864.45543   -514119.34842  23549792.655    23549795.706
  22665829.556   -11630829.78043  -9053997.96642  22665831.704    22665829.141
  24135636.983    -3349608.63143  -2528211.83242  24135639.688    24135639.197
 04  5 20  0  1 30.0000000  0  6G25G20G11G 1G14G30
  20638522.363   -20001581.46944 -15572674.58042  20638524.447    20638521.559
  22777642.651    -7010533.31543  -4032566.29742  22777644.594    22777643.008
  21454602.540   -13059884.05544 -10101979.62242  21454604.706    21454601.799
  23535366.404     -750671.06443   -573189.27542  23535367.374    23535369.579
  22680392.675   -11554300.85943  -8994365.09942  22680394.731    22680392.100
  24133343.027    -3361664.39143  -2537605.86442  24133345.506    24133344.901
 04  5 20  0  2  0.0000000  0  6G25G20G11G 1G14G30
  20638183.152   -20003363.83544 -15574063.42142  20638185.232    20638182.390
  22761278.201    -7096528.61143  -4099575.54842  22761280.120    22761278.593
  21457467.939   -13044826.50844 -10090246.48742  21457470.108    21457467.238
  23520972.764     -826309.61043   -632128.24642  23520973.804    23520975.878
  22694971.074   -11477690.11843  -8934668.45642  22694973.260    22694970.640
  24131147.617    -3373200.28143  -2546594.85642  24131150.351    24131149.821
 04  5 20  0  2 30.0000000  0  6G25G20G11G 1G14G30
  20637946.211   -20004609.24944 -15575033.86842  20637948.274    20637945.389
  22744934.837    -7182413.20743  -4166498.55042  22744936.712    22744935.272
  21460437.740   -13029219.98344 -10078085.59042  21460439.911    21460437.095
  23506611.278     -901777.05743   -690933.89542  23506612.708    23506614.768
  22709565.608   -11400995.45843  -8874906.41742  22709567.728    22709565.210
  24129052.241    -3384212.41943  -2555175.71542  24129054.855    24129054.336
 04  5 20  0  3  0.0000000  0  6G25G20G11G 1G14G30
  20637810.260   -20005323.35444 -15575590.30242  20637812.356    20637809.516
  22728611.705    -7268190.86043  -4233338.21442  22728613.619    22728612.319
  21463510.933   -13013070.51844 -10065501.62242  21463513.108    21463510.330
  23492281.672     -977078.44043   -749610.10142  23492283.326    23492285.334
  22724174.798   -11324223.30343  -8815083.99642  22724176.909    22724174.513
  24127055.547    -3394704.83243  -2563351.57842  24127058.302    24127057.856
 04  5 20  0  3 30.0000000  0  6G25G20G11G 1G14G30
  20637776.119   -20005502.73244 -15575730.06842  20637778.220    20637775.345
  22712310.131    -7353856.19343  -4300090.35642  22712312.022    22712310.664
  21466688.031   -12996375.10744 -10052492.23442  21466690.224    21466687.415
  23477984.490    -1052209.82243   -808153.90842  23477986.169    23477988.092
  22738799.425   -11247370.77243  -8755198.96642  22738801.575    22738799.110
  24125158.870    -3404672.67143  -2571118.68042  24125161.546    24125160.971
 04  5 20  0  4  0.0000000  0  6G25G20G11G 1G14G30
  20637843.186   -20005150.34744 -15575455.47742  20637845.299    20637842.407
  22696029.740    -7439409.73243  -4366755.38542  22696031.620    22696030.307
  21469968.507   -12979136.31144 -10039059.43742  21469970.679    21469967.931
  23463719.043    -1127173.33443   -866566.87342  23463720.885    23463722.965
  22753438.943   -11170441.00643  -8695253.74942  22753441.075    22753438.302
  24123361.537    -3414116.93943  -2578477.83842  24123364.189    24123363.805
 04  5 20  0  4 30.0000000  0  6G25G20G11G 1G14G30
  20638011.389   -20004266.23844 -15574766.55242  20638013.488    20638010.634
  22679771.029    -7524849.69343  -4433331.91242  22679772.866    22679771.594
  21473352.155   -12961354.51544 -10025203.51042  21473354.406    21473351.653
  23449485.816    -1201968.65943   -924848.79442  23449487.822    23449489.534
  22768092.740   -11093434.66143  -8635248.84642  22768094.961    22768092.107
  24121664.222    -3423036.41543  -2585428.08742  24121666.731    24121666.593
 04  5 20  0  5  0.0000000  0  6G25G20G11G 1G14G30
  20638280.836   -20002850.33244 -15573663.24642  20638282.904    20638280.064
  22663534.310    -7610173.86743  -4499818.21642  22663536.164    22663534.733
  21476839.197   -12943030.53344 -10010925.11142  21476841.418    21476838.543
  23435284.651    -1276594.80243   -982998.84442  23435286.785    23435288.467
  22782760.917   -11016352.17743  -8575184.61342  22782763.205    22782760.550
  24120067.134    -3431429.64443  -2591968.18742  24120069.573    24120069.309
 04  5 20  0  5 30.0000000  0  6G25G20G11G 1G14G30
  20638651.901   -20000900.29944 -15572143.73142  20638653.958    20638651.198
  22647320.770    -7695377.25943  -4566210.41542  22647322.569    22647320.925
  21480429.753   -12924162.09444  -9996222.45142  21480431.957    21480429.186
  23421116.406    -1351048.42943  -1041014.50542  23421118.509    23421120.276
  22797444.106   -10939191.28743  -8515059.27842  22797446.377    22797443.903
  24118570.830    -3439291.74143  -2598094.49242  24118573.421    24118572.748
 04  5 20  0  6  0.0000000  0  6G25G20G11G 1G14G30
  20639122.930   -19998424.60744 -15570214.61442  20639124.977    20639122.311
  22631128.891    -7780466.23343  -4632513.45242  22631130.740    22631129.039
  21484122.220   -12904757.89143  -9981102.31442  21484124.422    21484121.704
  23406979.384    -1425337.35143  -1098901.80542  23406981.633    23406983.404
  22812140.677   -10861960.93643  -8454879.81942  22812142.861    22812140.446
  24117174.484    -3446630.02743  -2603812.59242  24117177.007    24117176.366
 04  5 20  0  6 30.0000000  0  6G25G20G11G 1G14G30
  20639694.744   -19995419.82944 -15567873.22142  20639696.780    20639694.079
  22614959.809    -7865435.26243  -4698723.03442  22614961.692    22614959.983
  21487917.225   -12884815.02743  -9965562.44542  21487919.430    21487916.626
  23392874.752    -1499457.50243  -1156657.58742  23392876.957    23392878.757
  22826851.029   -10784658.06343  -8394643.86842  22826853.180    22826850.687
  24115878.582    -3453439.56743  -2609118.71442  24115881.177    24115880.392
 04  5 20  0  7  0.0000000  0  6G25G20G11G 1G14G30
  20640367.189   -19991886.08644 -15565119.65342  20640369.222    20640366.548
  22598814.031    -7950282.17243  -4764837.46142  22598815.843    22598814.052
  21491814.763   -12864333.66244  -9949602.96342  21491816.980    21491814.140
  23378802.535    -1573408.07443  -1214281.28042  23378804.729    23378806.316
  22841575.097   -10707283.15043  -8334351.76742  22841577.263    22841574.646
  24114683.881    -3459718.74143  -2614011.56742  24114686.266    24114685.651
 04  5 20  0  7 30.0000000  0  6G25G20G11G 1G14G30
  20641140.421   -19987822.96144 -15561953.57342  20641142.441    20641139.736
  22582691.881    -8035004.21743  -4830854.59442  22582693.778    22582691.883
  21495814.763   -12843313.68844  -9933223.78642  21495817.021    21495814.134
  23364762.335    -1647188.11143  -1271772.06442  23364764.664    23364766.352
  22856312.646   -10629836.36743  -8274003.67842  22856314.784    22856312.226
  24113590.367    -3465465.74243  -2618489.72442  24113592.639    24113592.298
 04  5 20  0  8  0.0000000  0  6G25G20G11G 1G14G30
  20642014.313   -19983230.78744 -15558375.25842  20642016.330    20642013.579
  22566593.922    -8119599.27943  -4896772.77242  22566595.798    22566593.812
  21499917.119   -12821755.96744  -9916425.59942  21499919.313    21499916.501
  23350754.945    -1720796.87443  -1329129.35942  23350757.234    23350758.860
  22871063.656   -10552317.83543  -8213599.66842  22871065.894    22871063.489
  24112598.118    -3470679.16543  -2622552.10742  24112600.521    24112600.234
 04  5 20  0  8 30.0000000  0  6G25G20G11G 1G14G30
  20642988.030   -19978113.47044 -15554387.72442  20642990.100    20642987.353
  22550519.792    -8204069.28143  -4962593.50542  22550521.606    22550519.663
  21504121.035   -12799664.66744  -9899211.62042  21504123.235    21504120.385
  23336779.466    -1794237.75343  -1386355.86042  23336781.659    23336783.374
  22885827.925   -10474731.82243  -8153143.06442  22885830.050    22885827.781
  24111707.138    -3475361.49643  -2626200.66742  24111709.604    24111709.245
 04  5 20  0  9  0.0000000  0  6G25G20G11G 1G14G30
  20644062.410   -19972467.73044 -15549988.44342  20644064.454    20644061.718
  22534470.510    -8288408.02943  -5028311.94342  22534472.329    22534470.560
  21508427.013   -12777036.57044  -9881579.35742  21508429.228    21508426.339
  23322836.708    -1867506.29343  -1443448.09742  23322838.889    23322840.474
  22900605.692   -10397075.16543  -8092631.41842  22900607.803    22900605.493
  24110917.802    -3479507.50943  -2629431.34442  24110920.545    24110920.422
 04  5 20  0  9 30.0000000  0  6G25G20G11G 1G14G30
  20645235.978   -19966300.20244 -15545182.57342  20645238.132    20645235.341
  22518445.476    -8372619.82943  -5093931.47542  22518447.317    22518445.566
  21512833.831   -12753878.84044  -9863534.38742  21512836.044    21512833.147
  23308925.746    -1940608.32243  -1500410.58342  23308927.987    23308929.585
  22915395.499   -10319354.71943  -8032070.09042  22915397.654    22915395.308
  24110230.137    -3483122.37343  -2632248.06642  24110232.573    24110232.055
 04  5 20  0 10  0.0000000  0  6G25G20G11G 1G14G30
  20646509.783   -19959606.37444 -15539966.59742  20646511.936    20646509.052
  22502445.810    -8456698.07943  -5159446.93342  22502447.667    22502445.943
  21517342.165   -12730187.21344  -9845073.39742  21517344.399    21517341.572
  23295047.536    -2013538.61743  -1557239.22742  23295049.752    23295051.218
  22930198.036   -10241566.06043  -7971455.57142  22930200.310    22930198.162
  24109644.410    -3486200.17943  -2634646.33442  24109646.728    24109646.253
 04  5 20  0 10 30.0000000  0  6G25G20G11G 1G14G30
  20647883.230   -19952389.14544 -15534342.77742  20647885.363    20647882.432
  22486471.537    -8540643.11743  -5224858.60142  22486473.403    22486471.562
  21521951.446   -12705964.93143  -9826198.91942  21521953.666    21521950.887
  23281201.533    -2086299.24043  -1613935.68942  23281203.840    23281205.252
  22945013.119   -10163712.50043  -7910790.51042  22945015.347    22945013.219
  24109160.664    -3488742.20643  -2636627.13842  24109163.028    24109162.514
 04  5 20  0 11  0.0000000  0  6G25G20G11G 1G14G30
  20649356.192   -19944648.41944 -15528311.03242  20649358.352    20649355.422
  22470523.189    -8624452.00243  -5290164.19042  22470525.099    22470523.145
  21526661.857   -12681212.05444  -9806910.99242  21526664.024    21526661.312
  23267388.201    -2158888.80343  -1670498.86742  23267390.461    23267391.766
  22959840.779   -10085793.55643  -7850074.48742  22959842.887    22959840.560
  24108779.268    -3490746.56143  -2638188.95542  24108781.638    24108781.172
 04  5 20  0 11 30.0000000  0  6G25G20G11G 1G14G30
  20650928.491   -19936385.94844 -15521872.73442  20650930.622    20650927.747
  22454601.040    -8708123.89643  -5355363.00842  22454602.885    22454600.853
  21531472.701   -12655930.59344  -9787211.16542  21531474.908    21531472.249
  23253607.287    -2231308.09843  -1726929.35042  23253609.507    23253610.607
  22974680.496   -10007810.96943  -7789308.88742  22974682.626    22974680.114
  24108500.401    -3492213.24443  -2639331.78242  24108502.728    24108502.111
 04  5 20  0 12  0.0000000  0  6G25G20G11G 1G14G30
  20652600.344   -19927600.29644 -15515026.76742  20652602.457    20652599.622
  22438705.482    -8791655.04143  -5420452.14542  22438707.362    22438705.388
  21536384.462   -12630119.53644  -9767098.68542  21536386.680    21536383.933
  23239858.978    -2303555.12843  -1783225.58942  23239861.205    23239862.237
  22989532.379    -9929763.57643  -7728492.77942  22989534.638    22989532.057
  24108323.875    -3493139.69243  -2640053.69842  24108326.382    24108325.750
 04  5 20  0 12 30.0000000  0  6G25G20G11G 1G14G30
  20654370.604   -19918297.57944 -15507777.88842  20654372.739    20654369.831
  22422836.126    -8875048.92843  -5485434.34442  22422838.019    22422836.123
  21541395.715   -12603785.41044  -9746578.61842  21541397.904    21541395.171
  23226142.622    -2375634.86543  -1839391.47442  23226144.785    23226145.809
  23004395.418    -9851657.43543  -7667630.91342  23004397.728    23004395.310
  24108249.619    -3493530.08843  -2640357.84342  24108252.233    24108251.452
 04  5 20  0 13  0.0000000  0  6G25G20G11G 1G14G30
  20656240.576   -19908470.82844 -15500120.67842  20656242.700    20656239.815
  22406994.673    -8958296.20443  -5550302.31242  22406996.547    22406994.609
  21546507.772   -12576921.62044  -9725645.82542  21546509.979    21546507.202
  23212459.407    -2447539.53143  -1895420.93042  23212461.602    23212462.660
  23019270.971    -9773485.81443  -7606718.00842  23019273.262    23019271.046
  24108278.896    -3493376.33643  -2640238.04742  24108281.604    24108280.635
 04  5 20  0 13 30.0000000  0  6G25G20G11G 1G14G30
  20658208.882   -19898127.53344 -15492060.96742  20658210.984    20658208.061
  22391180.127    -9041401.82243  -5615059.89842  22391181.987    22391180.094
  21551719.068   -12549536.26844  -9704306.60942  21551721.291    21551718.505
  23198808.337    -2519275.78143  -1951319.19642  23198810.583    23198811.672
  23034157.905    -9695256.10143  -7545759.83042  23034159.942    23034157.741
  24108410.618    -3492684.37143  -2639698.84042  24108413.224    24108412.004
 04  5 20  0 14  0.0000000  0  6G25G20G11G 1G14G30
  20660276.079   -19887264.22044 -15483596.04642  20660278.208    20660275.279
  22375393.892    -9124359.36443  -5679702.10242  22375395.707    22375393.795
  21557030.320   -12521625.83144  -9682558.24542  21557032.498    21557029.632
  23185190.308    -2590839.18743  -2007082.74842  23185192.515    23185193.447
  23049056.172    -9616964.78243  -7484753.66242  23049058.411    23049056.092
  24108645.586    -3491449.08143  -2638736.25442  24108648.115    24108646.929
 04  5 20  0 14 30.0000000  0  6G25G20G11G 1G14G30
  20662441.353   -19875885.65544 -15474729.62742  20662443.435    20662440.580
  22359635.376    -9207170.95143  -5744230.56242  22359637.195    22359635.338
  21562440.306   -12493195.62143  -9660404.85842  21562442.495    21562439.790
  23171604.357    -2662233.29843  -2062714.39342  23171606.571    23171607.470
  23063965.620    -9538616.33343  -7423702.98442  23063967.746    23063965.306
  24108983.401    -3489673.67943  -2637352.83142  24108985.997    24108984.926
 04  5 20  0 15  0.0000000  0  6G25G20G11G 1G14G30
  20664705.215   -19863988.73144 -15465459.29042  20664707.319    20664704.546
  22343905.701    -9289830.73943  -5808640.73742  22343907.526    22343905.817
  21567949.896   -12464242.60044  -9637844.09242  21567952.093    21567949.493
  23158051.460    -2733453.83443  -2118210.76942  23158053.673    23158054.549
  23078886.063    -9460207.56843  -7362605.28342  23078888.450    23078886.126
  24109425.171    -3487353.33943  -2635544.74342  24109427.612    24109426.637
 04  5 20  0 15 30.0000000  0  6G25G20G11G 1G14G30
  20667066.726   -19851579.02244 -15455789.38442  20667068.823    20667066.041
  22328204.389    -9372341.19643  -5872934.54442  22328206.216    22328204.653
  21573557.866   -12434772.53144  -9614880.43342  21573560.078    21573557.463
  23144530.773    -2804505.14043  -2173575.35042  23144533.032    23144533.745
  23093817.419    -9381743.52043  -7301464.51842  23093819.622    23093817.414
  24109969.432    -3484491.99243  -2633315.09142  24109972.120    24109971.154
 04  5 20  0 16  0.0000000  0  6G25G20G11G 1G14G30
  20669526.095   -19838654.75344 -15445718.52442  20669528.209    20669525.386
  22312532.226    -9454698.43543  -5937108.96642  22312534.072    22312532.591
  21579264.588   -12404784.36844  -9591513.06942  21579266.767    21579263.989
  23131042.620    -2875384.99143  -2228806.29842  23131044.945    23131045.771
  23108759.400    -9303222.84943  -7240279.62442  23108761.655    23108759.417
  24110617.613    -3481086.73643  -2630661.66142  24110620.237    24110619.064
 04  5 20  0 16 30.0000000  0  6G25G20G11G 1G14G30
  20672082.824   -19825218.78044 -15435248.92942  20672084.951    20672082.194
  22296889.181    -9536902.25543  -6001163.82842  22296891.049    22296889.781
  21585069.172   -12374281.18944  -9567744.37842  21585071.384    21585068.572
  23117586.869    -2946094.95943  -2283904.87442  23117589.136    23117589.887
  23123711.754    -9224647.98543  -7179052.49642  23123713.992    23123711.697
  24111368.723    -3477138.67543  -2627585.21742  24111371.523    24111370.371
 04  5 20  0 17  0.0000000  0  6G25G20G11G 1G14G30
  20674737.764   -19811267.26344 -15424377.61342  20674739.853    20674737.046
  22281276.792    -9618945.88043  -6065093.87642  22281278.586    22281277.325
  21590972.515   -12343259.52344  -9543571.68542  21590974.713    21590971.720
  23104164.434    -3016630.14043  -2338867.22342  23104166.655    23104167.265
  23138675.288    -9146014.90243  -7117780.02442  23138677.414    23138674.947
  24112224.155    -3472642.71043  -2624081.86542  24112226.888    24112225.948
 04  5 20  0 17 30.0000000  0  6G25G20G11G 1G14G30
  20677489.430   -19796807.10644 -15413109.95142  20677491.565    20677488.700
  22265694.166    -9700833.07843  -6128902.02842  22265695.892    22265694.612
  21596973.076   -12311726.26144  -9519000.34842  21596975.309    21596972.310
  23090774.232    -3086995.95843  -2393697.60542  23090776.395    23090776.899
  23153648.533    -9067329.97143  -7056467.12742  23153650.754    23153648.194
  24113182.909    -3467603.89143  -2620155.49742  24113185.761    24113184.778
 04  5 20  0 18  0.0000000  0  6G25G20G11G 1G14G30
  20680338.711   -19781834.14344 -15401442.71042  20680340.825    20680337.954
  22250142.557    -9782557.45843  -6192583.32442  22250144.227    22250142.864
  21603071.678   -12279678.19444  -9494027.85342  21603073.896    21603070.895
  23077417.090    -3157187.64943  -2448392.31942  23077419.222    23077419.632
  23168632.281    -8988589.04443  -6995110.62242  23168634.575    23168632.065
  24114246.186    -3462016.81843  -2615801.92442  24114248.970    24114248.072
 04  5 20  0 18 30.0000000  0  6G25G20G11G 1G14G30
  20683284.957   -19766351.35444 -15389378.18942  20683287.083    20683284.222
  22234621.932    -9864119.10543  -6256137.81742  22234623.588    22234621.988
  21609267.560   -12247118.60944  -9468656.77042  21609269.786    21609266.795
  23064092.681    -3227207.17843  -2502952.88942  23064094.777    23064095.267
  23183626.051    -8909795.09443  -6933712.79342  23183628.318    23183626.208
  24115413.679    -3455883.07943  -2611022.35242  24115416.275    24115415.343
 04  5 20  0 19  0.0000000  0  6G25G20G11G 1G14G30
  20686327.415   -19750363.15044 -15376919.84342  20686329.511    20686326.641
  22219131.909    -9945519.13443  -6319566.35542  22219133.647    22219132.057
  21615559.933   -12214051.83743  -9442890.50242  21615562.160    21615559.205
  23050800.642    -3297057.25243  -2557381.42642  23050802.721    23050802.987
  23198629.682    -8830951.60343  -6872276.35642  23198631.687    23198629.826
  24116683.960    -3449205.36743  -2605818.96942  24116686.935    24116686.202
 04  5 20  0 19 30.0000000  0  6G25G20G11G 1G14G30
  20689466.176   -19733868.98744 -15364067.23742  20689468.261    20689465.357
  22203673.322   -10026754.05743  -6382866.24142  22203675.058    22203673.454
  21621948.813   -12180478.06844  -9416729.15242  21621951.013    21621948.154
  23037541.055    -3366736.30343  -2611676.69342  23037543.139    23037543.510
  23213642.915    -8752057.80443  -6810800.70342  23213644.925    23213642.836
  24118058.579    -3441981.59243  -2600190.06642  24118061.409    24118060.889
 04  5 20  0 20  0.0000000  0  6G25G20G11G 1G14G30
  20692701.746   -19716866.01844 -15350818.17042  20692703.818    20692700.937
  22188247.389   -10107818.15543  -6446033.04642  22188249.159    22188247.277
  21628434.696   -12146394.64543  -9390170.67242  21628436.899    21628434.012
  23024314.670    -3436240.44943  -2665835.64542  23024316.819    23024317.218
  23228666.177    -8673110.54243  -6749283.41342  23228668.179    23228665.981
  24119537.741    -3434207.69043  -2594132.43742  24119540.387    24119540.118
 04  5 20  0 20 30.0000000  0  6G25G20G11G 1G14G30
  20696033.054   -19699359.78744 -15337176.95042  20696035.146    20696032.210
  22172853.496   -10188713.90743  -6509068.66242  22172855.287    22172853.163
  21635016.416   -12111807.40643  -9363219.59842  21635018.661    21635015.747
  23011121.004    -3505573.86743  -2719861.58042  23011123.156    23011123.290
  23243698.561    -8594114.75343  -6687728.30242  23243700.680    23243698.232
  24121120.928    -3425887.52143  -2587649.22142  24121123.488    24121123.474
 04  5 20  0 21  0.0000000  0  6G25G20G11G 1G14G30
  20699459.590   -19681353.17944 -15323145.82242  20699461.676    20699458.719
  22157491.529   -10269441.37043  -6571973.14742  22157493.313    22157491.109
  21641693.364   -12076719.82543  -9335878.66142  21641695.578    21641692.761
  22997959.406    -3574738.57943  -2773756.04842  22997961.531    22997961.595
  23258739.908    -8515073.26843  -6626137.61742  23258741.922    23258739.353
  24122808.053    -3417022.74443  -2580741.60142  24122810.550    24122810.259
 04  5 20  0 21 30.0000000  0  6G25G20G11G 1G14G30
  20702982.335   -19662840.93744 -15308720.69642  20702984.457    20702981.498
  22142163.022   -10349992.15743  -6634739.94842  22142164.865    22142162.725
  21648466.477   -12041126.80943  -9308143.88542  21648468.671    21648465.953
  22984831.151    -3643727.86643  -2827513.83542  22984833.250    22984833.226
  23273790.603    -8435980.11343  -6564506.62542  23273792.864    23273790.583
  24124599.910    -3407606.40743  -2573404.17942  24124602.559    24124602.055
 04  5 20  0 22  0.0000000  0  6G25G20G11G 1G14G30
  20706600.287   -19643828.47344 -15293905.79242  20706602.392    20706599.530
  22126867.907   -10430368.46343  -6697370.79542  22126869.666    22126867.625
  21655334.735   -12005033.84443  -9280019.52342  21655336.916    21655334.284
  22971735.339    -3712545.97743  -2881138.25042  22971737.567    22971737.484
  23288850.486    -8356840.32743  -6502839.29842  23288852.584    23288850.576
  24126496.377    -3397642.54643  -2565640.08042  24126498.916    24126498.066
 04  5 20  0 22 30.0000000  0  6G25G20G11G 1G14G30
  20710313.466   -19624315.32644 -15278700.74042  20710315.595    20710312.766
  22111606.720   -10510567.36443  -6759863.41642  22111608.417    22111606.377
  21662297.997   -11968441.57044  -9251506.08642  21662300.220    21662297.551
  22958672.370    -3781191.53643  -2934628.18242  22958674.648    22958674.510
  23303919.224    -8277653.11643  -6441135.03542  23303921.277    23303919.472
  24128496.955    -3387129.49443  -2557448.09442  24128499.533    24128498.583
 04  5 20  0 23  0.0000000  0  6G25G20G11G 1G14G30
  20714121.309   -19604305.27244 -15263108.49442  20714123.392    20714120.494
  22096379.075   -10590588.57643  -6822217.57842  22096380.833    22096378.904
  21669355.676   -11931353.76244  -9222606.52342  21669357.882    21669355.131
  22945641.968    -3849666.59343  -2987985.27742  22945644.239    22945644.206
  23318996.786    -8198421.37043  -6379396.04742  23318998.709    23318996.656
  24130601.701    -3376069.25343  -2548829.70042  24130604.374    24130603.474
 04  5 20  0 23 30.0000000  0  6G25G20G11G 1G14G30
  20718024.171   -19583795.52244 -15247126.86942  20718026.225    20718023.333
  22081186.463   -10670426.81243  -6884429.15742  22081188.174    22081186.186
  21676507.972   -11893768.03944  -9193318.97642  21676510.214    21676507.540
  22932644.627    -3917967.39343  -3041206.60942  22932646.912    22932647.075
  23334083.214    -8119142.10843  -6317620.07742  23334085.115    23334083.097
  24132810.998    -3364457.98543  -2539781.94642  24132813.837    24132812.933
 04  5 20  0 24  0.0000000  0  6G25G20G11G 1G14G30
  20722021.239   -19562790.95644 -15230759.68042  20722023.283    20722020.375
  22066028.126   -10750083.66043  -6946499.38542  22066029.914    22066028.066
  21683754.138   -11855689.63743  -9163647.53442  21683756.322    21683753.648
  22919679.940    -3986097.47843  -3094294.89642  22919682.086    22919682.267
  23349177.779    -8039819.32943  -6255810.16142  23349179.722    23349177.741
  24135124.602    -3352299.02643  -2530307.43842  24135127.265    24135126.676
 04  5 20  0 24 30.0000000  0  6G25G20G11G 1G14G30
  20726112.554   -19541290.82144 -15214006.32542  20726114.648    20726111.780
  22050905.245   -10829555.26843  -7008425.27442  22050906.993    22050905.120
  21691093.974   -11817118.34343  -9133592.01942  21691096.137    21691093.552
  22906747.902    -4054054.91843  -3147248.64942  22906750.080    22906750.280
  23364280.967    -7960451.86443  -6193965.45142  23364282.920    23364281.016
  24137543.377    -3339590.31243  -2520404.51642  24137545.929    24137544.755
 04  5 20  0 25  0.0000000  0  6G25G20G11G 1G14G30
  20730298.064   -19519296.00744 -15196867.51242  20730300.109    20730297.309
  22035818.088   -10908839.06743  -7070204.83742  22035819.865    22035817.855
  21698527.423   -11778055.17643  -9103153.21642  21698529.580    21698527.137
  22893848.913    -4121839.10343  -3200067.39542  22893851.088    22893851.277
  23379392.664    -7881039.84143  -6132085.99842  23379394.734    23379392.476
  24140066.335    -3326331.05243  -2510072.62842  24140069.156    24140067.865
 04  5 20  0 25 30.0000000  0  6G25G20G11G 1G14G30
  20734576.874   -19496810.67044 -15179346.46942  20734578.942    20734576.162
  22020766.328   -10987936.41443  -7131839.10442  22020768.098    22020766.084
  21706053.645   -11738504.95143  -9072334.90242  21706055.749    21706053.334
  22880982.365    -4189453.36543  -3252753.75842  22880984.458    22880984.581
  23394512.070    -7801587.17143  -6070174.87442  23394514.186    23394511.734
  24142693.685    -3312524.55143  -2499314.32142  24142696.580    24142695.281
 04  5 20  0 26  0.0000000  0  6G25G20G11G 1G14G30
  20738949.219   -19473833.68744 -15161442.33042  20738951.269    20738948.461
  22005750.962   -11066842.55443  -7193324.36642  22005752.761    22005750.823
  21713672.661   -11698466.81143  -9041136.38942  21713674.780    21713672.346
  22868148.665    -4256894.83243  -3305305.47242  22868150.746    22868150.777
  23409639.346    -7722091.74543  -6008230.44142  23409641.466    23409639.441
  24145425.760    -3298167.96143  -2488127.33642  24145428.669    24145427.141
 04  5 20  0 26 30.0000000  0  6G25G20G11G 1G14G30
  20743414.870   -19450366.43944 -15143156.16542  20743416.952    20743414.096
  21990772.305   -11145555.33043  -7254658.94742  21990774.142    21990772.303
  21721384.241   -11657942.20643  -9009558.81542  21721386.364    21721384.022
  22855347.738    -4324163.09743  -3357722.19342  22855349.871    22855350.012
  23424775.146    -7642553.97743  -5946253.00742  23424777.131    23424775.171
  24148262.395    -3283260.81543  -2476511.35942  24148265.316    24148263.537
 04  5 20  0 27  0.0000000  0  6G25G20G11G 1G14G30
  20747973.531   -19426410.19644 -15124488.96842  20747975.616    20747972.833
  21975830.757   -11224073.40543  -7315841.81842  21975832.612    21975830.735
  21729187.907   -11616933.22443  -8977603.79842  21729190.043    21729187.862
  22842579.760    -4391258.69443  -3410004.34842  22842581.928    22842582.116
  23439918.548    -7562975.06143  -5884243.50542  23439920.675    23439918.600
  24151203.535    -3267803.93243  -2464466.97742  24151206.471    24151204.693
 04  5 20  0 27 30.0000000  0  6G25G20G11G 1G14G30
  20752624.798   -19401967.84544 -15105442.98242  20752626.815    20752624.047
  21960926.473   -11302396.12343  -7376872.47342  21960928.267    21960926.369
  21737083.291   -11575443.01443  -8945273.80242  21737085.372    21737083.104
  22829844.526    -4458182.93643  -3462153.02442  22829846.622    22829846.763
  23455069.372    -7483356.77843  -5822203.34242  23455071.456    23455069.378
  24154249.122    -3251798.43243  -2451995.13542  24154251.967    24154250.493
 04  5 20  0 28  0.0000000  0  6G25G20G11G 1G14G30
  20757368.659   -19377038.78544 -15086017.74342  20757370.678    20757367.915
  21946059.961   -11380519.74543  -7437747.98042  21946061.745    21946059.869
  21745070.188   -11533471.62743  -8912568.84642  21745072.330    21745069.937
  22817142.178    -4524933.98143  -3514166.75542  22817144.291    22817144.384
  23470227.913    -7403698.14943  -5760131.73242  23470229.934    23470227.857
  24157399.491    -3235242.65043  -2439094.55342  24157402.288    24157401.232
 04  5 20  0 28 30.0000000  0  6G25G20G11G 1G14G30
  20762204.813   -19351624.77944 -15066214.61642  20762206.799    20762204.021
  21931231.702   -11458442.46943  -7498466.94942  21931233.464    21931231.657
  21753148.346   -11491021.19043  -8879490.62142  21753150.481    21753148.007
  22804472.580    -4591512.19243  -3566045.80742  22804474.666    22804474.908
  23485393.716    -7323999.92443  -5698029.25842  23485395.868    23485393.890
  24160654.436    -3218136.72243  -2425765.25642  24160657.374    24160656.544
 04  5 20  0 29  0.0000000  0  6G25G20G11G 1G14G30
  20767132.514   -19325729.36744 -15046036.37442  20767134.540    20767131.721
  21916441.634   -11536164.52343  -7559029.54142  21916443.371    21916441.612
  21761316.676   -11448095.61943  -8846042.16342  21761318.814    21761316.444
  22791835.515    -4657919.79943  -3617791.89842  22791837.557    22791837.933
  23500567.049    -7244264.94343  -5635898.17142  23500568.964    23500567.104
  24164013.966    -3200483.12543  -2412009.21142  24164016.858    24164015.943
 04  5 20  0 29 30.0000000  0  6G25G20G11G 1G14G30
  20772151.773   -19299352.92344 -15025483.30642  20772153.824    20772150.989
  21901690.499   -11613682.49443  -7619433.11642  21901692.224    21901690.434
  21769575.497   -11404695.57843  -8812223.99642  21769577.583    21769575.318
  22779231.246    -4724155.35843  -3669403.93942  22779233.279    22779233.641
  23515747.350    -7164492.15043  -5573737.59142  23515749.342    23515747.619
  24167478.155    -3182280.43243  -2397825.27242  24167480.918    24167479.842
 04  5 20  0 30  0.0000000  0  6G25G20G11G 1G14G30
  20777262.259   -19272497.02944 -15004556.63542  20777264.308    20777261.505
  21886978.355   -11690994.96643  -7679676.57442  21886980.138    21886978.297
  21777924.290   -11360822.98444  -8778037.59442  21777926.416    21777924.171
  22766659.590    -4790219.35843  -3720882.30942  22766661.579    22766661.954
  23530934.653    -7084682.70243  -5511548.45142  23530936.655    23530934.981
  24171046.167    -3163529.33443  -2383213.97442  24171049.114    24171047.986
 04  5 20  0 30 30.0000000  0  6G25G20G11G 1G14G30
  20782463.836   -19245162.69744 -14983257.15342  20782465.850    20782463.051
  21872305.782   -11768099.32743  -7739757.85042  21872307.550    21872305.686
  21786362.749   -11316479.23944  -8743484.05742  21786364.894    21786362.526
  22754120.812    -4856111.35143  -3772226.63642  22754122.766    22754123.121
  23546128.877    -7004837.02043  -5449331.09342  23546130.837    23546129.103
  24174718.873    -3144229.41943  -2368175.08742  24174721.759    24174720.792
 04  5 20  0 31  0.0000000  0  6G25G20G11G 1G14G30
  20787756.575   -19217349.08144 -14961584.20842  20787758.572    20787755.738
  21857673.594   -11844991.54643  -7799673.82042  21857675.386    21857673.493
  21794890.815   -11271664.10444  -8708563.21442  21794892.957    21794890.574
  22741615.005    -4921828.99043  -3823435.12542  22741616.995    22741617.310
  23561330.249    -6924953.21043  -5387084.02242  23561332.474    23561330.562
  24178495.965    -3124378.85843  -2352707.12842  24178498.972    24178498.253
 04  5 20  0 31 30.0000000  0  6G25G20G11G 1G14G30
  20793139.612   -19189061.23244 -14939541.73242  20793141.626    20793138.751
  21843081.596   -11921673.14943  -7859425.68842  21843083.358    21843081.372
  21803507.663   -11226383.09743  -8673279.35942  21803509.781    21803507.324
  22729141.683    -4987375.96343  -3874510.59542  22729143.640    22729144.063
  23576538.209    -6845035.52543  -5324810.55542  23576540.387    23576538.366
  24182377.581    -3103981.25343  -2336812.86742  24182380.457    24182379.894
 04  5 20  0 32  0.0000000  0  6G25G20G11G 1G14G30
  20798613.065   -19160297.98244 -14917128.81242  20798615.137    20798612.237
  21828530.694   -11998139.07343  -7919009.49842  21828532.452    21828530.379
  21812213.141   -11180635.13543  -8637631.62642  21812215.299    21812212.966
  22716701.491    -5052749.36043  -3925450.80842  22716703.420    22716703.822
  23591752.920    -6765081.52043  -5262508.80142  23591755.156    23591753.207
  24186364.025    -3083034.12543  -2320490.43642  24186366.637    24186366.245
 04  5 20  0 32 30.0000000  0  6G25G20G11G 1G14G30
  20804176.067   -19131064.45944 -14894349.44642  20804178.142    20804175.184
  21814020.195   -12074391.60743  -7978427.01542  21814022.004    21814020.006
  21821006.363   -11134426.49543  -8601624.92442  21821008.527    21821006.174
  22704293.550    -5117953.21843  -3976258.92342  22704295.532    22704295.770
  23606973.874    -6685095.75943  -5200182.27942  23606976.166    23606974.000
  24190453.957    -3061541.44243  -2303742.85342  24190456.558    24190455.945
 04  5 20  0 33  0.0000000  0  6G25G20G11G 1G14G30
  20809829.192   -19101357.23744 -14871200.96742  20809831.240    20809828.279
  21799551.824   -12150423.36043  -8037672.49742  21799553.578    21799551.546
  21829887.995   -11087753.48643  -8565256.39442  21829890.100    21829887.687
  22691918.795    -5182982.43743  -4026930.93942  22691920.822    22691921.044
  23622201.619    -6605073.69843  -5137827.48042  23622203.874    23622201.811
  24194648.311    -3039498.65243  -2286566.60842  24194651.209    24194650.187
 04  5 20  0 33 30.0000000  0  6G25G20G11G 1G14G30
  20815571.919   -19071178.90644 -14847685.38842  20815574.033    20815571.038
  21785125.628   -12226233.32243  -8096745.14942  21785127.379    21785125.430
  21838857.316   -11040619.17343  -8528528.39442  21838859.473    21838857.101
  22679577.029    -5247837.78743  -4077467.47042  22679579.168    22679579.322
  23637435.835    -6525016.82243  -5075445.54742  23637438.136    23637436.336
  24198947.303    -3016906.83843  -2268962.60242  24198950.087    24198949.057
 04  5 20  0 34  0.0000000  0  6G25G20G11G 1G14G30
  20821403.189   -19040535.36244 -14823807.30742  20821405.291    20821402.291
  21770741.250   -12301823.73143  -8155646.72842  21770743.017    21770740.998
  21847913.299   -10993030.07243  -8491446.01842  21847915.424    21847913.018
  22667267.812    -5312523.78243  -4127872.06542  22667269.888    22667269.829
  23652675.993    -6444930.19243  -5013040.46042  23652678.138    23652676.443
  24203349.911    -2993770.67343  -2250934.38842  24203352.675    24203351.749
 04  5 20  0 34 30.0000000  0  6G25G20G11G 1G14G30
  20827322.944   -19009426.72344 -14799566.80942  20827325.030    20827322.073
  21756399.196   -12377191.58843  -8214374.90942  21756400.994    21756398.814
  21857055.643   -10944987.04243  -8454009.93242  21857057.823    21857055.215
  22654990.942    -5377039.28543  -4178143.81242  22654992.997    22654992.866
  23667921.732    -6364813.12643  -4950611.62842  23667923.892    23667922.265
  24207856.417    -2970089.54143  -2232481.52242  24207859.191    24207857.851
 04  5 20  0 35  0.0000000  0  6G25G20G11G 1G14G30
  20833331.687   -18977850.76344 -14774962.17242  20833333.756    20833330.753
  21742100.596   -12452330.77643  -8272924.87542  21742102.365    21742100.352
  21866284.706   -10896488.11143  -8416218.60242  21866286.895    21866284.326
  22642747.192    -5441380.27643  -4228279.57142  22642749.231    22642749.057
  23683173.964    -6284661.99243  -4888156.26242  23683176.068    23683174.547
  24212467.102    -2945859.47243  -2213600.94542  24212469.878    24212468.608
 04  5 20  0 35 30.0000000  0  6G25G20G11G 1G14G30
  20839428.712   -18945810.60944 -14749995.82042  20839430.809    20839427.809
  21727845.675   -12527240.83043  -8331296.31042  21727847.417    21727845.391
  21875599.959   -10847536.77043  -8378074.73642  21875602.137    21875599.512
  22630536.261    -5505548.51943  -4278280.70542  22630538.251    22630538.207
  23698432.323    -6204478.89743  -4825675.98742  23698434.407    23698432.669
  24217181.943    -2921082.70343  -2194294.35342  24217184.790    24217183.598
 04  5 20  0 36  0.0000000  0  6G25G20G11G 1G14G30
  20845613.255   -18913310.68544 -14724671.21242  20845615.339    20845612.370
  21713634.260   -12601922.30243  -8389489.63542  21713636.002    21713633.881
  21885000.366   -10798137.61343  -8339581.93742  21885002.567    21884999.988
  22618357.826    -5569546.66143  -4328149.31642  22618359.808    22618359.692
  23713696.333    -6124266.99343  -4763173.27442  23713698.330    23713696.523
  24222000.461    -2895762.23943  -2174564.13942  24222003.048    24222002.087
 04  5 20  0 36 30.0000000  0  6G25G20G11G 1G14G30
  20851885.008   -18880352.70044 -14698989.67142  20851887.065    20851884.067
  21699466.729   -12676373.11443  -8447503.21642  21699468.455    21699466.340
  21894485.605   -10748292.73643  -8300741.83042  21894487.795    21894485.211
  22606211.683    -5633374.59043  -4377885.28142  22606213.756    22606213.469
  23728965.604    -6044026.81143  -4700648.51842  23728967.661    23728965.906
  24226922.147    -2869898.75743  -2154410.76442  24226924.758    24226924.038
 04  5 20  0 37  0.0000000  0  6G25G20G11G 1G14G30
  20858244.561   -18846932.79544 -14672948.18942  20858246.634    20858243.700
  21685344.428   -12750586.53443  -8505331.83342  21685346.193    21685343.857
  21904056.028   -10697999.51843  -8261552.35542  21904058.223    21904055.767
  22594098.930    -5697027.57443  -4427484.96942  22594100.972    22594100.686
  23744241.132    -5963754.25443  -4638098.56542  23744243.190    23744241.499
  24231947.807    -2843487.64343  -2133830.59842  24231950.721    24231949.828
 04  5 20  0 37 30.0000000  0  6G25G20G11G 1G14G30
  20864691.025   -18813056.77744 -14646551.29342  20864693.079    20864690.149
  21671266.907   -12824564.14543  -8562976.69642  21671268.693    21671266.230
  21913710.719   -10647263.81843  -8222018.08842  21913712.901    21913710.557
  22582018.654    -5760509.42443  -4476951.26442  22582020.740    22582020.559
  23759521.941    -5883453.50543  -4575526.60742  23759524.030    23759522.245
  24237077.255    -2816533.25443  -2112827.15642  24237080.110    24237079.276
 04  5 20  0 38  0.0000000  0  6G25G20G11G 1G14G30
  20871223.951   -18778726.02044 -14619800.05742  20871226.020    20871223.093
  21657234.732   -12898303.65743  -8620436.03642  21657236.527    21657233.987
  21923449.196   -10596087.39843  -8182140.40342  21923451.364    21923449.128
  22569971.004    -5823820.11343  -4526284.19142  22569973.042    22569972.799
  23774808.009    -5803124.76643  -4512932.84342  23774810.051    23774808.337
  24242309.797    -2789035.84543  -2091400.60742  24242312.591    24242311.886
 04  5 20  0 38 30.0000000  0  6G25G20G11G 1G14G30
  20877843.403   -18743940.37844 -14592694.36542  20877845.481    20877842.521
  21643248.561   -12971801.29443  -8677706.89942  21643250.332    21643247.856
  21933271.557   -10544470.52743  -8141919.50242  21933273.707    21933271.642
  22557956.238    -5886957.78843  -4575482.30742  22557958.308    22557958.036
  23790099.626    -5722766.52943  -4450316.11842  23790101.721    23790099.966
  24247646.314    -2760994.05243  -2069549.87142  24247648.874    24247648.127
 04  5 20  0 39  0.0000000  0  6G25G20G11G 1G14G30
  20884548.938   -18708702.47244 -14565236.25842  20884551.036    20884548.075
  21629308.665   -13045055.79543  -8734788.29642  21629310.409    21629308.056
  21943177.192   -10492416.22643  -8101357.75542  21943179.342    21943177.281
  22545974.182    -5949923.39143  -4624546.34642  22545976.238    22545976.037
  23805396.568    -5642380.40443  -4387677.64142  23805398.692    23805397.034
  24253085.534    -2732409.60943  -2047276.24642  24253088.158    24253087.480
 04  5 20  0 39 30.0000000  0  6G25G20G11G 1G14G30
  20891339.892   -18673016.00444 -14537428.62842  20891341.972    20891339.013
  21615415.144   -13118067.09943  -8791680.19442  21615416.921    21615414.505
  21953165.199   -10439929.02543  -8060458.69742  21953167.346    21953165.265
  22534024.633    -6012719.14943  -4673478.03742  22534026.621    22534026.334
  23820698.179    -5561968.93343  -4325019.39742  23820700.335    23820698.712
  24258627.703    -2703284.97743  -2024581.71942  24258630.204    24258629.399
 04  5 20  0 40  0.0000000  0  6G25G20G11G 1G14G30
  20898216.949   -18636876.87244 -14509268.26742  20898219.041    20898216.072
  21601569.239   -13190827.71143  -8848376.75042  21601571.065    21601568.634
  21963236.323   -10387005.29143  -8019219.47742  21963238.453    21963236.392
  22522108.363    -6075339.28643  -4722272.87342  22522110.387    22522109.910
  23836005.788    -5481526.99043  -4262337.41942  23836008.025    23836006.317
  24264273.557    -2673615.24743  -2001462.39842  24264276.266    24264275.141
 04  5 20  0 40 30.0000000  0  6G25G20G11G 1G14G30
  20905177.892   -18600296.88844 -14480764.39442  20905179.986    20905177.052
  21587769.577   -13263345.35443  -8904883.97942  21587771.382    21587768.965
  21973388.299   -10333657.24643  -7977649.62842  21973390.397    21973388.145
  22510223.510    -6137793.88243  -4770938.72242  22510225.560    22510225.098
  23851317.312    -5401064.78443  -4199639.67142  23851319.593    23851318.004
  24270021.361    -2643411.13143  -1977926.70342  24270024.004    24270022.658
 04  5 20  0 41  0.0000000  0  6G25G20G11G 1G14G30
  20912224.426   -18563267.06644 -14451909.99142  20912226.540    20912223.556
  21574018.617   -13335607.09143  -8961191.79442  21574020.446    21574018.015
  21983622.503   -10279876.09643  -7935742.27942  21983624.664    21983622.348
  22498372.476    -6200072.36943  -4819467.37742  22498374.456    22498373.750
  23866634.462    -5320571.98143  -4136918.06942  23866636.728    23866635.415
  24275872.701    -2612662.24643  -1953966.52042  24275875.487    24275874.107
 04  5 20  0 41 30.0000000  0  6G25G20G11G 1G14G30
  20919355.117   -18525795.05444 -14422711.03142  20919357.240    20919354.205
  21560315.448   -13407616.98343  -9017303.35142  21560317.350    21560315.006
  21993937.639   -10225670.13743  -7893503.92642  21993939.788    21993937.354
  22486553.621    -6262180.63043  -4867863.35642  22486555.634    22486554.879
  23881956.352    -5240055.19143  -4074177.76542  23881958.463    23881957.350
  24281826.336    -2581375.36143  -1929587.13542  24281829.284    24281827.746
 04  5 20  0 42  0.0000000  0  6G25G20G11G 1G14G30
  20926569.697   -18487882.05844 -14393168.44542  20926571.826    20926568.836
  21546660.799   -13479372.38543  -9073216.61242  21546662.711    21546660.379
  22004333.232   -10171041.26143  -7850936.02442  22004335.430    22004332.907
  22474767.176    -6324118.15843  -4916126.27942  22474769.328    22474768.611
  23897283.000    -5159514.37843  -4011418.77142  23897284.884    23897283.678
  24287882.297    -2549550.93343  -1904788.82542  24287885.155    24287883.666
 04  5 20  0 42 30.0000000  0  6G25G20G11G 1G14G30
  20933867.855   -18449530.12544 -14363283.82942  20933869.942    20933867.004
  21533054.887   -13550871.43543  -9128930.11742  21533056.815    21533054.528
  22014808.849   -10115991.81943  -7808040.41542  22014811.049    22014808.538
  22463013.174    -6385885.23843  -4964256.38942  22463015.304    22463014.729
  23912614.060    -5078950.07943  -3948641.44442  23912616.026    23912614.692
  24294040.388    -2517189.48443  -1879572.10142  24294043.331    24294042.066
 04  5 20  0 43  0.0000000  0  6G25G20G11G 1G14G30
  20941249.451   -18410739.34944 -14333057.25842  20941251.562    20941248.692
  21519498.397   -13622110.76443  -9184441.24242  21519500.321    21519498.028
  22025364.352   -10060522.81043  -7764817.85942  22025366.525    22025364.006
  22451292.008    -6447480.60243  -5012252.71542  22451294.099    22451293.341
  23927949.640    -4998361.49443  -3885845.18842  23927951.614    23927950.227
  24300300.871    -2484290.81343  -1853936.78742  24300303.789    24300302.626
 04  5 20  0 43 30.0000000  0  6G25G20G11G 1G14G30
  20948714.803   -18371509.20244 -14302488.32042  20948716.858    20948713.990
  21505992.310   -13693085.53243  -9239746.21442  21505994.192    21505992.007
  22035999.699   -10004633.80043  -7721268.01742  22036001.873    22035999.354
  22439603.802    -6508901.61543  -5060113.13542  22439605.987    22439605.201
  23943290.112    -4917746.48143  -3823028.34342  23943292.122    23943290.775
  24306663.844    -2450853.16543  -1827881.48042  24306666.706    24306665.569
 04  5 20  0 44  0.0000000  0  6G25G20G11G 1G14G30
  20956262.463   -18331845.97044 -14271581.91542  20956264.555    20956261.619
  21492536.160   -13763798.21843  -9294846.98142  21492537.983    21492535.755
  22046713.616    -9948331.55943  -7677396.17842  22046715.793    22046713.313
  22427947.983    -6570153.06943  -5107841.49442  22427950.140    22427949.358
  23958634.763    -4837109.82243  -3760194.64342  23958636.835    23958635.470
  24313128.474    -2416881.53143  -1801410.06842  24313131.346    24313130.004
 04  5 20  0 44 30.0000000  0  6G25G20G11G 1G14G30
  20963892.867   -18291747.66644 -14240336.49042  20963894.989    20963892.037
  21479130.959   -13834242.89843  -9349738.90542  21479132.782    21479130.534
  22057506.575    -9891614.64643  -7633201.23342  22057508.727    22057506.318
  22416325.132    -6631231.05143  -5155434.68242  22416327.227    22416326.615
  23973984.146    -4756448.33043  -3697341.58442  23973986.273    23973984.859
  24319695.065    -2382373.11343  -1774520.37642  24319698.072    24319696.820
 04  5 20  0 45  0.0000000  0  6G25G20G11G 1G14G30
  20971604.998   -18251220.14444 -14208756.61542  20971607.072    20971604.196
  21465776.445   -13904421.51643  -9404423.51742  21465778.231    21465775.920
  22068377.272    -9834489.42343  -7588688.11642  22068379.424    22068376.933
  22404734.470    -6692139.73843  -5202895.90842  22404736.577    22404736.018
  23989337.223    -4675766.41543  -3634472.59942  23989339.432    23989338.154
  24326362.878    -2347332.83543  -1747216.25042  24326365.888    24326364.704
 04  5 20  0 45 30.0000000  0  6G25G20G11G 1G14G30
  20979398.243   -18210266.57944 -14176844.75242  20979400.293    20979397.397
  21452472.560   -13974333.27843  -9458900.17942  21452474.401    21452472.190
  22079324.910    -9776959.37743  -7543859.54942  22079327.103    22079324.487
  22393176.028    -6752880.39543  -5250226.23342  22393178.015    22393177.375
  24004694.533    -4595065.64343  -3571588.94042  24004696.553    24004694.877
  24333131.824    -2311762.62943  -1719499.21442  24333134.725    24333133.376
 04  5 20  0 46  0.0000000  0  6G25G20G11G 1G14G30
  20987273.639   -18168880.96344 -14144596.22742  20987275.684    20987272.829
  21439221.466   -14043968.03343  -9513160.99642  21439223.269    21439221.113
  22090350.722    -9719018.63943  -7498710.97542  22090352.914    22090350.263
  22381650.651    -6813445.49343  -5297419.72942  22381652.784    22381652.200
  24020056.130    -4514338.73843  -3508684.90042  24020058.304    24020056.763
  24340002.443    -2275655.96943  -1691364.12342  24340005.353    24340003.821
 04  5 20  0 46 30.0000000  0  5G25G20G11G 1G14
  20995229.203   -18127074.08244 -14112019.44142  20995231.242    20995228.377
  21426021.730   -14113333.19843  -9567211.74242  21426023.521    21426021.399
  22101452.275    -9660679.73143  -7453252.13942  22101454.452    22101451.779
  22370157.235    -6873844.21643  -5344483.60542  22370159.348    22370158.636
  24035421.183    -4433595.05243  -3445767.81042  24035423.464    24035421.910
 04  5 20  0 47  0.0000000  0  5G25G20G11G 1G14
  21003266.287   -18084839.14744 -14079109.11242  21003268.313    21003265.420
  21412875.382   -14182417.51843  -9621043.64842  21412877.191    21412875.095
  22112630.704    -9601935.65043  -7407477.56442  22112632.967    22112630.439
  22358697.040    -6934067.75843  -5391410.98242  22358699.124    22358698.391
  24050791.103    -4352826.42643  -3382831.23142  24050793.291    24050791.882
 04  5 20  0 47 30.0000000  0  5G25G20G11G 1G14
  21011383.084   -18042184.88444 -14045872.03242  21011385.181    21011382.241
  21399781.600   -14251225.99043  -9674660.61142  21399783.328    21399781.245
  22123884.630    -9542796.00643  -7361394.76542  22123886.805    22123884.411
  22347268.818    -6994123.18943  -5438207.35342  22347270.968    22347270.216
  24066164.255    -4272040.26743  -3319881.06842  24066166.405    24066165.080
 04  5 20  0 48  0.0000000  0  6G16G25G20G11G 1G14
  24326726.358
  21019580.819   -17999105.81444 -14012303.93642  21019582.842    21019579.944
  21386742.071   -14319749.16643  -9728055.27642  21386743.784    21386741.629
  22135214.917    -9483255.50943  -7314999.63742  22135217.050    22135214.710
  22335873.893    -7054003.11843  -5484866.95942  22335876.113    22335875.398
  24081541.768    -4191229.59143  -3256911.72342  24081544.226    24081542.883
 04  5 20  0 48 30.0000000  0  6G16G25G20G11G 1G14
  24308753.146
  21027856.064   -17955618.72944 -13978417.90042  21027858.122    21027855.238
  21373754.479   -14387999.86544  -9781237.62342  21373756.206    21373753.932
  22146617.978    -9423331.96743  -7268306.02142  22146620.129    22146617.896
  22324509.536    -7113722.77943  -5531401.69642  22324511.663    22324510.953
  24096921.608    -4110409.59243  -3193935.15142  24096923.697    24096922.021
 04  5 20  0 49  0.0000000  0  6G16G25G20G11G 1G14
  24290781.565
  21036212.227   -17911706.87344 -13944200.87942  21036214.239    21036211.367
  21360822.708   -14455956.82044  -9834191.07742  21360824.496    21360822.150
  22158097.303    -9363008.12243  -7221300.48142  22158099.448    22158097.182
  22313179.292    -7173263.12243  -5577796.69742  22313181.476    22313180.811
  24112306.463    -4029561.64543  -3130936.81642  24112308.611    24112306.753
 04  5 20  0 49 30.0000000  0  6G16G25G20G11G 1G14
  24272812.474
  21044646.008   -17867387.15644 -13909666.04442  21044648.047    21044645.131
  21347944.350   -14523633.12344  -9886925.84842  21347946.171    21347943.742
  22169649.456    -9302301.60443  -7173996.75742  22169651.606    22169649.308
  22301880.386    -7232639.27743  -5624063.75642  22301882.521    22301881.847
  24127693.863    -3948701.12643  -3067928.67842  24127696.109    24127694.057
 04  5 20  0 50  0.0000000  0  6G16G25G20G11G 1G14
  24254847.972
  21053159.487   -17822648.66544 -13874804.89442  21053161.511    21053158.640
  21335122.195   -14591014.06344  -9939430.46242  21335123.971    21335121.532
  22181276.197    -9241202.76343  -7126387.32842  22181278.317    22181276.124
  22290615.059    -7291838.81443  -5670193.21442  22290617.124    22290616.381
  24143085.983    -3867815.89743  -3004901.31342  24143088.034    24143086.207
 04  5 20  0 50 30.0000000  0  6G16G25G20G11G 1G14
  24236887.205    -2017021.69353  -1311548.80752  24236888.574    24236889.056
  21061750.915   -17777500.14544 -13839624.23642  21061752.970    21061750.168
  21322355.230   -14658104.47643  -9991708.69042  21322357.074    21322354.568
  22192975.910    -9179720.53743  -7078479.14942  22192978.023    22192975.794
  22279382.088    -7350868.65443  -5716190.45342  22279384.106    22279383.189
  24158480.947    -3786913.35143  -2941860.40542  24158483.261    24158481.397
 04  5 20  0 51  0.0000000  0  6G16G25G20G11G 1G14
  24218930.900    -2111381.71343  -1385075.85942  24218931.833    24218932.583
  21070420.408   -17731942.14244 -13804124.50942  21070422.415    21070419.624
  21309644.381   -14724900.72944 -10043757.70842  21309646.172    21309643.638
  22204748.387    -9117856.10843  -7030273.17542  22204750.472    22204748.292
  22268181.519    -7409727.56143  -5762054.44242  22268183.583    22268182.712
  24173879.785    -3705992.57743  -2878805.31942  24173881.945    24173880.497
 04  5 20  0 51 30.0000000  0  6G16G25G20G11G 1G14
  24200979.142    -2205714.17943  -1458581.47242  24200980.843    24200981.659
  21079167.445   -17685975.84944 -13768306.62142  21079169.517    21079166.683
  21296989.908   -14791400.08843 -10095575.36842  21296991.672    21296989.252
  22216593.097    -9055611.52043  -6981770.96542  22216595.216    22216593.127
  22257013.558    -7468414.87243  -5807784.73542  22257015.646    22257014.928
  24189281.938    -3625052.83343  -2815735.44042  24189284.033    24189283.241
 04  5 20  0 52  0.0000000  0  6G16G25G20G11G 1G14
  24183033.137    -2300020.14443  -1532066.44542  24183034.900    24183036.182
  21087991.097   -17639607.49644 -13732175.44542  21087993.113    21087990.247
  21284391.598   -14857604.39143 -10147163.11042  21284393.324    21284391.012
  22228508.992    -8992993.12943  -6932977.47042  22228511.133    22228509.111
  22245877.488    -7526934.92743  -5853384.71242  22245879.537    22245878.919
  24204687.017    -3544098.86243  -2752654.48342  24204689.153    24204688.397
 04  5 20  0 52 30.0000000  0  6G16G25G20G11G 1G14
  24165093.161    -2394294.07343  -1605526.45942  24165095.064    24165096.498
  21096891.453   -17592835.69144 -13695729.90142  21096893.494    21096890.650
  21271850.456   -14923508.44744 -10198516.90142  21271852.199    21271849.890
  22240496.166    -8930000.16943  -6883892.09642  22240498.334    22240496.399
  22234773.867    -7585284.51943  -5898851.86942  22234775.883    22234775.157
  24220095.555    -3463127.80643  -2689560.25542  24220097.637    24220096.836
 04  5 20  0 53  0.0000000  0  6G16G25G20G11G 1G14
  24147160.468    -2488529.68543  -1678956.56242  24147162.360    24147164.129
  21105868.791   -17545659.27644 -13658969.06442  21105870.851    21105868.077
  21259367.447   -14989107.17643 -10249632.77142  21259369.167    21259366.758
  22252554.781    -8866632.37143  -6834514.63242  22252556.941    22252554.978
  22223703.237    -7643460.79643  -5944183.96742  22223705.297    22223704.529
  24235507.656    -3382136.85943  -2626450.46642  24235509.775    24235508.902
 04  5 20  0 53 30.0000000  0  6G16G25G20G11G 1G14
  24129234.374    -2582730.40143  -1752359.51242  24129236.451    24129238.323
  21114921.587   -17498086.78744 -13621899.60442  21114923.663    21114920.852
  21246941.740   -15054404.52443 -10300513.79942  21246943.489    21246941.086
  22264683.035    -8802898.43843  -6784851.88742  22264685.197    22264683.069
  22212664.397    -7701469.99643  -5989385.90042  22212666.429    22212665.655
  24250922.559    -3301132.66143  -2563330.38742  24250924.361    24250923.261
 04  5 20  0 54  0.0000000  0  6G16G25G20G11G 1G14
  24111316.923    -2676887.04643  -1825728.12542  24111318.922    24111320.885
  21124050.511   -17450114.18344 -13584518.36642  21124052.573    21124049.719
  21234574.943   -15119392.35844 -10351153.64242  21234576.690    21234574.274
  22276881.555    -8738794.76843  -6734901.05542  22276883.754    22276881.543
  22201658.513    -7759306.20443  -6034453.01942  22201660.534    22201659.664
  24266340.719    -3220109.62543  -2500195.63242  24266342.618    24266341.066
 04  5 20  0 54 30.0000000  0  6G16G25G20G11G 1G14
  24093407.178    -2771002.93543  -1899064.99942  24093409.198    24093411.156
  21133254.108   -17401749.43544 -13546831.56242  21133256.191    21133253.172
  21222266.228   -15184074.68744 -10401555.42742  21222268.002    21222265.635
  22289148.908    -8674330.20643  -6684668.97842  22289151.046    22289148.804
  22190684.406    -7816975.65243  -6079390.18142  22190686.430    22190685.360
  24281761.469    -3139074.20843  -2437051.23042  24281763.310    24281761.434
 04  5 20  0 55  0.0000000  0  6G16G25G20G11G 1G14
  24075507.076    -2865068.54243  -1972362.73642  24075508.993    24075510.971
  21142533.101   -17352987.97244 -13508835.63042  21142535.227    21142532.221
  21210017.274   -15248443.03844 -10451712.54942  21210019.050    21210016.844
  22301485.627    -8609500.52743  -6634152.39742  22301487.789    22301485.463
  22179743.166    -7874471.95943  -6124192.45242  22179745.215    22179744.100
  24297185.492    -3058020.13943  -2373892.23842  24297187.329    24297185.615
 04  5 20  0 55 30.0000000  0  6G16G25G20G11G 1G14
  24057615.823    -2959087.19843  -2045623.83042  24057617.824    24057619.600
  21151885.952   -17303838.01544 -13470536.96542  21151888.106    21151885.196
  21197827.398   -15312501.32544 -10501628.07142  21197829.116    21197826.893
  22313890.062    -8544314.76243  -6583358.35142  22313892.180    22313889.795
  22168833.688    -7931801.39343  -6168864.65742  22168835.741    22168834.697
  24312611.797    -2976953.90243  -2310723.82042  24312613.891    24312612.044
 04  5 20  0 56  0.0000000  0  6G16G25G20G11G 1G14
  24039735.116    -3053050.89643  -2118842.12642  24039737.118    24039738.635
  21161313.353   -17254297.12744 -13431933.68742  21161315.464    21161312.516
  21185697.827   -15376242.77744 -10551296.71442  21185699.499    21185697.187
  22326362.723    -8478770.73643  -6532285.15742  22326364.849    22326362.419
  22157956.861    -7988959.29343  -6213403.23042  22157958.863    22157957.716
  24328041.424    -2895871.19943  -2247542.55642  24328043.616    24328041.920
 04  5 20  0 56 30.0000000  0  6G16G25G20G11G 1G14
  24021864.786    -3146958.48543  -2192016.70642  24021866.907    24021868.332
  21170814.480   -17204368.58944 -13393028.34642  21170816.598    21170813.616
  21173628.654   -15439666.91244 -10600718.08942  21173630.322    21173627.963
  22338902.827    -8412872.63043  -6480936.04442  22338904.944    22338902.637
  22147112.370    -8045947.37943  -6257809.48742  22147114.408    22147113.123
  24343473.766    -2814774.16043  -2184350.11342  24343475.869    24343474.576
 04  5 20  0 57  0.0000000  0  6G16G25G20G11G 1G14
  24004006.186    -3240805.40743  -2265144.04542  24004008.377    24004009.470
  21180389.178   -17154052.99244 -13353821.39742  21180391.348    21180388.331
  21161620.566   -15502769.78844 -10649889.14342  21161622.301    21161619.872
  22351509.874    -8346621.76543  -6429312.05342  22351512.016    22351509.818
  22136300.393    -8102764.13743  -6302082.22442  22136302.451    22136301.362
  24358909.027    -2733661.05043  -2121145.15942  24358911.246    24358910.122
 04  5 20  0 57 30.0000000  0  6G16G25G20G11G 1G14
  23986158.907    -3334592.47543  -2338224.72242  23986161.092    23986162.193
  21190036.482   -17103355.98444 -13314317.24742  21190038.621    21190035.617
  21149673.278   -15565552.98844 -10698811.09342  21149675.031    21149672.672
  22364183.105    -8280023.89243  -6377417.67142  22364185.229    22364183.057
  22125520.451    -8159413.22343  -6346224.32042  22125522.490    22125521.405
  24374346.440    -2652536.10343  -2057930.96242  24374348.665    24374347.632
 04  5 20  0 58  0.0000000  0  6G16G25G20G11G 1G14
  23968323.907    -3428313.50043  -2411253.91442  23968326.341    23968327.565
  21199756.596   -17052276.58644 -13274515.13042  21199758.718    21199755.665
  21137787.752   -15628011.52944 -10747480.06742  21137789.533    21137787.236
  22376922.490    -8213078.62543  -6325252.58242  22376924.568    22376922.498
  22114772.809    -8215891.70643  -6390233.45042  22114774.913    22114773.912
  24389786.855    -2571396.51243  -1994705.38242  24389788.896    24389787.733
 04  5 20  0 58 30.0000000  0  6G16G25G20G11G 1G14
  23950501.663    -3521968.63043  -2484231.73642  23950504.136    23950505.449
  21209548.485   -17000819.86244 -13234418.99342  21209550.637    21209547.557
  21125963.787   -15690146.50144 -10795896.90442  21125965.542    21125963.304
  22389726.635    -8145792.27243  -6272821.72642  22389728.733    22389726.743
  22104057.017    -8272203.18743  -6434112.48742  22104059.130    22104058.109
  24405229.534    -2490245.85443  -1931471.17342  24405231.499    24405229.928
 04  5 20  0 59  0.0000000  0  6G16G25G20G11G 1G14
  23932693.896    -3615550.48543  -2557152.50742  23932696.043    23932697.209
  21219412.640   -16948983.46344 -13194027.00542  21219414.761    21219411.690
  21114202.770   -15751951.06144 -10844056.29442  21114204.492    21114202.206
  22402596.269    -8078162.50543  -6220123.25842  22402598.336    22402596.290
  22093373.807    -8328343.04343  -6477857.77342  22093375.913    22093375.028
  24420675.146    -2409080.01943  -1868225.14042  24420677.109    24420675.248
 04  5 20  0 59 30.0000000  0  6G16G25G20G11G 1G14
  23914899.669    -3709058.92243  -2630016.05842  23914901.877    23914902.953
  21229348.046   -16896772.13744 -13153342.87442  21229350.174    21229347.239
  21102504.492   -15813426.02844 -10891958.85642  21102506.196    21102503.878
  22415530.185    -8010195.09043  -6167161.70042  22415532.258    22415530.188
  22082722.923    -8384314.16843  -6521471.56242  22082725.028    22082724.011
  24436122.715    -2327901.91843  -1804969.53942  24436124.974    24436123.213
 04  5 20  1  0  0.0000000  0  6G16G25G20G11G 1G14
  23897120.243    -3802490.24243  -2702819.52542  23897122.373    23897123.595
  21239354.549   -16844187.59944 -13112367.92142  21239356.641    21239353.823
  21090869.386   -15874568.80644 -10939602.56842  21090871.101    21090868.782
  22428527.753    -7941891.81443  -6113938.44642  22428529.904    22428527.933
  22072104.088    -8440116.20443  -6564953.61842  22072106.209    22072105.146
  24451572.891    -2246711.37543  -1741704.23442  24451575.220    24451573.658
 04  5 20  1  0 30.0000000  0  6G16G25G20G11G 1G14
  23879356.124    -3895841.08343  -2775560.28742  23879358.302    23879359.395
  21249431.801   -16791231.41544 -13071103.37942  21249433.847    21249431.107
  21079298.042   -15935376.71444 -10986985.34242  21079299.760    21079297.490
  22441588.871    -7873255.19543  -6060455.43842  22441590.937    22441589.042
  22061517.654    -8495748.63643  -6608303.52542  22061519.777    22061518.676
  24467025.391    -2165508.19943  -1678429.13842  24467027.666    24467026.474
 04  5 20  1  1  0.0000000  0  6G16G25G20G11G 1G14
  23861607.950    -3989106.81943  -2848234.69842  23861610.191    23861611.308
  21259579.610   -16737904.20544 -13029549.72442  21259581.667    21259578.933
  21067791.157   -15995845.55544 -11034103.90642  21067792.907    21067790.681
  22454713.442    -7804285.78943  -6006713.12242  22454715.474    22454713.557
  22050963.768    -8551209.86143  -6651520.01342  22050965.844    22050964.684
  24482480.386    -2084290.84743  -1615142.91242  24482482.841    24482481.639
 04  5 20  1  1 30.0000000  0  6G16G25G20G11G 1G14
  23843876.318    -4082286.81143  -2920842.38342  23843878.649    23843879.188
  21269797.252   -16684210.37444 -12987710.38642  21269799.276    21269796.508
  21056348.640   -16055976.30944 -11080959.02942  21056350.364    21056348.216
  22467900.279    -7734989.19943  -5952715.85742  22467902.323    22467900.309
  22040441.826    -8606502.61743  -6694605.24142  22040444.008    22040442.683
  24497937.497    -2003062.22443  -1551847.92842  24497939.941    24497939.093
 04  5 20  1  2  0.0000000  0  6G16G25G20G11G 1G14
  23826161.321    -4175379.06043  -2993381.68142  23826163.659    23826163.772
  21280084.105   -16630152.64144 -12945587.49342  21280086.126    21280083.363
  21044970.792   -16115767.64144 -11127549.67742  21044972.511    21044970.220
  22481148.401    -7665369.05843  -5898466.44842  22481150.501    22481148.702
  22029951.825    -8661627.91743  -6737559.98042  22029953.997    22029952.649
  24513396.982    -1921823.52043  -1488545.13842  24513398.991    24513398.454
 04  5 20  1  2 30.0000000  0  6G16G25G20G11G 1G14
  23808463.625    -4268379.89643  -3065849.68842  23808465.940    23808466.016
  21290439.942   -16575732.67844 -12903182.34942  21290441.973    21290439.171
  21033657.981   -16175216.73044 -11173873.63142  21033659.701    21033657.353
  22494457.936    -7595427.36643  -5843966.50742  22494460.003    22494458.196
  22019493.740    -8716585.23943  -6780383.83042  22019495.869    22019494.660
  24528858.285    -1840574.45343  -1425234.23542  24528860.333    24528859.728
 04  5 20  1  3  0.0000000  0  6G16G25G20G11G 1G14
  23790785.173    -4361280.99143  -3138240.03342  23790787.289    23790787.508
  21300865.242   -16520947.21544 -12860492.39042  21300867.298    21300864.538
  21022411.746   -16234315.94944 -11219924.96142  21022413.485    21022411.108
  22507829.262    -7525161.35443  -5789213.83842  22507831.369    22507829.586
  22009068.642    -8771369.31143  -6823072.67842  22009070.704    22009069.472
  24544322.486    -1759309.90043  -1361911.27142  24544324.350    24544323.714
 04  5 20  1  3 30.0000000  0  6G16G25G20G11G 1G14
  23773124.414    -4454088.89643  -3210557.73242  23773126.571    23773126.866
  21311357.925   -16465807.89944 -12817526.70642  21311359.988    21311357.270
  21011230.655   -16293072.99844 -11265709.65942  21011232.410    21011229.932
  22521259.750    -7454583.33343  -5734218.03242  22521261.964    22521260.300
  21998674.686    -8825989.98943  -6865634.19742  21998676.747    21998675.484
  24559787.756    -1678039.76543  -1298584.00142  24559789.637    24559788.798
 04  5 20  1  4  0.0000000  0  6G16G25G20G11G 1G14
  23755484.068    -4546788.88043  -3282791.29942  23755486.146    23755486.830
  21321919.781   -16410305.23244 -12774277.88942  21321921.837    21321919.108
  21000117.316   -16351474.12944 -11311217.02142  21000119.062    21000116.508
  22534751.525    -7383684.55943  -5678972.32642  22534753.660    22534751.872
  21988314.048    -8880435.52043  -6908059.24842  21988316.074    21988314.862
  24575256.049    -1596752.73843  -1235243.50742  24575257.987    24575257.385
 04  5 20  1  4 30.0000000  0  6G16G25G20G11G 1G14
  23737863.528    -4639385.07843  -3354944.03242  23737865.571    23737866.555
  21332548.957   -16354448.34444 -12730753.06042  21332551.061    21332548.355
  20989070.702   -16409524.21144 -11356450.83642  20989072.479    20989069.900
  22548302.300    -7312474.49643  -5623484.03542  22548304.477    22548302.753
  21977985.259    -8934713.10043  -6950353.40942  21977987.352    21977986.161
  24590726.349    -1515455.88643  -1171895.40342  24590728.168    24590727.977
 04  5 20  1  5  0.0000000  0  6G16G25G20G11G 1G14
  23720262.721    -4731877.68443  -3427016.04342  23720264.658    23720265.907
  21343244.561   -16298242.71344 -12686956.48042  21343246.699    21343243.887
  20978090.791   -16467224.27344 -11401411.90042  20978092.559    20978089.959
  22561911.173    -7240959.35343  -5567758.02142  22561913.353    22561911.732
  21967687.890    -8988826.08643  -6992519.33542  21967689.990    21967688.754
  24606197.937    -1434152.75343  -1108542.35242  24606199.640    24606199.649
 04  5 20  1  5 30.0000000  0  6G16G25G20G11G 1G14
  23702683.751    -4824253.47943  -3498997.00042  23702685.658    23702687.547
  21354008.126   -16241679.93244 -12642881.59642  21354010.256    21354007.414
  20967179.773   -16524562.08144 -11446090.68742  20967181.566    20967178.963
  22575579.546    -7169131.60143  -5511788.43442  22575581.736    22575580.134
  21957423.697    -9042764.23443  -7034549.00142  21957425.774    21957424.723
  24621672.431    -1352833.19643  -1045176.55542  24621674.354    24621674.370
 04  5 20  1  6  0.0000000  0  6G16G25G20G11G 1G14
  23685125.355    -4916522.85343  -3570895.06642  23685127.302    23685129.139
  21364836.605   -16184776.05144 -12598540.93142  21364838.726    21364835.907
  20956335.435   -16581549.08144 -11490496.11042  20956337.272    20956334.651
  22589304.374    -7097007.90643  -5455588.22042  22589306.511    22589304.900
  21947190.285    -9096541.45243  -7076453.29342  21947192.337    21947191.263
  24637147.941    -1271511.30243   -981808.92242  24637149.755    24637149.410
 04  5 20  1  6 30.0000000  0  6G16G25G20G11G 1G14
  23667591.714    -5008663.18443  -3642692.63042  23667593.668    23667594.943
  21375733.349   -16127513.17744 -12553920.52642  21375735.503    21375732.733
  20945562.099   -16638163.41444 -11534611.15542  20945563.925    20945561.241
  22603088.740    -7024570.98743  -5399143.94542  22603090.854    22603089.273
  21936991.097    -9150137.97143  -7118216.76642  21936993.175    21936992.080
  24652627.310    -1190167.77743   -918424.40942  24652629.122    24652628.526
 04  5 20  1  7  0.0000000  0  6G16G25G20G11G 1G14
  23650079.151    -5100692.00743  -3714403.29042  23650081.098    23650082.272
  21386694.155   -16069914.10744 -12509038.15342  21386696.267    21386693.509
  20934856.078   -16694423.86444 -11578450.44442  20934857.883    20934855.153
  22616928.246    -6951844.19843  -5342473.78542  22616930.344    22616928.727
  21926822.427    -9203574.65043  -7159855.71242  21926824.453    21926823.271
  24668106.850    -1108823.36443   -855039.23542  24668108.961    24668107.799
 04  5 20  1  7 30.0000000  0  6G16G25G20G11G 1G14
  23632590.640    -5192594.35643  -3786015.36242  23632592.673    23632593.842
  21397720.742   -16011968.97944 -12463886.11842  21397722.888    21397720.037
  20924220.055   -16750316.13944 -11622002.83842  20924221.877    20924219.188
  22630824.807    -6878818.25343  -5285570.52542  22630826.884    22630825.211
  21916686.504    -9256839.47343  -7201360.72142  21916688.491    21916687.269
  24683588.368    -1027466.17843   -791644.06042  24683590.696    24683589.298
 04  5 20  1  8  0.0000000  0  6G16G25G20G11G 1G14
  23615126.092    -5284370.65443  -3857529.21342  23615128.139    23615129.376
  21408812.007   -15953683.44144 -12418468.83342  21408814.167    21408811.373
  20913653.882   -16805841.57444 -11665269.38742  20913655.696    20913653.004
  22644777.011    -6805499.64743  -5228439.23242  22644779.086    22644777.431
  21906582.555    -9309935.97443  -7242734.57342  21906584.579    21906583.294
  24699071.484     -946099.91143   -728241.84842  24699073.996    24699072.783
 04  5 20  1  8 30.0000000  0  6G16G25G20G11G 1G14
  23597686.450    -5376016.73643  -3928941.60842  23597688.513    23597689.573
  21419967.960   -15895058.63644 -12372787.19342  21419970.050    21419967.296
  20903158.149   -16860997.19844 -11708247.78042  20903159.947    20903157.222
  22658784.314    -6731890.07743  -5171081.21642  22658786.404    22658784.912
  21896510.761    -9362863.21643  -7283976.51842  21896512.833    21896511.585
  24714556.844     -864723.88143   -664832.05242  24714559.134    24714558.540
 04  5 20  1  9  0.0000000  0  6G16G25G20G11G 1G14
  23580270.600    -5467536.43843  -4000255.48842  23580272.840    23580273.847
  21431186.759   -15836103.31244 -12326847.99142  21431188.825    21431186.115
  20892731.908   -16915787.44044 -11750941.45642  20892733.726    20892730.986
  22672845.431    -6657999.03043  -5113503.85742  22672847.511    22672845.908
  21886469.980    -9415627.84943  -7325091.78142  21886472.050    21886470.707
  24730042.901     -783344.75743   -601419.81242  24730044.952    24730044.513
 04  5 20  1  9 30.0000000  0  5G16G25G20G11G 1
  23562885.491    -5558895.69843  -4071444.41942  23562887.887    23562888.448
  21442473.889   -15776789.02844 -12280629.08942  21442475.937    21442473.213
  20882381.465   -16970179.35444 -11793324.75142  20882383.283    20882380.536
  22686965.482    -6583798.20243  -5055685.11942  22686967.559    22686965.894
  21876465.917    -9468199.04943  -7366056.31742  21876467.968    21876466.687
 04  5 20  1 10  0.0000000  0  5G16G25G20G11G 1
  23545522.704    -5650138.01243  -4142542.21642  23545525.204    23545525.320
  21453820.213   -15717164.20744 -12234168.21042  21453822.202    21453819.378
  20872098.305   -17024217.60144 -11835432.46442  20872100.133    20872097.415
  22701134.993    -6509337.17343  -4997663.62142  22701137.097    22701135.428
  21866489.847    -9520623.61243  -7406906.58142  21866491.943    21866490.595
 04  5 20  1 10 30.0000000  0  5G16G25G20G11G 1
  23528187.423    -5741235.78243  -4213527.41942  23528189.884    23528189.657
  21465229.831   -15657206.48044 -12187447.92542  21465231.830    21465228.934
  20861887.579   -17077875.43344 -11877243.75542  20861889.385    20861886.639
  22715358.309    -6434593.90143  -4939422.19242  22715360.431    22715358.554
  21856546.302    -9572877.10243  -7447623.53642  21856548.433    21856547.041
 04  5 20  1 11  0.0000000  0  5G16G25G20G11G 1
  23510878.863    -5832192.53043  -4284402.71542  23510881.340    23510880.934
  21476701.155   -15596924.36244 -12140474.85942  21476703.179    21476700.297
  20851748.299   -17131157.18044 -11918761.99042  20851750.130    20851747.445
  22729633.463    -6359577.99143  -4880968.30542  22729635.554    22729633.624
  21846634.183    -9624965.93043  -7488212.19242  21846636.238    21846634.858
 04  5 20  1 11 30.0000000  0  5G16G25G20G11G 1
  23493599.163    -5922997.43443  -4355159.69342  23493601.699    23493601.315
  21488235.118   -15536312.51344 -12093244.86342  21488237.173    21488234.456
  20841682.547   -17184053.21044 -11959979.66342  20841684.322    20841681.704
  22743961.296    -6284284.35243  -4822298.01842  22743963.409    22743961.705
  21836754.712    -9676882.60643  -7528666.71542  21836756.766    21836755.393
 04  5 20  1 12  0.0000000  0  5G16G25G20G11G 1
  23476347.598    -6013654.04743  -4425801.08942  23476350.237    23476349.794
  21499830.346   -15475379.48444 -12045764.60042  21499832.390    21499829.604
  20831689.298   -17236568.05744 -12000900.31942  20831691.084    20831688.473
  22758340.198    -6208722.85143  -4763419.01342  22758342.313    22758340.663
  21826906.812    -9728633.80643  -7568992.28242  21826908.808    21826907.446
 04  5 20  1 12 30.0000000  0  5G16G25G20G11G 1
  23459125.843    -6104154.81043  -4496321.04442  23459128.369    23459127.951
  21511487.099   -15414123.02044 -11998032.31442  21511489.167    21511486.338
  20821769.828   -17288695.03944 -12041518.74442  20821771.610    20821769.021
  22772770.485    -6132891.46243  -4704329.70342  22772772.657    22772771.087
  21817091.156    -9780215.21843  -7609185.54542  21817093.224    21817091.783
 04  5 20  1 13  0.0000000  0  5G16G25G20G11G 1
  23441934.460    -6194494.82943  -4566715.74642  23441937.043    23441936.673
  21523205.398   -15352543.27244 -11950048.11642  21523207.488    21523204.648
  20811924.889   -17340430.26044 -12081831.89842  20811926.665    20811924.139
  22787252.030    -6056791.06743  -4645030.79442  22787254.159    22787252.645
  21807308.157    -9831624.89643  -7649244.99842  21807310.226    21807308.770
 04  5 20  1 13 30.0000000  0  5G16G25G20G11G 1
  23424772.394    -6284681.83243  -4636991.25642  23424774.877    23424774.537
  21534982.620   -15290653.52043 -11901822.35442  21534984.766    21534981.995
  20802152.868   -17391782.51644 -12121846.63742  20802154.587    20802152.150
  22801782.004    -5980435.58743  -4585533.11442  22801784.185    22801782.580
  21797555.829    -9882873.73443  -7689179.12742  21797557.830    21797556.371
 04  5 20  1 14  0.0000000  0  5G16G25G20G11G 1
  23407642.366    -6374700.14243  -4707135.27142  23407644.686    23407644.494
  21546820.889   -15228443.23743 -11853346.83242  21546823.012    21546820.254
  20792456.525   -17442737.18644 -12161551.56742  20792458.218    20792455.831
  22816362.568    -5903814.93443  -4525828.80142  22816364.658    22816363.124
  21787836.488    -9933949.25343  -7728978.19942  21787838.466    21787836.956
 04  5 20  1 14 30.0000000  0  5G16G25G20G11G 1
  23390544.177    -6464551.14743  -4777148.97242  23390546.408    23390546.178
  21558718.853   -15165918.83444 -11804626.54842  21558720.975    21558718.255
  20782835.471   -17493296.57644 -12200948.49842  20782837.154    20782834.689
  22830992.086    -5826936.50643  -4465923.62142  22830994.190    22830992.700
  21778149.292    -9984855.93143  -7768645.70042  21778151.269    21778149.794
 04  5 20  1 15  0.0000000  0  5G16G25G20G11G 1
  23373478.277    -6554232.26643  -4847030.27342  23373480.522    23373480.296
  21570676.214   -15103082.59243 -11755663.26942  21570678.311    21570675.637
  20773289.835   -17543459.00444 -12240036.09842  20773291.591    20773289.109
  22845670.036    -5749803.49043  -4405820.04642  22845672.187    22845670.752
  21768494.054   -10035594.21343  -7808181.99142  21768496.030    21768494.631
 04  5 20  1 15 30.0000000  0  5G16G25G20G11G 1
  23356445.490    -6643739.78243  -4916776.29842  23356447.723    23356447.474
  21582692.639   -15039936.28343 -11706458.37542  21582694.700    21582692.000
  20763820.301   -17593222.01844 -12278812.46442  20763822.041    20763819.477
  22860396.023    -5672418.20643  -4345519.92842  22860398.179    22860396.682
  21758870.930   -10086163.60543  -7847586.66642  21758872.933    21758871.637
 04  5 20  1 16  0.0000000  0  5G16G25G20G11G 1
  23339445.833    -6733074.32543  -4986387.52342  23339447.996    23339447.591
  21594766.794   -14976485.98043 -11657016.60942  21594768.899    21594766.232
  20754426.429   -17642587.04944 -12317278.71842  20754428.185    20754425.625
  22875168.693    -5594787.31143  -4285028.40642  22875170.816    22875169.533
  21749279.352   -10136567.70743  -7886862.56242  21749281.325    21749279.962
 04  5 20  1 16 30.0000000  0  5G16G25G20G11G 1
  23322480.317    -6822227.68343  -5055857.58442  23322482.580    23322481.976
  21606899.315   -14912728.58843 -11607335.54942  21606901.439    21606898.810
  20745109.639   -17691547.12944 -12355429.41642  20745111.392    20745108.876
  22889988.678    -5516908.39243  -4224343.62542  22889990.791    22889989.578
  21739720.182   -10186801.23743  -7926005.53442  21739722.194    21739720.736
 04  5 20  1 17  0.0000000  0  5G16G25G20G11G 1
  23305548.842    -6911203.12043  -5125189.01742  23305551.086    23305550.433
  21619088.767   -14848673.06843 -11557422.17442  21619090.846    21619088.182
  20735869.115   -17740106.47944 -12393267.85942  20735870.899    20735868.358
  22904853.909    -5438790.94943  -4163472.98642  22904856.095    22904854.957
  21730192.253   -10236870.98943  -7965020.90242  21730194.305    21730192.667
 04  5 20  1 17 30.0000000  0  5G16G25G20G11G 1
  23288652.778    -6999991.74743  -5194374.86142  23288655.066    23288654.502
  21631335.604   -14784315.27943 -11507273.27442  21631337.721    21631335.113
  20726706.279   -17788257.36344 -12430788.01542  20726708.079    20726705.476
  22919765.303    -5360431.74543  -4102413.97942  22919767.421    22919766.347
  21720696.581   -10286771.10043  -8003904.07342  21720698.625    21720697.082
 04  5 20  1 18  0.0000000  0  5G16G25G20G11G 1
  23271793.233    -7088589.62643  -5263412.09742  23271795.434    23271794.921
  21643639.826   -14719656.47443 -11456889.80642  21643641.892    21643639.355
  20717621.793   -17835996.54544 -12467987.36242  20717623.609    20717620.964
  22934722.440    -5281832.57943  -4041167.97242  22934724.593    22934723.381
  21711233.302   -10336500.48443  -8042654.21642  21711235.352    21711233.977
 04  5 20  1 18 30.0000000  0  5G16G25G20G11G 1
  23254969.945    -7176996.30343  -5332300.32742  23254972.251    23254971.726
  21656000.292   -14654701.42343 -11406275.50142  21656002.423    21655999.865
  20708615.486   -17883325.13844 -12504866.77942  20708617.268    20708614.577
  22949723.988    -5202999.22243  -3979739.48342  22949726.121    22949724.856
  21701801.966   -10386062.02443  -8081273.57242  21701804.060    21701802.676
 04  5 20  1 19  0.0000000  0  5G16G25G20G11G 1
  23238183.281    -7265209.81443  -5401038.00842  23238185.669    23238185.371
  21668416.738   -14589453.29043 -11355432.82442  21668418.817    21668416.139
  20699687.487   -17930242.08444 -12541425.42342  20699689.271    20699686.548
  22964769.428    -5123935.43843  -3918131.45242  22964771.488    22964770.266
  21692402.367   -10435456.90543  -8119763.06142  21692404.458    21692403.111
 04  5 20  1 19 30.0000000  0  5G16G25G20G11G 1
  23221433.648    -7353228.36443  -5469623.77342  23221436.061    23221436.011
  21680888.196   -14523915.64543 -11304364.54942  21680890.314    21680887.556
  20690838.031   -17976746.60944 -12577662.70142  20690839.813    20690837.117
  22979857.842    -5044645.47043  -3856347.16742  22979859.969    22979858.757
  21683034.391   -10484686.41443  -8158123.70142  21683036.398    21683034.950
 04  5 20  1 20  0.0000000  0  5G16G25G20G11G 1
  23204723.191    -7441042.78743  -5538050.51542  23204725.449    23204725.335
  21693415.343   -14458084.79943 -11253067.80042  21693417.505    21693414.808
  20682068.524   -18022830.35444 -12613572.10342  20682070.367    20682067.682
  22994989.969    -4965126.27243  -3794384.25842  22994992.083    22994990.759
  21673698.931   -10533744.37243  -8196350.65642  21673700.941    21673699.482
 04  5 20  1 20 30.0000000  0  5G16G25G20G11G 1
  23188051.235    -7528654.15643  -5606319.01642  23188053.460    23188053.457
  21705997.208   -14391966.83743 -11201547.33342  21705999.341    21705996.703
  20673378.681   -18068495.83444 -12649155.58242  20673380.518    20673377.779
  23010164.185    -4885384.72743  -3732248.10442  23010166.308    23010165.155
  21664395.309   -10582635.01243  -8234447.24142  21664397.351    21664395.876
 04  5 20  1 21  0.0000000  0  5G16G25G20G11G 1
  23171418.455    -7616058.58443  -5674426.24442  23171420.705    23171420.872
  21718633.559   -14325562.84643 -11149803.97442  21718635.662    21718633.011
  20664768.983   -18113740.12444 -12684410.86242  20664770.806    20664768.085
  23025380.580    -4805422.73143  -3669940.17542  23025382.588    23025381.497
  21655123.729   -10631357.37243  -8272412.67042  21655125.806    21655124.285
 04  5 20  1 21 30.0000000  0  5G16G25G20G11G 1
  23154825.396    -7703254.47843  -5742371.00142  23154827.635    23154827.851
  21731323.491   -14258876.71943 -11097840.77942  21731325.655    21731322.961
  20656239.513   -18158562.77444 -12719337.59642  20656241.342    20656238.637
  23040638.006    -4725244.68243  -3607463.88842  23040639.992    23040638.981
  21645883.873   -10679913.24243  -8310248.37842  21645885.970    21645884.329
 04  5 20  1 22  0.0000000  0  5G16G25G20G11G 1
  23138273.595    -7790235.47343  -5810148.29242  23138275.521    23138275.763
  21744067.379   -14191907.02843 -11045656.61942  21744069.543    21744066.833
  20647791.364   -18202958.21544 -12753931.44342  20647793.175    20647790.401
  23055936.618    -4644850.04143  -3544818.81042  23055938.558    23055937.801
  21636676.424   -10728299.12343  -8347951.63342  21636678.458    21636676.715
 04  5 20  1 22 30.0000000  0  5G16G25G20G11G 1
  23121762.469    -7877000.31443  -5877757.14442  23121764.561    23121764.746
  21756864.518   -14124657.95343 -10993254.75942  21756866.665    21756863.930
  20639424.354   -18246926.71844 -12788192.61142  20639426.170    20639423.405
  23071275.446    -4564243.94343  -3482008.95542  23071277.402    23071276.791
  21627500.722   -10776516.98343  -8385523.96342  21627502.817    21627500.997
 04  5 20  1 23  0.0000000  0  5G16G25G20G11G 1
  23105293.375    -7963546.30243  -5945195.53042  23105295.456    23105295.249
  21769714.388   -14057131.70143 -10940636.92742  21769716.492    21769713.772
  20631139.009   -18290466.48044 -12822119.69542  20631140.770    20631138.082
  23086654.190    -4483429.17943  -3419036.52642  23086656.166    23086655.456
  21618357.057   -10824567.16543  -8422965.62942  21618359.139    21618357.357
 04  5 20  1 23 30.0000000  0  5G16G25G20G11G 1
  23088866.162    -8049871.31243  -6012461.62842  23088868.176    23088868.187
  21782616.341   -13989331.62843 -10887805.71142  21782618.476    21782615.638
  20622935.445   -18333576.49344 -12855711.91242  20622937.167    20622934.482
  23102071.793    -4402409.74843  -3355904.63742  23102073.792    23102072.949
  21609245.112   -10872450.70143  -8460277.44842  21609247.185    21609245.369
 04  5 20  1 24  0.0000000  0  5G16G25G20G11G 1
  23072482.886    -8135966.91643  -6079549.03642  23072484.880    23072484.730
  21795571.016   -13921254.53043 -10834758.64542  21795573.149    21795570.220
  20614815.034   -18376249.51544 -12888963.62242  20614816.766    20614814.094
  23117528.717    -4321183.29543  -3292611.39842  23117530.777    23117529.830
  21600165.901   -10920162.14843  -8497455.17342  21600167.979    21600166.189
 04  5 20  1 24 30.0000000  0  5G16G25G20G11G 1
  23056142.767    -8221833.93443  -6146458.30342  23056144.861    23056144.848
  21808577.089   -13852906.55043 -10781500.49142  21808579.244    21808576.465
  20606777.416   -18418487.41544 -12921876.26942  20606779.154    20606776.508
  23133023.768    -4239756.21943  -3229161.83642  23133025.906    23133024.962
  21591118.758   -10967705.35943  -8534501.81542  21591120.798    21591118.975
 04  5 20  1 25  0.0000000  0  5G16G25G20G11G 1
  23039846.344    -8307471.62143  -6213188.88242  23039848.408    23039848.416
  21821634.010   -13784292.07543 -10728034.67842  21821636.165    21821633.413
  20598822.551   -18460290.72344 -12954450.28142  20598824.302    20598821.596
  23148556.039    -4158134.15743  -3165560.32742  23148558.091    23148557.311
  21582103.027   -11015082.79943  -8571419.27542  21582105.092    21582103.326
 04  5 20  1 25 30.0000000  0  5G16G25G20G11G 1
  23023595.447    -8392871.00443  -6279733.77842  23023597.540    23023597.395
  21834742.377   -13715407.07343 -10674358.08342  21834744.507    21834741.821
  20590951.897   -18501651.59244 -12986679.53542  20590953.634    20590950.873
  23164126.035    -4076313.88043  -3101804.40242  23164128.084    23164127.356
  21573120.090   -11062288.52743  -8608202.92842  21573122.092    21573120.385
 04  5 20  1 26  0.0000000  0  5G16G25G20G11G 1
  23007389.442    -8478034.01043  -6346094.46642  23007391.546    23007391.279
  21847900.727   -13646258.88043 -10620476.39042  21847902.874    21847900.260
  20583164.747   -18542572.98344 -13018566.33242  20583166.514    20583163.838
  23179732.287    -3994303.25043  -3037900.12442  23179734.327    23179733.592
  21564168.918   -11109327.36643  -8644856.55042  21564170.913    21564169.153
 04  5 20  1 26 30.0000000  0  5G16G25G20G11G 1
  22991229.237    -8562956.59343  -6412267.83342  22991231.287    22991231.055
  21861109.045   -13576848.52543 -10566390.41842  21861111.133    21861108.657
  20575461.882   -18583051.82144 -13050108.28142  20575463.643    20575460.992
  23195374.473    -3912103.98543  -2973848.89442  23195376.426    23195375.630
  21555249.619   -11156198.21443  -8681379.24942  21555251.646    21555250.020
 04  5 20  1 27  0.0000000  0  5G16G25G20G11G 1
  22975115.259    -8647634.62543  -6478250.60242  22975117.413    22975117.322
  21874367.095   -13507177.27943 -10512101.15042  21874369.104    21874366.738
  20567843.687   -18623085.46444 -13081303.31642  20567845.456    20567842.894
  23211052.194    -3829718.28743  -2909652.37342  23211054.154    23211053.317
  21546362.453   -11202900.28543  -8717770.46742  21546364.459    21546362.871
 04  5 20  1 27 30.0000000  0  5G16G25G20G11G 1
  22959048.735    -8732065.30643  -6544040.65442  22959050.725    22959050.500
  21887674.447   -13437247.22043 -10457610.21242  21887676.427    21887673.974
  20560310.557   -18662672.11444 -13112150.04542  20560312.345    20560309.804
  23226764.776    -3747148.93543  -2845312.73842  23226766.743    23226765.953
  21537507.321   -11249433.66643  -8754030.20542  21537509.391    21537507.887
 04  5 20  1 28  0.0000000  0  5G16G25G20G11G 1
  22943029.335    -8816246.68643  -6609636.45742  22943031.460    22943031.170
  21901030.343   -13367061.62243 -10402920.15442  21901032.372    21901029.884
  20552862.665   -18701811.07544 -13142647.93342  20552864.452    20552861.824
  23242511.371    -3664399.98343  -2780833.15142  23242513.410    23242512.630
  21528684.367   -11295799.15043  -8790159.13242  21528686.366    21528684.790
 04  5 20  1 28 30.0000000  0  5G16G25G20G11G 1
  22927058.454    -8900173.92243  -6675034.22142  22927060.624    22927060.199
  21914434.744   -13296620.83143 -10348031.25042  21914436.797    21914434.328
  20545500.712   -18740498.76044 -13172794.17642  20545502.479    20545499.799
  23258291.932    -3581472.68343  -2716214.61742  23258293.872    23258293.173
  21519893.521   -11341995.19143  -8826156.02242  21519895.528    21519893.996
 04  5 20  1 29  0.0000000  0  5G16G25G20G11G 1
  22911136.305    -8983845.37043  -6740232.64842  22911138.451    22911138.006
  21927887.134   -13225928.56843 -10292946.38542  21927889.181    21927886.643
  20538224.634   -18778734.76944 -13202588.45742  20538226.432    20538223.710
  23274105.756    -3498370.97243  -2651460.16242  23274107.676    23274107.028
  21511134.646   -11388023.10743  -8862021.91242  21511136.661    21511135.132
 04  5 20  1 29 30.0000000  0  5G16G25G20G11G 1
  22895263.631    -9067256.48443  -6805228.23942  22895265.822    22895265.259
  21941387.222   -13154985.14543 -10237665.81642  21941389.314    21941386.738
  20531035.156   -18816515.64644 -13232028.09842  20531036.980    20531034.192
  23289952.542    -3415096.75043  -2586571.30942  23289954.447    23289953.620
  21502408.016   -11433881.33343  -8897755.56342  21502410.070    21502408.606
 04  5 20  1 30  0.0000000  0  5G16G25G20G11G 1
  22879440.653    -9150406.36243  -6870020.27342  22879442.867    22879442.017
  21954934.351   -13083794.62243 -10182192.70142  21954936.458    21954933.876
  20523932.279   -18853841.28244 -13261112.99442  20523934.109    20523931.420
  23305830.990    -3331654.71443  -2521551.66442  23305833.037    23305832.318
  21493713.493   -11479571.90443  -8933358.57842  21493715.460    21493713.897
 04  5 20  1 30 30.0000000  0  5G16G25G20G11G 1
  22863668.732    -9233288.12743  -6934603.37042  22863670.886    22863670.025
  21968528.564   -13012355.89843 -10126526.18542  21968530.712    21968528.285
  20516917.083   -18890706.25244 -13289838.93042  20516918.905    20516916.271
  23321741.786    -3248043.58643  -2456400.29642  23321743.751    23321743.246
  21485051.370   -11525091.02643  -8968828.00842  21485053.436    21485051.825
 04  5 20  1 31  0.0000000  0  5G16G25G20G11G 1
  22847947.829    -9315902.12943  -6998977.83042  22847949.879    22847948.913
  21982169.074   -12940674.29543 -10070670.41142  21982171.163    21982168.864
  20509989.179   -18927112.36144 -13318207.31042  20509990.994    20509988.394
  23337683.458    -3164270.14543  -2391122.43142  23337685.415    23337684.857
  21476421.339   -11570442.02843  -9004166.41942  21476423.381    21476421.860
 04  5 20  1 31 30.0000000  0  5G16G25G20G11G 1
  22832278.433    -9398245.09843  -7063141.11442  22832280.472    22832279.314
  21995855.599   -12868751.59743 -10014626.76242  21995857.614    21995855.347
  20503149.082   -18963057.50244 -13346216.50042  20503150.871    20503148.224
  23353655.432    -3080337.06743  -2325720.15942  23353657.515    23353656.933
  21467823.337   -11615624.73943  -9039373.69242  21467825.407    21467823.856
 04  5 20  1 32  0.0000000  0  5G16G25G20G11G 1
  22816661.115    -9480313.50643  -7127090.42242  22816663.211    22816662.162
  22009587.643   -12796589.09243  -9958396.25542  22009589.693    22009587.494
  20496397.099   -18998539.26544 -13373864.61342  20496398.903    20496396.341
  23369657.349    -2996246.53343  -2260195.18742  23369659.466    23369658.990
  21459257.559   -11660638.53243  -9074449.35742  21459259.604    21459257.947
 04  5 20  1 32 30.0000000  0  5G16G25G20G11G 1
  22801097.189    -9562102.41543  -7190821.95442  22801099.224    22801098.241
  22023365.355   -12724186.89243  -9901978.97342  22023367.412    22023365.191
  20489734.028   -19033553.80144 -13401148.66042  20489735.842    20489733.294
  23385689.069    -2911999.28843  -2194548.09342  23385691.177    23385690.725
  21450724.144   -11705481.18343  -9109391.66342  21450726.260    21450724.633
 04  5 20  1 33  0.0000000  0  5G16G25G20G11G 1
  22785586.089    -9643612.98843  -7254336.61342  22785588.185    22785587.209
  22037187.442   -12651551.90743  -9845380.30342  22037189.462    22037187.157
  20483159.397   -19068103.91944 -13428070.82442  20483161.198    20483158.617
  23401749.430    -2827602.73943  -2128784.71442  23401751.481    23401750.970
  21442222.584   -11750157.03843  -9144203.98942  21442224.631    21442223.046
 04  5 20  1 33 30.0000000  0  5G16G25G20G11G 1
  22770129.187    -9724839.10843  -7317629.60142  22770131.214    22770130.423
  22051054.039   -12578682.78443  -9788599.18142  22051056.075    22051053.747
  20476674.053   -19102184.51944 -13454627.12442  20476675.819    20476673.212
  23417837.948    -2743056.55743  -2062904.70242  23417840.069    23417839.825
  21433753.433   -11794663.05144  -9178883.98442  21433755.441    21433753.755
 04  5 20  1 34  0.0000000  0  5G16G25G20G11G 1
  22754727.265    -9805777.20743  -7380698.16242  22754729.248    22754728.454
  22064964.830   -12505580.99143  -9731636.77742  22064966.918    22064964.666
  20470278.550   -19135793.08444 -13480815.60642  20470280.310    20470277.667
  23433954.802    -2658363.08643  -1996909.95342  23433956.807    23433956.647
  21425316.673   -11838998.38943  -9213430.97442  21425318.685    21425317.063
 04  5 20  1 34 30.0000000  0  5G16G25G20G11G 1
  22739380.379    -9886425.84543  -7443541.17042  22739382.347    22739381.502
  22078919.204   -12432250.38143  -9674496.06342  22078921.298    22078919.097
  20463972.849   -19168929.63744 -13506636.29142  20463974.604    20463971.944
  23450098.947    -2573526.84443  -1930803.92842  23450100.882    23450100.556
  21416912.059   -11883164.68844  -9247846.24042  21416914.117    21416912.502
 04  5 20  1 35  0.0000000  0  5G16G25G20G11G 1
  22724089.261    -9966780.80443  -7506155.34742  22724091.349    22724090.356
  22092917.031   -12358691.60543  -9617177.56842  22092919.062    22092916.826
  20457757.650   -19201590.98944 -13532086.68542  20457759.372    20457756.695
  23466269.769    -2488549.07443  -1864587.63242  23466271.678    23466271.540
  21408539.948   -11927160.44243  -9282128.63242  21408542.020    21408540.344
 04  5 20  1 35 30.0000000  0  5G16G25G20G11G 1
  22708854.179   -10046841.33543  -7568540.08142  22708856.281    22708855.358
  22106957.423   -12284908.76643  -9559684.47242  22106959.460    22106957.216
  20451632.632   -19233777.92144 -13557167.40242  20451634.380    20451631.772
  23482466.652    -2403435.10043  -1798265.21442  23482468.531    23482468.340
  21400199.878   -11970987.96244  -9316279.93842  21400201.907    21400200.203
 04  5 20  1 36  0.0000000  0  5G16G25G20G11G 1
  22693676.369   -10126600.59643  -7630690.09342  22693678.534    22693677.627
  22121040.830   -12210900.43543  -9502015.66642  22121042.859    22121040.589
  20445599.066   -19265484.73044 -13581874.00342  20445600.789    20445598.116
  23498689.431    -2318184.20743  -1731836.09742  23498691.350    23498691.138
  21391892.517   -12014643.40943  -9350297.13342  21391894.497    21391892.868
 04  5 20  1 36 30.0000000  0  5G16G25G20G11G 1
  22678556.085   -10206058.26743  -7692605.08142  22678558.080    22678557.179
  22135166.240   -12136671.15543  -9444174.69242  22135168.319    22135166.009
  20439656.606   -19296712.38844 -13606207.24542  20439658.368    20439655.682
  23514937.172    -2232801.54243  -1665304.30042  23514939.111    23514938.982
  21383617.464   -12058129.07344  -9384182.04542  21383619.432    21383617.864
 04  5 20  1 37  0.0000000  0  5G16G25G20G11G 1
  22663493.448   -10285211.36943  -7754282.73242  22663495.554    22663494.847
  22149333.152   -12062223.07843  -9386163.22742  22149335.334    22149332.904
  20433805.601   -19327459.35444 -13630165.91342  20433807.363    20433804.775
  23531209.664    -2147290.25843  -1598672.30642  23531211.539    23531211.399
  21375374.650   -12101445.04543  -9417934.74042  21375376.613    21375375.135
 04  5 20  1 37 30.0000000  0  5G16G25G20G11G 1
  22648489.917   -10364055.02843  -7815719.26542  22648491.977    22648491.294
  22163541.714   -11987556.55943  -9327981.55042  22163543.866    22163541.429
  20428046.848   -19357721.87344 -13653747.09842  20428048.600    20428046.021
  23547506.315    -2061651.13743  -1531940.72142  23547508.250    23547507.911
  21367164.527   -12144589.28444  -9451553.61542  21367166.491    21367165.030
 04  5 20  1 38  0.0000000  0  5G16G25G20G11G 1
  22633545.060   -10442591.19643  -7876916.20442  22633546.953    22633546.209
  22177790.605   -11912678.29143  -9269634.88042  22177792.683    22177790.338
  20422379.644   -19387503.24944 -13676953.36742  20422381.372    20422378.793
  23563826.002    -1975892.10043  -1465115.68542  23563827.970    23563827.637
  21358986.192   -12187566.69243  -9485042.49342  21358988.113    21358986.699
 04  5 20  1 38 30.0000000  0  5G16G25G20G11G 1
  22618660.723   -10520808.45643  -7937864.64442  22618662.674    22618661.806
  22192080.995   -11837581.77643  -9211118.14342  22192083.089    22192080.730
  20416805.958   -19416793.31944 -13699776.79742  20416807.688    20416805.032
  23580169.324    -1890007.37743  -1398192.66542  23580171.290    23580171.281
  21350841.328   -12230368.42344  -9518394.47442  21350843.248    21350841.720
 04  5 20  1 39  0.0000000  0  5G16G25G20G11G 1
  22603835.989   -10598712.83343  -7998569.30242  22603837.988    22603836.914
  22206410.846   -11762278.29343  -9152440.12542  22206412.905    22206410.491
  20411324.282   -19445599.52844 -13722223.19342  20411326.036    20411323.365
  23596534.566    -1804009.12443  -1331181.22642  23596536.482    23596536.245
  21342728.111   -12273003.60344  -9551616.68442  21342730.042    21342728.439
 04  5 20  1 39 30.0000000  0  5G16G25G20G11G 1
  22589072.124   -10676296.49543  -8059024.00442  22589074.193    22589073.285
  22220780.480   -11686764.98343  -9093598.61142  22220782.598    22220780.234
  20405935.918   -19473915.13444 -13744287.29342  20405937.701    20405935.079
  23612921.583    -1717894.83543  -1264079.36842  23612923.515    23612923.157
  21334647.603   -12315467.00844  -9584705.03442  21334649.517    21334647.910
 04  5 20  1 40  0.0000000  0  5G16G25G20G11G 1
  22574370.271   -10753555.03443  -8119225.39742  22574372.351    22574371.305
  22235190.141   -11611042.49343  -9034594.09742  22235192.195    22235189.759
  20400641.549   -19501737.34544 -13765966.94642  20400643.292    20400640.634
  23629330.338    -1631666.19343  -1196888.40842  23629332.166    23629332.046
  21326599.960   -12357757.34444  -9617658.51642  21326601.945    21326600.359
 04  5 20  1 40 30.0000000  0  5G16G25G20G11G 1
  22559729.806   -10830490.60243  -8179175.10042  22559731.837    22559730.864
  22249638.279   -11535117.55943  -8975431.84142  22249640.349    22249637.888
  20395440.416   -19529069.71644 -13787264.90042  20395442.133    20395439.472
  23645759.496    -1545331.20443  -1129614.59042  23645761.368    23645761.190
  21318584.461   -12399879.41744  -9650480.89442  21318586.448    21318584.775
 04  5 20  1 41  0.0000000  0  5G16G25G20G11G 1
  22545152.572   -10907095.12043  -8238866.87342  22545154.510    22545153.399
  22264125.456   -11458987.36143  -8916109.62342  22264127.591    22264125.068
  20390333.790   -19555905.31644 -13808175.75742  20390335.482    20390332.862
  23662209.274    -1458887.70243  -1062256.18142  23662211.179    23662211.086
  21310601.905   -12441828.00144  -9683168.08142  21310603.899    21310602.194
 04  5 20  1 41 30.0000000  0  5G16G25G20G11G 1
  22530638.028   -10983368.89943  -8298300.89642  22530640.052    22530638.858
  22278650.632   -11382657.22843  -8856631.62842  22278652.789    22278650.206
  20385321.467   -19582245.58644 -13828700.64742  20385323.142    20385320.485
  23678678.656    -1372341.48743   -994817.78042  23678680.504    23678680.540
  21302651.786   -12483606.08544  -9715722.42242  21302653.787    21302652.083
 04  5 20  1 42  0.0000000  0  5G16G25G20G11G 1
  22516187.969   -11059304.15643  -8357471.16042  22516190.024    22516188.616
  22293214.403   -11306123.90543  -8796995.29542  22293216.602    22293213.863
  20380404.550   -19608084.23544 -13848834.66842  20380406.258    20380403.552
  23695167.732    -1285690.67543   -927297.85842  23695169.687    23695170.031
  21294735.001   -12525208.64843  -9748139.97442  21294737.015    21294735.369
 04  5 20  1 42 30.0000000  0  5G16G25G20G11G 1
  22501801.038   -11134907.33843  -8416382.65542  22501803.085    22501801.666
  22307814.683   -11229399.07243  -8737209.73342  22307816.868    22307814.080
  20375581.475   -19633429.44844 -13868584.18642  20375583.181    20375580.530
  23711674.648    -1198947.58543   -859706.04742  23711676.565    23711676.984
  21286849.829   -12566645.13643  -9780428.13142  21286851.822    21286850.227
 04  5 20  1 43  0.0000000  0  5G16G25G20G11G 1
  22487479.766   -11210166.55143  -8475026.11842  22487481.743    22487480.253
  22322452.643   -11152475.83843  -8677269.57642  22322454.871    22322452.157
  20370854.418   -19658270.28144 -13887940.68842  20370856.141    20370853.439
  23728200.440    -1112105.46443   -792037.08542  23728202.326    23728202.578
  21278998.066   -12607906.17844  -9812579.55942  21279000.042    21278998.589
 04  5 20  1 43 30.0000000  0  5G16G25G20G11G 1
  22473223.175   -11285084.87443  -8533403.96642  22473225.273    22473223.809
  22337126.944   -11075362.05143  -8617180.93242  22337129.119    22337126.322
  20366222.441   -19682611.49444 -13906907.88042  20366224.148    20366221.455
  23744743.169    -1025173.58143   -724298.14442  23744745.132    23744745.335
  21271178.653   -12648997.68844  -9844598.89642  21271180.637    21271179.066
 04  5 20  1 44  0.0000000  0  5G16G25G20G11G 1
  22459033.124   -11359654.28043  -8591509.91942  22459035.195    22459033.629
  22351838.048   -10998054.49643  -8556941.29842  22351840.204    22351837.496
  20361686.854   -19706446.24744 -13925480.41942  20361688.538    20361685.866
  23761303.268     -938149.67243   -656487.50242  23761305.269    23761305.586
  21263392.431   -12689914.42544  -9876482.04442  21263394.408    21263392.794
 04  5 20  1 44 30.0000000  0  5G16G25G20G11G 1
  22444909.510   -11433874.42143  -8649343.72342  22444911.584    22444909.943
  22366585.155   -10920557.65443  -8496554.17942  22366587.323    22366584.690
  20357247.537   -19729775.41344 -13943659.00542  20357249.214    20357246.523
  23777880.094     -851038.91443   -588609.18342  23777882.047    23777882.318
  21255639.128   -12730658.60044  -9908230.73642  21255641.085    21255639.338
 04  5 20  1 45  0.0000000  0  5G16G25G20G11G 1
  22430851.972   -11507746.10843  -8706905.99642  22430854.121    22430852.645
  22381367.307   -10842877.13243  -8436023.92242  22381369.432    22381366.780
  20352903.870   -19752601.37944 -13961445.47842  20352905.596    20352902.874
  23794472.186     -763848.07043   -520668.45342  23794474.056    23794474.369
  21247917.883   -12771233.84544  -9939847.78642  21247919.913    21247918.093
 04  5 20  1 45 30.0000000  0  5G16G25G20G11G 1
  22416862.426   -11581260.74843  -8764190.05742  22416864.652    22416863.267
  22396185.033   -10765009.42143  -8375347.81242  22396187.170    22396184.598
  20348657.357   -19774916.99644 -13978834.28142  20348659.056    20348656.394
  23811080.025     -676573.94443   -452662.81942  23811081.931    23811082.570
  21240230.018   -12811634.18744  -9971328.55542  21240232.010    21240230.124
 04  5 20  1 46  0.0000000  0  5G16G25G20G11G 1
  22402941.369   -11654416.05743  -8821194.12542  22402943.533    22402942.325
  22411037.891   -10686957.03543  -8314527.80742  22411040.028    22411037.594
  20344508.154   -19796721.23244 -13995824.60442  20344509.855    20344507.194
  23827703.037     -589220.10443   -384595.10142  23827704.880    23827705.778
  21232575.202   -12851859.99144 -10002673.29742  21232577.214    21232575.428
 04  5 20  1 46 30.0000000  0  5G16G25G20G11G 1
  22389088.763   -11727212.50643  -8877918.55142  22389090.745    22389089.588
  22425925.067   -10608725.17143  -8253567.92342  22425927.163    22425924.678
  20340455.924   -19818015.89644 -14012417.85842  20340457.655    20340454.904
  23844339.956     -501792.68943   -316470.04542  23844341.909    23844342.536
  21224953.104   -12891914.45744 -10033884.55442  21224955.085    21224953.244
 04  5 20  1 47  0.0000000  0  5G16G25G20G11G 1
  22375305.621   -11799642.40643  -8934357.37742  22375307.695    22375306.543
  22440846.888   -10530310.97243  -8192465.98342  22440848.988    22440846.533
  20336501.780   -19838794.84544 -14028609.25442  20336503.523    20336500.750
  23860991.264     -414289.72943   -248286.10542  23860993.211    23860994.073
  21217364.428   -12931792.53444 -10064958.35542  21217366.441    21217364.691
 04  5 20  1 47 30.0000000  0  5G16G25G20G11G 1
  22361591.750   -11871709.07943  -8990513.14942  22361593.802    22361592.722
  22455801.784   -10451722.62343  -8131228.33142  22455803.945    22455801.425
  20332644.890   -19859063.10144 -14044402.70742  20332646.622    20332643.871
  23877655.481     -326720.14143   -180050.27642  23877657.355    23877658.132
  21209808.305   -12971500.12744 -10095899.31342  21209810.264    21209808.593
 04  5 20  1 48  0.0000000  0  5G16G25G20G11G 1
  22347948.391   -11943404.96443  -9046379.99642  22347950.447    22347949.366
  22470790.226   -10372957.40143  -8069852.85542  22470792.438    22470789.892
  20328886.302   -19878814.22444 -14059793.19942  20328888.053    20328885.354
  23894332.610     -239081.61043   -111760.71142  23894334.532    23894335.382
  21202285.545   -13011032.42144 -10126703.67642  21202287.478    21202285.821
 04  5 20  1 48 30.0000000  0  5G16G25G20G11G 1
  22334375.853   -12014729.44743  -9101957.44742  22334377.899    22334376.736
  22485811.736   -10294019.19943  -8008342.59642  22485813.890    22485811.355
  20325226.081   -19898048.90744 -14074781.26442  20325227.810    20325225.174
  23911021.944     -151379.34243    -43421.44842  23911023.835    23911024.861
  21194795.799   -13050391.37044 -10157372.96442  21194797.715    21194796.061
 04  5 20  1 49  0.0000000  0  5G16G25G20G11G 1
  22320874.361   -12085679.81043  -9157243.36242  22320876.429    22320875.366
  22500865.769   -10214910.09743  -7946699.16042  22500867.898    22500865.266
  20321664.254   -19916766.11044 -14089366.10042  20321666.008    20321663.421
  23927722.949      -63616.47243     24964.95942  23927724.687    23927725.471
  21187338.967   -13089576.87444 -10187907.10042  21187340.945    21187339.241
 04  5 20  1 49 30.0000000  0  5G16G25G20G11G 1
  22307445.640   -12156247.96843  -9212231.47242  22307447.703    22307446.501
  22515952.725   -10135626.96943  -7884920.13042  22515954.867    22515952.301
  20318202.356   -19934959.11244 -14103542.47742  20318204.070    20318201.382
  23944435.630       24209.73043     93400.73142  23944437.396    23944438.341
  21179916.304   -13128583.51844 -10218301.87042  21179918.227    21179916.492
 04  5 20  1 50  0.0000000  0  5G16G25G20G11G 1
  22294088.179   -12226441.87443  -9266927.95142  22294090.238    22294088.895
  22531070.499   -10056182.08643  -7823015.03542  22531072.685    22531070.131
  20314838.291   -19952637.17644 -14117317.59942  20314840.058    20314837.349
  23961158.276      112085.85943    161875.40042  23961160.019    23961160.987
  21172525.687   -13167421.47644 -10248565.20042  21172527.649    21172525.831
 04  5 20  1 50 30.0000000  0  5G16G25G20G11G 1
  22280804.118   -12296249.58243  -9321323.49842  22280806.155    22280804.785
  22546220.585    -9976568.26643  -7760978.32342  22546222.659    22546220.175
  20311574.214   -19969789.97544 -14130683.42342  20311575.949    20311573.252
  23977891.373      200018.09143    230393.77042  23977893.100    23977893.988
  21165168.957   -13206081.41244 -10278689.80742  21165170.945    21165169.087
 04  5 20  1 51  0.0000000  0  5G16G25G20G11G 1
  22267593.541   -12365671.69943  -9375418.59142  22267595.505    22267594.171
  22561401.794    -9896791.04943  -7698814.28142  22561403.859    22561401.352
  20308409.723   -19986419.56044 -14143641.54442  20308411.445    20308408.726
  23994633.931      288000.27043    298951.01442  23994635.671    23994636.768
  21157845.456   -13244566.65944 -10308678.29542  21157847.431    21157845.553
 04  5 20  1 51 30.0000000  0  5G16G25G20G11G 1
  22254457.637   -12434700.54543  -9429207.23142  22254459.591    22254458.428
  22576614.541    -9816847.37443  -7636520.53942  22576616.631    22576614.170
  20305345.955   -20002519.62844 -14156187.05142  20305347.690    20305344.967
  24011386.376      376034.41943    367548.88042  24011388.101    24011389.590
  21150556.112   -13282872.01844 -10338526.60442  21150558.110    21150556.234
 04  5 20  1 52  0.0000000  0  5G16G25G20G11G 1
  22241394.845   -12503345.66643  -9482696.88242  22241396.737    22241395.624
  22591856.351    -9736751.40143  -7574108.12042  22591858.456    22591856.034
  20302380.841   -20018101.37344 -14168328.67442  20302382.560    20302379.909
  24028146.235      464105.65543    436175.55942  24028147.842    24028149.158
  21143298.787   -13321009.72544 -10368244.28942  21143300.744    21143298.820
 04  5 20  1 52 30.0000000  0  5G16G25G20G11G 1
  22228408.216   -12571590.86343  -9535874.89742  22228410.081    22228409.026
  22607129.378    -9656491.42543  -7511567.90642  22607131.461    22607129.010
  20299517.197   -20033150.12644 -14180054.97742  20299518.913    20299516.269
  24044914.846      552224.46743    504839.33542  24044916.503    24044917.782
  21136075.898   -13358965.98944 -10397820.58342  21136077.870    21136076.019
 04  5 20  1 53  0.0000000  0  5G16G25G20G11G 1
  22215497.037   -12639439.35243  -9588743.79442  22215498.980    22215497.795
  22622432.089    -9576075.04343  -7448905.81442  22622434.131    22622431.710
  20296754.102   -20047670.48144 -14191369.53642  20296755.830    20296753.232
  24061690.650      640382.65943    573533.84142  24061692.456    24061693.959
  21128886.579   -13396746.22144 -10427259.71642  21128888.516    21128886.685
 04  5 20  1 53 30.0000000  0  5G16G25G20G11G 1
  22202661.439   -12706890.39643  -9641302.97942  22202663.450    22202662.213
  22637763.852    -9495506.27943  -7386125.00242  22637765.866    22637763.366
  20294091.428   -20061663.10844 -14202272.88442  20294093.201    20294090.543
  24078473.540      728575.27843    642255.14342  24078475.238    24078476.682
  21121730.334   -13434352.23844 -10456563.09142  21121732.280    21121730.517
 04  5 20  1 54  0.0000000  0  5G16G25G20G11G 1
  22189902.674   -12773938.84443  -9693548.47042  22189904.673    22189903.175
  22653124.476    -9414785.09943  -7323225.40542  22653126.593    22653124.105
  20291529.801   -20075124.55344 -14212762.31542  20291531.581    20291528.897
  24095262.945      816802.09143    711003.02642  24095264.698    24095266.232
  21114607.831   -13471781.29244 -10485728.57842  21114609.760    21114608.037
 04  5 20  1 54 30.0000000  0  5G16G25G20G11G 1
  22177220.992   -12840581.02643  -9745477.37642  22177223.074    22177221.410
  22668514.204    -9333911.88143  -7260207.35142  22668516.272    22668513.881
  20289069.656   -20088052.54444 -14222836.07742  20289071.456    20289068.751
  24112058.162      905061.07843    779776.00742  24112059.879    24112061.688
  21107519.186   -13509032.22744 -10514755.26942  21107521.134    21107519.418
 04  5 20  1 55  0.0000000  0  5G16G25G20G11G 1
  22164616.861   -12906815.84643  -9797088.85942  22164618.922    22164617.241
  22683932.041    -9252890.11043  -7197073.53642  22683934.242    22683931.950
  20286711.017   -20100447.44944 -14232494.44542  20286712.795    20286710.071
  24128858.993      993347.94143    848570.70342  24128860.646    24128862.067
  21100464.165   -13546106.39144 -10543644.21342  21100466.125    21100464.447
 04  5 20  1 55 30.0000000  0  5G16G25G20G11G 1
  22152090.602   -12972641.78443  -9848381.74142  22152092.721    22152090.876
  22699377.774    -9171722.83143  -7133826.33242  22699379.890    22699377.647
  20284453.761   -20112309.28244 -14241737.43242  20284455.584    20284452.823
  24145664.369     1081658.99143    917384.20742  24145665.948    24145667.400
  21093442.781   -13583004.41344 -10572395.91242  21093444.698    21093442.976
 04  5 20  1 56  0.0000000  0  5G16G25G20G11G 1
  22139643.074   -13038053.39243  -9899351.77442  22139645.313    22139643.303
  22714851.223    -9090409.07143  -7070464.99642  22714853.370    22714851.213
  20282298.762   -20123633.91144 -14250561.81642  20282300.588    20282297.809
  24162474.040     1169994.39343    986216.71142  24162475.701    24162477.276
  21086455.340   -13619723.41344 -10601008.11342  21086457.265    21086455.577
 04  5 20  1 56 30.0000000  0  5G16G25G20G11G 1
  22127275.076   -13103047.84643  -9949996.74042  22127277.281    22127275.186
  22730352.169    -9008950.33443  -7006990.68642  22730354.324    22730352.209
  20280246.162   -20134420.38244 -14258966.85742  20280247.982    20280245.188
  24179287.819     1258351.46143   1055066.17842  24179289.482    24179291.369
  21079502.078   -13656262.97744 -10629480.49342  21079504.010    21079502.283
 04  5 20  1 57  0.0000000  0  5G16G25G20G11G 1
  22114986.242   -13167625.23443 -10000316.71342  22114988.458    22114986.397
  22745880.255    -8927351.08143  -6943406.88042  22745882.263    22745879.948
  20278295.682   -20144670.16344 -14266953.69842  20278297.510    20278294.710
  24196104.736     1346724.67143   1123928.13842  24196106.397    24196108.672
  21072582.588   -13692625.50244 -10657814.93442  21072584.501    21072582.709
 04  5 20  1 57 30.0000000  0  5G16G25G20G11G 1
  22102778.068   -13231779.60143 -10050307.06142  22102780.177    22102778.188
  22761435.022    -8845610.12543  -6879712.65442  22761437.099    22761434.744
  20276448.161   -20154379.06044 -14274519.07542  20276449.982    20276447.165
  24212925.185     1435114.67343   1192803.18542  24212926.990    24212928.841
  21065697.306   -13728807.60744 -10686008.76842  21065699.256    21065697.514
 04  5 20  1 58  0.0000000  0  5G16G25G20G11G 1
  22090649.557   -13295514.84343 -10099970.82442  22090651.697    22090649.828
  22777015.295    -8763735.83643  -6815914.55042  22777017.331    22777015.021
  20274702.608   -20163552.20044 -14281666.98342  20274704.423    20274701.591
  24229746.978     1523512.37943   1261684.25442  24229748.633    24229750.593
  21058845.220   -13764815.27644 -10714066.69142  21058847.202    21058845.456
 04  5 20  1 58 30.0000000  0  5G16G25G20G11G 1
  22078603.312   -13358818.57443 -10149298.34942  22078605.392    22078603.532
  22792622.291    -8681720.36143  -6752006.41242  22792624.390    22792622.185
  20273060.920   -20172179.07844 -14288389.22742  20273062.744    20273059.962
  24246571.170     1611924.59843   1330576.61542  24246572.859    24246575.110
  21052028.364   -13800638.44044 -10741980.84742  21052030.338    21052028.534
 04  5 20  1 59  0.0000000  0  5G16G25G20G11G 1
  22066637.177   -13421700.62543 -10198297.29942  22066639.270    22066637.412
  22808253.626    -8599577.39443  -6687998.95142  22808255.673    22808253.482
  20271521.117   -20180270.77044 -14294694.45042  20271522.913    20271520.173
  24263396.071     1700336.32143   1399468.53142  24263397.585    24263399.667
  21045244.335   -13836289.14744 -10769760.63442  21045246.261    21045244.376
 04  5 20  1 59 30.0000000  0  5G16G25G20G11G 1
  22054754.632   -13484143.64843 -10246954.13442  22054756.705    22054754.859
  22823911.506    -8517294.39543  -6623882.36642  22823913.514    22823911.363
  20270086.188   -20187811.50344 -14300570.35042  20270087.958    20270085.221
  24280222.311     1788759.78943   1468369.66142  24280223.852    24280226.302
  21038495.875   -13871752.34544 -10797394.29042  21038497.803    21038495.945
 04  5 20  2  0  0.0000000  0  5G16G25G20G11G 1
  22042954.284   -13546154.35343 -10295274.10542  22042956.417    22042954.529
  22839593.936    -8434882.19843  -6559665.08842  22839595.934    22839593.961
  20268754.519   -20194809.52844 -14306023.36842  20268756.282    20268753.541
  24297049.204     1877183.19143   1537270.71842  24297050.577    24297052.861
  21031781.404   -13907036.83844 -10824888.69642  21031783.346    21031781.561
 04  5 20  2  0 30.0000000  0  5G16G25G20G11G 1
  22031236.940   -13607728.99343 -10343254.29342  22031239.078    22031237.187
  22855300.852    -8352341.36043  -6495347.58442  22855302.860    22855301.073
  20267526.501   -20201262.81044 -14311051.91342  20267528.278    20267525.492
  24313875.306     1965604.88843   1606170.51842  24313876.981    24313879.272
  21025101.251   -13942141.15444 -10852242.70542  21025103.194    21025101.486
 04  5 20  2  1  0.0000000  0  5G16G25G20G11G 1
  22019603.013   -13668865.66043 -10390893.18142  22019605.082    22019603.191
  22871032.026    -8269674.31043  -6430931.73342  22871033.911    22871032.155
  20266402.219   -20207170.90844 -14315655.64142  20266404.028    20266401.231
  24330700.912     2054021.89443   1675066.51842  24330702.605    24330704.453
  21018455.426   -13977065.52744 -10879456.50642  21018457.333    21018455.494
 04  5 20  2  1 30.0000000  0  5G16G25G20G11G 1
  22008052.931   -13729561.24443 -10438188.37442  22008055.042    22008053.145
  22886786.763    -8186882.37643  -6366418.55442  22886788.766    22886786.897
  20265381.962   -20212532.63944 -14319833.63242  20265383.740    20265380.939
  24347524.996     2142431.41743   1743956.73542  24347526.654    24347528.408
  21011843.955   -14011809.06344 -10906529.38842  21011845.867    21011844.019
 04  5 20  2  2  0.0000000  0  5G16G25G20G11G 1
  21996587.741   -13789811.63043 -10485136.67442  21996589.832    21996587.810
  22902565.386    -8103965.41143  -6301807.96342  22902567.371    22902565.455
  20264466.214   -20217345.08344 -14323583.60042  20264467.991    20264465.180
  24364347.097     2230832.86943   1812840.74842  24364348.724    24364351.152
  21005267.270   -14046369.76444 -10933459.79942  21005269.177    21005267.400
 04  5 20  2  2 30.0000000  0  5G16G25G20G11G 1
  21985207.066   -13849617.13443 -10531738.31842  21985209.157    21985207.119
  22918367.020    -8020927.89643  -6237103.43342  22918369.003    22918366.984
  20263654.564   -20221610.13744 -14326907.03642  20263656.366    20263653.597
  24381167.238     2319220.86943   1881714.26942  24381168.701    24381171.500
  20998724.886   -14080750.07244 -10960249.64042  20998726.858    20998725.055
 04  5 20  2  3  0.0000000  0  5G16G25G20G11G 1
  21973911.808   -13908974.01343 -10577990.37242  21973913.883    21973911.865
  22934191.326    -7937770.50043  -6172305.49142  22934193.307    22934191.406
  20262947.483   -20225326.01344 -14329802.53842  20262949.246    20262946.541
  24397984.357     2407593.86143   1950576.03242  24397985.966    24397988.690
  20992217.212   -14114948.42144 -10986897.70742  20992219.198    20992217.291
 04  5 20  2  3 30.0000000  0  5G16G25G20G11G 1
  21962702.292   -13967879.66943 -10623890.83442  21962704.447    21962702.443
  22950038.072    -7854494.85443  -6107415.42442  22950040.075    22950038.346
  20262345.048   -20228491.59944 -14332269.24342  20262346.825    20262344.138
  24414798.277     2495949.34343   2019424.11742  24414799.662    24414801.654
  20985744.243   -14148964.31744 -11013403.59942  20985746.210    20985744.289
 04  5 20  2  4  0.0000000  0  5G16G25G20G11G 1
  21951579.909   -14026328.62643 -10669435.43142  21951581.910    21951579.926
  22965907.669    -7771099.66043  -6042432.17442  22965909.641    22965907.935
  20261848.194   -20231102.81644 -14334303.97442  20261849.948    20261847.264
  24431608.682     2584287.60643   2088258.78742  24431610.258    24431611.899
  20979306.490   -14182794.28344 -11039764.60442  20979308.509    20979306.619
 04  5 20  2  4 30.0000000  0  5G16G25G20G11G 1
  21940543.676   -14084323.90843 -10714626.49242  21940545.712    21940543.712
  22981798.772    -7687592.09043  -5977361.37042  22981800.680    22981798.881
  20261455.908   -20233164.35344 -14335910.38642  20261457.653    20261455.001
  24448414.209     2672600.54943   2157073.75442  24448415.716    24448417.835
  20972903.328   -14216443.41644 -11065984.70542  20972905.318    20972903.405
 04  5 20  2  5  0.0000000  0  5G16G25G20G11G 1
  21929594.864   -14141859.68143 -10759459.52142  21929596.901    21929595.006
  22997711.581    -7603970.29943  -5912201.56542  22997713.540    22997711.695
  20261168.980   -20234672.14044 -14337085.30042  20261170.732    20261168.133
  24465215.286     2760889.47543   2225870.01842  24465216.930    24465219.406
  20966535.219   -14249907.99544 -11092060.99842  20966537.219    20966535.293
 04  5 20  2  5 30.0000000  0  5G16G25G20G11G 1
  21918733.861   -14198934.76543 -10803933.56842  21918735.788    21918733.912
  23013645.538    -7520237.07143  -5846954.93042  23013647.507    23013645.655
  20260987.503   -20235626.37444 -14337828.87442  20260989.242    20260986.579
  24482010.882     2849150.09443   2294644.24742  24482012.750    24482015.176
  20960202.156   -14283188.72544 -11117994.03142  20960204.093    20960202.141
 04  5 20  2  6  0.0000000  0  5G16G25G20G11G 1
  21907961.568   -14255542.96143 -10848043.79842  21907963.503    21907961.693
  23029600.962    -7436390.63243  -5781620.06642  23029603.062    23029601.095
  20260912.067   -20236022.84644 -14338137.83042  20260913.833    20260911.143
  24498801.138     2937383.61343   2363397.31742  24498803.084    24498805.609
  20953904.765   -14316281.73044 -11143780.77242  20953906.708    20953904.749
 04  5 20  2  6 30.0000000  0  5G16G25G20G11G 1
  21897277.091   -14311689.71343 -10891794.46242  21897279.055    21897277.346
  23045576.304    -7352440.24443  -5716204.21742  23045578.340    23045576.294
  20260941.398   -20235868.28544 -14338017.41042  20260943.181    20260940.587
  24515584.535     3025579.84543   2432121.34542  24515586.380    24515589.229
  20947641.640   -14349194.23444 -11169426.87142  20947643.591    20947641.639
 04  5 20  2  7  0.0000000  0  5G16G25G20G11G 1
  21886681.991   -14367367.96843 -10935180.06042  21886683.893    21886682.117
  23061571.746    -7268382.94443  -5650705.04142  23061573.961    23061571.868
  20261076.730   -20235157.32244 -14337463.43242  20261078.455    20261075.887
  24532361.573     3113741.10443   2500818.10942  24532363.170    24532365.819
  20941414.032   -14381920.75044 -11194928.04042  20941415.955    20941414.005
 04  5 20  2  7 30.0000000  0  5G16G25G20G11G 1
  21876176.441   -14422574.87643 -10978198.37342  21876178.401    21876176.465
  23077587.386    -7184220.27943  -5585123.78842  23077589.491    23077587.526
  20261318.133   -20233888.85544 -14336475.03442  20261319.870    20261317.264
  24549131.055     3201864.80643   2569485.61242  24549132.686    24549135.479
  20935221.878   -14414460.80344 -11220283.91442  20935223.810    20935221.846
 04  5 20  2  8  0.0000000  0  5G16G25G20G11G 1
  21865761.182   -14477306.74543 -11020846.54642  21865763.197    21865761.219
  23093622.982    -7099952.07743  -5519460.28042  23093625.088    23093623.273
  20261665.912   -20232061.10644 -14335050.82242  20261667.660    20261665.058
  24565893.207     3289949.73843   2638122.94242  24565894.890    24565897.376
  20929065.458   -14446812.58644 -11245493.07342  20929067.439    20929065.522
 04  5 20  2  8 30.0000000  0  5G16G25G20G11G 1
  21855435.514   -14531567.96043 -11063127.96042  21855437.541    21855435.556
  23109677.222    -7015586.78243  -5453721.12042  23109679.344    23109677.516
  20262119.166   -20229679.53344 -14333195.06842  20262120.888    20262118.272
  24582646.349     3377987.07443   2706723.12642  24582648.020    24582651.088
  20922943.800   -14478982.12544 -11270560.22642  20922945.766    20922943.876
 04  5 20  2  9  0.0000000  0  6G16G25G20G13G11G 1
  21845203.118   -14585339.57843 -11105027.87142  21845205.095    21845203.134
  23125752.765    -6931109.37443  -5387894.58442  23125754.949    23125753.097
  20262681.004   -20226727.00344 -14330894.40342  20262682.759    20262680.099
  23506177.383    -1161271.28553   -873824.20052  23506179.208    23506177.741
  24599393.086     3465990.77043   2775297.12142  24599394.784    24599398.367
  20916860.016   -14510952.40344 -11295472.11542  20916861.987    20916860.091
 04  5 20  2  9 30.0000000  0  6G16G25G20G13G11G 1
  21835060.688   -14638637.98243 -11146559.05542  21835062.692    21835060.830
  23141845.800    -6846540.42143  -5321996.73542  23141847.950    23141845.998
  20263348.118   -20223221.79744 -14328163.08542  20263349.855    20263347.101
  23491378.764    -1239034.97143   -934419.19042  23491381.022    23491379.616
  24616129.474     3553939.40743   2843828.14342  24616131.140    24616134.106
  20910810.680   -14542741.77744 -11320243.04342  20910812.623    20910810.760
 04  5 20  2 10  0.0000000  0  6G16G25G20G13G11G 1
  21825010.303   -14691453.57343 -11187714.01242  21825012.273    21825010.336
  23157957.387    -6761873.98843  -5256022.90542  23157959.597    23157957.471
  20264121.843   -20219155.71644 -14324994.72442  20264123.603    20264120.883
  23476592.682    -1316737.06043   -994966.18542  23476595.000    23476592.801
  24632856.274     3641838.01743   2912320.23142  24632857.977    24632861.140
  20904797.313   -14574342.22644 -11344866.75442  20904799.243    20904797.373
 04  5 20  2 10 30.0000000  0  6G16G25G20G13G11G 1
  21815050.633   -14743791.50843 -11228496.77342  21815052.586    21815050.610
  23174085.744    -6677118.93643  -5189980.03642  23174087.988    23174085.800
  20265000.953   -20214535.93544 -14321394.90342  20265002.727    20265000.034
  23461816.497    -1394384.92243  -1055470.80242  23461818.964    23461817.342
  24649571.628     3729676.11243   2980765.24042  24649573.346    24649576.560
  20898818.471   -14605761.03344 -11369348.92542  20898820.404    20898818.568
 04  5 20  2 11  0.0000000  0  6G16G25G20G13G11G 1
  21805183.945   -14795641.28543 -11268899.15742  21805185.942    21805183.895
  23190232.257    -6592268.93943  -5123863.17842  23190234.399    23190232.195
  20265987.123   -20209353.37244 -14317356.55742  20265988.913    20265986.220
  23447052.477    -1471969.65643  -1115926.31242  23447055.015    23447053.404
  24666276.511     3817459.97543   3049167.88842  24666278.341    24666281.507
  20892875.895   -14636989.41344 -11393682.71042  20892877.817    20892875.978
 04  5 20  2 11 30.0000000  0  6G16G25G20G13G11G 1
  21795410.253   -14847002.16543 -11308920.57242  21795412.258    21795410.136
  23206396.249    -6507326.72043  -5057674.45342  23206398.390    23206396.120
  20267080.291   -20203608.79144 -14312880.26742  20267082.056    20267079.418
  23432300.315    -1549492.58743  -1176333.68542  23432303.022    23432301.566
  24682970.581     3905185.87743   3117525.45542  24682972.392    24682975.146
  20886969.346   -14668028.34044 -11417868.86942  20886971.282    20886969.480
 04  5 20  2 12  0.0000000  0  6G16G25G20G13G11G 1
  21785729.413   -14897875.13843 -11348561.79642  21785731.469    21785729.371
  23222576.626    -6422297.06643  -4991417.58442  23222578.941    23222576.650
  20268279.845   -20197305.17543 -14307968.36742  20268281.582    20268278.986
  23417559.955    -1626956.25943  -1236694.91442  23417562.594    23417560.389
  24699652.436     3992847.74543   3185833.12942  24699654.216    24699657.327
  20881098.345   -14698880.40444 -11441909.42742  20881100.294    20881098.538
 04  5 20  2 12 30.0000000  0  7G16G25G20G13G 4G11G 1
  21776143.004   -14948252.01643 -11387816.46042  21776145.018    21776142.985
  23238774.774    -6337175.73943  -4925089.30942  23238776.906    23238774.696
  20269587.001   -20190435.86043 -14302615.66542  20269588.738    20269586.200
  23402831.563    -1704354.14443  -1297004.88142  23402834.211    23402832.354
  24351338.908
  24716322.048     4080449.19543   3254093.57442  24716323.855    24716327.706
  20875264.175   -14729539.28644 -11465799.43842  20875266.074    20875264.323
 04  5 20  2 13  0.0000000  0  7G16G25G20G13G 4G11G 1
  21766649.829   -14998138.66743 -11426689.13042  21766651.828    21766649.724
  23254988.494    -6251972.37743  -4858697.09942  23254990.603    23254988.329
  20271000.416   -20183008.22244 -14296827.90642  20271002.146    20270999.650
  23388114.054                    -1357269.60942  23388115.026
  24345793.432     -978742.71753   -757501.33352  24345792.864    24345792.166
  24732978.772     4167979.23443   3322298.53442  24732980.310    24732984.603
  20869465.342   -14760012.29544 -11489544.62642  20869467.304    20869465.504
 04  5 20  2 13 30.0000000  0  6G16G25G20G13G 4G 1
  21757256.185   -15047503.31443 -11465155.04742  21757258.088    21757255.884
  23271222.858    -6166658.92543  -4792219.11042  23271225.137    23271223.041
  20272525.766   -20174992.46344 -14290581.87042  20272527.499    20272524.989
  23373414.050
  24340350.984    -1007341.17243   -779785.89042  24340352.168    24340351.230
  20863707.621   -14790269.39944 -11513121.56342  20863709.558    20863707.825
 04  5 20  2 14  0.0000000  0  6G16G25G20G13G 4G 1
  21747953.658   -15096387.81043 -11503246.81342  21747955.652    21747953.366
  23287469.861    -6081280.74443  -4725690.67742  23287472.066    23287470.014
  20274154.835   -20166432.02644 -14283911.41642  20274156.565    20274154.025
  23358720.954    -1936152.98643  -1477627.20542  23358724.404    23358722.592
  24335003.439    -1035439.27443   -801680.49942  24335005.216    24335004.537
  20857982.660   -14820354.22744 -11536564.27342  20857984.640    20857982.850
 04  5 20  2 14 30.0000000  0  6G16G25G20G13G 4G 1
  21738745.578   -15144776.31543 -11540952.08742  21738747.590    21738745.217
  23303731.613    -5995825.93243  -4659102.53442  23303733.740    23303731.661
  20275890.177   -20157312.74644 -14276805.49442  20275891.948    20275889.407
  23344039.783    -2013301.64143  -1537742.98642  23344043.057    23344041.694
  24329754.496    -1063022.31043   -823173.79042  24329756.649    24329755.619
  20852293.187   -14850252.54844 -11559861.65542  20852295.181    20852293.346
 04  5 20  2 15  0.0000000  0  6G16G25G20G13G 4G 1
  21729634.456   -15192655.69443 -11578260.64142  21729636.518    21729633.976
  23320009.540    -5910284.61243  -4592446.97742  23320011.819    23320009.689
  20277734.038   -20147623.00544 -14269255.05842  20277735.820    20277733.339
  23329371.885    -2090380.01853  -1597803.97552  23329375.006    23329374.078
  24324605.621    -1090079.12443   -844257.00042  24324607.665    24324606.667
  20846641.443   -14879952.78244 -11583004.68342  20846643.423    20846641.513
 04  5 20  2 15 30.0000000  0  6G16G25G20G13G 4G 1
  21720618.416   -15240034.95843 -11615179.51342  21720620.525    21720617.916
  23336301.641    -5824669.58643  -4525733.98742  23336303.942    23336301.760
  20279684.423   -20137373.81444 -14261268.68942  20279686.196    20279683.716
  23314715.905    -2167398.71943  -1657818.53642  23314718.624    23314717.557
  24319555.110    -1116619.88543   -864938.11942  24319557.233    24319556.306
  20841025.364   -14909465.55744 -11606001.63942  20841027.352    20841025.404
 04  5 20  2 16  0.0000000  0  6G16G25G20G13G 4G 1
  21711699.475   -15286904.18943 -11651700.95342  21711701.556    21711698.979
  23352608.970    -5738974.39843  -4458958.54842  23352611.184    23352609.035
  20281742.892   -20126556.70444 -14252839.78242  20281744.642    20281742.100
  23300072.638    -2244349.73943  -1717780.28242  23300075.196    23300074.308
  24314604.065    -1142636.10743   -885210.49542  24314606.421    24314605.743
  20835446.464   -14938782.44744 -11628845.94542  20835448.452    20835446.585
 04  5 20  2 16 30.0000000  0  6G16G25G20G13G 4G 1
  21702877.298   -15333264.76343 -11687826.04242  21702879.408    21702876.861
  23368930.380    -5653204.12043  -4392124.59942  23368932.672    23368930.608
  20283908.792   -20115174.89544 -14243970.85342  20283910.559    20283907.981
  23285441.794    -2321235.78543  -1777691.45442  23285444.392    23285443.246
  24309752.410    -1168130.90143   -905076.54242  24309754.921    24309754.237
  20829904.380   -14967906.28344 -11651539.82942  20829906.325    20829904.487
 04  5 20  2 17  0.0000000  0  6G16G25G20G13G 4G 1
  21694152.566   -15379113.35343 -11723552.17342  21694154.656    21694152.176
  23385266.276    -5567358.88043  -4325232.21942  23385268.522    23385266.468
  20286182.483   -20103226.50444 -14234660.42942  20286184.227    20286181.726
  23270823.393    -2398054.98543  -1837550.50842  23270825.963    23270825.016
  24305000.517    -1193102.20343   -924534.69542  24305002.841    24305002.413
  20824399.425   -14996835.11944 -11674081.76742  20824401.401    20824399.468
 04  5 20  2 17 30.0000000  0  6G16G25G20G13G 4G 1
  21685525.298   -15424448.97143 -11758878.58642  21685527.385    21685525.111
  23401615.844    -5481441.01543  -4258283.24142  23401618.112    23401616.193
  20288563.750   -20090712.81944 -14224909.52242  20288565.509    20288562.995
  23256217.580    -2474808.35043  -1897358.25442  23256220.336    23256219.159
  24300348.030    -1217550.82043   -943585.59842  24300350.573    24300350.204
  20818931.357   -15025569.67644 -11696472.30842  20818933.324    20818931.444
 04  5 20  2 18  0.0000000  0  6G16G25G20G13G 4G 1
  21676995.974   -15469271.22143 -11793804.98842  21676997.939    21676995.706
  23417978.791    -5395453.76043  -4191280.21042  23417980.938    23417979.045
  20291052.454   -20077634.87844 -14214718.93942  20291054.177    20291051.666
  23241624.359    -2551496.80943  -1957115.43742  23241627.074    23241625.572
  24295794.794    -1241477.53943   -962229.77242  24295797.331    24295797.130
  20813500.153   -15054110.99144 -11718712.28842  20813502.114    20813500.218
 04  5 20  2 18 30.0000000  0  6G16G25G20G13G 4G 1
  21668565.080   -15513575.20743 -11828327.52242  21668567.018    21668564.978
  23434355.061    -5309395.61943  -4124221.94842  23434357.206    23434355.487
  20293649.088   -20063989.40043 -14204086.12242  20293650.807    20293648.307
  23227044.306    -2628116.37443  -2016818.90942  23227046.986    23227045.340
  24291341.565    -1264879.12143   -980464.73042  24291344.042    24291343.883
  20808106.349   -15082455.39444 -11740798.81542  20808108.312    20808106.459
 04  5 20  2 19  0.0000000  0  6G16G25G20G13G 4G 1
  21660233.497   -15557358.54743 -11862444.36442  21660235.331    21660233.248
  23450744.713    -5223267.61243  -4057109.25442  23450746.878    23450745.222
  20296353.898   -20049775.61744 -14193010.46642  20296355.613    20296353.096
  23212476.896    -2704666.74343  -2076468.43842  23212479.641    23212478.151
  24286988.392    -1287754.61843   -998289.78742  24286990.691    24286990.757
  20802750.254   -15110601.93444 -11762731.17342  20802752.219    20802750.293
 04  5 20  2 19 30.0000000  0  6G16G25G20G13G 4G 1
  21652000.401   -15600623.20543 -11896157.04642  21652002.257    21652000.160
  23467146.620    -5137075.19843  -3989946.35642  23467148.803    23467147.102
  20299166.135   -20034997.29744 -14181494.90642  20299167.872    20299165.298
  23197922.449    -2781151.30143  -2136066.69742  23197925.144    23197923.461
  24282734.978    -1310107.49743  -1015707.59042  24282737.006    24282736.843
  20797431.201   -15138553.96544 -11784511.96642  20797433.146    20797431.197
 04  5 20  2 20  0.0000000  0  6G16G25G20G13G 4G 1
  21643866.959   -15643364.58543 -11929461.97442  21643868.827    21643866.625
  23483560.855    -5050817.17743  -3922732.34242  23483563.164    23483561.470
  20302086.397   -20019651.44644 -14169537.11442  20302088.119    20302085.527
  23183380.953    -2857566.62643  -2195611.02742  23183383.811    23183382.064
  24278581.699    -1331934.45743  -1032715.63642  24278583.712    24278582.738
  20792149.660   -15166308.22244 -11806138.64742  20792151.633    20792149.719
 04  5 20  2 20 30.0000000  0  6G16G25G20G13G 4G 1
  21635833.159   -15685581.62443 -11962358.32642  21635835.143    21635832.805
  23499987.220    -4964495.74043  -3855468.91842  23499989.475    23499987.980
  20305114.450   -20003738.90344 -14157137.74842  20305116.191    20305113.617
  23168852.829    -2933912.93543  -2255101.56142  23168855.640    23168853.794
  24274527.972    -1353236.28443  -1049314.43042  24274530.406    24274529.620
  20786905.739   -15193864.98244 -11827611.43142  20786907.679    20786905.834
 04  5 20  2 21  0.0000000  0  6G16G25G20G13G 4G 1
  21627899.885   -15727272.00643 -11994844.29842  21627901.799    21627899.326
  23516425.707    -4878112.15943  -3788157.06942  23516427.767    23516426.269
  20308250.457   -19987259.22144 -14144296.45742  20308252.202    20308249.621
  23154337.964    -3010189.51043  -2314537.77642  23154340.646    23154338.834
  24270574.290    -1374012.05143  -1065503.29142  24270577.076    24270576.271
  20781699.613   -15221223.36744 -11848929.63942  20781701.583    20781699.696
 04  5 20  2 21 30.0000000  0  6G16G25G20G13G 4G 1
  21620067.049   -15768433.86243 -12026918.41742  21620068.983    21620066.447
  23532875.530    -4791667.30743  -3720797.46742  23532877.632    23532876.164
  20311494.471   -19970211.97944 -14131012.91242  20311496.221    20311493.630
  23139836.164    -3086395.91743  -2373919.31242  23139838.946    23139837.000
  24266721.041    -1394261.30843  -1081281.94042  24266723.938    24266723.358
  20776531.394   -15248382.60244 -11870092.67142  20776533.323    20776531.444
 04  5 20  2 22  0.0000000  0  6G16G25G20G13G 4G 1
  21612335.430   -15809063.77343 -12058578.03742  21612337.458    21612334.799
  23549336.768    -4705161.17643  -3653390.11342  23549339.018    23549337.720
  20314846.753   -19952595.69944 -14117285.95942  20314848.507    20314845.947
  23125348.165    -3162529.85543  -2433244.35042  23125351.094    23125349.103
  24262968.003    -1413982.27843  -1096648.86142  24262971.018    24262970.467
  20771401.402   -15275340.78444 -11891099.04542  20771403.382    20771401.477
 04  5 20  2 22 30.0000000  0  6G16G25G20G13G 4G 1
  21604704.260   -15849165.29243 -12089825.92142  21604706.372    21604703.761
  23565808.847    -4618600.60043  -3585940.35942  23565810.863    23565809.651
  20318306.366   -19934415.28544 -14103119.41642  20318308.144    20318305.622
  23110873.320    -3238595.96843  -2492516.58442  23110876.157    23110874.330
  24259315.083    -1433179.68443  -1111607.93142  24259317.738    24259317.388
  20766308.830   -15302102.35944 -11911952.21342  20766310.793    20766308.868
 04  5 20  2 23  0.0000000  0  6G16G25G20G13G 4G 1
  21597175.205   -15888730.72543 -12120656.08242  21597177.277    21597174.711
  23582292.161    -4531981.21543  -3518444.75242  23582294.079    23582292.649
  20321874.427   -19915664.97544 -14088508.80442  20321876.204    20321873.715
  23096412.017    -3314588.06043  -2551731.08542  23096414.942    23096413.635
  24255762.709                    -1126154.30842                  24255765.610
  20761254.975   -15328660.86444 -11932647.15242  20761256.903    20761254.934
 04  5 20  2 23 30.0000000  0  5G16G25G20G13G 1
  21589749.220   -15927754.41043 -12151064.10442  21589751.264    21589748.759
  23598786.927    -4445300.22643  -3450901.15542  23598789.043    23598787.396
  20325551.714   -19896340.96344 -14073451.15542  20325553.460    20325550.905
  23081966.204    -3390501.35643  -2610884.23142  23081968.978    23081967.851
  20756240.550   -15355011.91344 -11953180.44142  20756242.466    20756240.491
 04  5 20  2 24  0.0000000  0  5G16G25G20G13G 1
  21582423.585   -15966250.50343 -12181061.01142  21582425.656    21582423.203
  23615290.245    -4358574.83143  -3383322.95942  23615292.491    23615290.684
  20329335.120   -19876458.93344 -14057958.67542  20329336.873    20329334.350
  23067532.492    -3466351.61943  -2669988.25542  23067535.253    23067533.661
  20751262.596   -15381170.78944 -11973563.97342  20751264.511    20751262.629
 04  5 20  2 24 30.0000000  0  5G16G25G20G13G 1
  21575200.745   -16004206.43643 -12210637.03042  21575202.785    21575200.348
  23631803.919    -4271795.59843  -3315702.82142  23631806.115    23631804.235
  20333226.747   -19856008.46744 -14042023.26442  20333228.461    20333225.920
  23053112.841    -3542127.19443  -2729034.08142  23053115.676    23053113.895
  20746323.503   -15407126.04744 -11993788.85142  20746325.416    20746323.457
 04  5 20  2 25  0.0000000  0  5G16G25G20G13G 1
  21568080.606   -16041622.93143 -12239792.70242  21568082.550    21568080.174
  23648326.916    -4184966.50143  -3248043.81442  23648329.125    23648327.393
  20337226.145   -19834991.55944 -14025646.47542  20337227.869    20337225.319
  23038707.188    -3617829.81143  -2788023.06942  23038710.014    23038708.262
  20741422.802   -15432879.36244 -12013856.36542  20741424.741    20741422.739
 04  5 20  2 25 30.0000000  0  5G16G25G20G13G 1
  21561063.846   -16078495.97143 -12268524.90342  21561065.749    21561063.368
  23664859.702    -4098086.55643  -3180345.16542  23664861.827    23664860.156
  20341333.801   -19813405.85744 -14008826.47642  20341335.515    20341332.906
  23024315.755    -3693456.68043  -2846953.04442  23024318.574    23024316.832
  20736561.142   -15458427.68044 -12033764.14642  20736563.075    20736561.066
 04  5 20  2 26  0.0000000  0  6G16G25G20G13G 4G 1
  21554149.873   -16114829.09143 -12296836.38142  21554151.730    21554149.339
  23681400.833    -4011161.99543  -3112611.76942  23681403.022    23681401.495
  20345548.643   -19791256.68544 -13991567.40642  20345550.369    20345547.797
  23009938.041    -3769012.63743  -2905827.76542  23009940.806    23009938.927
  24236559.658
  20731737.575   -15483775.61944 -12053515.78342  20731739.545    20731737.576
 04  5 20  2 26 30.0000000  0  6G16G25G20G13G 4G 1
  21547338.766   -16150621.26743 -12324726.35342  21547340.672    21547338.312
  23697950.032    -3924195.09443  -3044845.36242  23697952.267    23697950.899
  20349870.522   -19768545.02044 -13973870.02142  20349872.261    20349869.700
  22995573.744    -3844497.60443  -2964647.13742  22995576.507    22995574.681
  24233707.754     -974850.56153   -757908.89952  24233707.129    24233711.007
  20726952.137   -15508923.36344 -12073111.42142  20726954.087    20726952.092
 04  5 20  2 27  0.0000000  0  6G16G25G20G13G 4G 1
  21540632.763   -16185861.73943 -12352186.42242  21540634.643    21540632.246
  23714508.970    -3837177.82543  -2977039.73542  23714511.089    23714509.853
  20354301.167   -19745261.65044 -13955727.15742  20354302.922    20354300.440
  22981224.622    -3919901.77943  -3023403.58742  22981227.339    22981225.465
  24230956.897     -989299.94943   -769168.05842  24230957.813    24230960.031
  20722206.560   -15533861.23344 -12092543.52742  20722208.513    20722206.539
 04  5 20  2 27 30.0000000  0  6G16G25G20G13G 4G 1
  21534031.715   -16220550.28843 -12379216.41742  21534033.681    21534031.302
  23731076.809    -3750113.09543  -2909197.10242  23731078.959    23731077.690
  20358840.375   -19721408.30244 -13937140.15342  20358842.100    20358839.614
  22966890.815    -3995225.89843  -3082097.63042  22966893.545    22966891.677
  24228307.382    -1003217.40343   -780012.78442  24228309.686    24228310.365
  20717500.871   -15558589.74644 -12111812.49742  20717502.837    20717500.922
 04  5 20  2 28  0.0000000  0  6G16G25G20G13G 4G 1
  21527534.400   -16254694.05243 -12405821.90942  21527536.373    21527533.927
  23747652.028    -3663010.83443  -2841325.23042  23747654.047    23747652.577
  20363486.349   -19696993.58644 -13918115.71842  20363488.103    20363485.619
  22952570.876    -4070478.08043  -3140735.59242  22952573.625    22952571.675
  24225758.360    -1016611.63243   -790449.89342  24225760.816    24225761.251
  20712833.540   -15583116.88644 -12130924.55642  20712835.461    20712833.595
 04  5 20  2 28 30.0000000  0  6G16G25G20G13G 4G 1
  21521142.727   -16288282.34443 -12431994.56942  21521144.738    21521142.147
  23764235.783    -3575863.19943  -2773418.01142  23764237.757    23764236.292
  20368240.809   -19672008.57744 -13898646.89642  20368242.581    20368240.086
  22938266.185    -4145648.54343  -3199309.93742  22938269.034    22938267.041
  24223310.746    -1029473.50143   -800472.14942  24223313.213    24223313.575
  20708206.337   -15607432.81044 -12149872.02042  20708208.275    20708206.412
 04  5 20  2 29  0.0000000  0  6G16G25G20G13G 4G 1
  21514855.932   -16321319.24343 -12457737.57042  21514857.975    21514855.365
  23780826.516    -3488677.12243  -2705480.81142  23780828.646    23780827.201
  20373102.790   -19646459.20744 -13878738.32042  20373104.531    20373101.973
  22923976.434    -4220742.24943  -3257824.46242  22923979.126    22923977.100
  24220963.485    -1041808.48843   -810083.79642  24220966.071    24220966.010
  20703618.408   -15631542.60344 -12168658.86342  20703620.339    20703618.467
 04  5 20  2 29 30.0000000  0  6G16G25G20G13G 4G 1
  21508674.533   -16353802.82243 -12483049.42142  21508676.526    21508673.868
  23797424.701    -3401453.39243  -2637514.28742  23797426.752    23797425.307
  20378072.105   -19620345.22344 -13858389.78142  20378073.859    20378071.294
  22909701.423    -4295758.34443  -3316278.51542  22909704.147    22909701.968
  24218716.568    -1053616.44743   -819284.81142  24218718.919    24218719.207
  20699069.937   -15655445.30144 -12187284.33342  20699071.878    20699069.908
 04  5 20  2 30  0.0000000  0  6G16G25G20G13G 4G 1
  21502599.340   -16385727.65843 -12507925.87742  21502601.388    21502598.667
  23814030.551    -3314189.35043  -2569516.35642  23814032.559    23814031.148
  20383149.563   -19593662.99544 -13837598.44842  20383151.319    20383148.754
  22895441.851    -4370692.12643  -3374668.39642  22895444.675    22895442.454
  24216570.912    -1064893.24453   -828071.95652  24216573.117    24216572.930
  20694561.603   -15679136.25444 -12205744.80342  20694563.619    20694561.698
 04  5 20  2 30 30.0000000  0  5G16G25G20G13G 1
  21496631.015   -16417091.20443 -12532364.97842  21496633.055    21496630.381
  23830644.018    -3226885.04943  -2501487.06142  23830646.127    23830644.699
  20388335.312   -19566411.46444 -13816363.51042  20388337.076    20388334.568
  22881198.191    -4445541.82543  -3432992.77142  22881201.126    22881198.919
  20690094.078   -15702613.65044 -12224038.87442  20690096.049    20690094.080
 04  5 20  2 31  0.0000000  0  5G16G25G20G13G 1
  21490767.636   -16447902.91043 -12556374.06642  21490769.662    21490767.080
  23847262.767    -3139552.89943  -2433436.06742  23847264.908    23847263.479
  20393627.349   -19538601.99044 -13794693.80842  20393629.075    20393626.625
  22866968.546    -4520317.86443  -3491259.71542  22866971.435    22866969.521
  20685665.173   -15725887.71644 -12242174.49642  20685667.132    20685665.123
 04  5 20  2 31 30.0000000  0  5G16G25G20G13G 1
  21485010.617   -16478156.64443 -12579948.38042  21485012.579    21485010.028
  23863887.290    -3052189.48043  -2365360.68442  23863889.524    23863888.231
  20399026.289   -19510230.26744 -13772585.99742  20399028.023    20399025.592
  22852754.318    -4595014.76743  -3549465.02942  22852757.084    22852755.118
  20681275.918   -15748953.12044 -12260147.52442  20681277.918    20681275.870
 04  5 20  2 32  0.0000000  0  5G16G25G20G13G 1
  21479360.440   -16507847.84943 -12603084.35642  21479362.454    21479359.955
  23880518.574    -2964792.24943  -2297258.98442  23880520.561    23880519.383
  20404532.856   -19481293.17244 -13750037.63142  20404534.594    20404532.171
  22838555.618    -4669628.48743  -3607605.48442  22838558.331    22838556.505
  20676927.224   -15771805.67644 -12277954.70642  20676929.193    20676927.111
 04  5 20  2 32 30.0000000  0  5G16G25G20G13G 1
  21473817.333   -16536976.91743 -12625782.30342  21473819.363    21473816.903
  23897155.486    -2877364.46043  -2229133.43542  23897157.565    23897156.285
  20410146.594   -19451793.02844 -13727050.52142  20410148.332    20410145.931
  22824372.541    -4744160.17943  -3665682.06642  22824375.340    22824373.474
  20672618.775   -15794446.64544 -12295597.00742  20672620.745    20672618.686
 04  5 20  2 33  0.0000000  0  5G16G25G20G13G 1
  21468381.059   -16565544.97243 -12648043.10342  21468383.001    21468380.530
  23913797.694    -2789910.05443  -2160987.15542  23913799.799    23913798.275
  20415866.881   -19421732.62444 -13703626.85242  20415868.637    20415866.210
  22810204.889    -4818611.86843  -3723696.26342  22810207.631    22810205.576
  20668350.254   -15816877.75944 -12313075.78442  20668352.253    20668350.228
 04  5 20  2 33 30.0000000  0  5G16G25G20G13G 1
  21463052.610   -16593546.35743 -12669862.33542  21463054.533    21463051.980
  23930445.511    -2702425.93343  -2092817.73542  23930447.637    23930445.963
  20421694.500   -19391108.37544 -13679763.81342  20421696.262    20421693.833
  22796053.419    -4892978.55343  -3781644.23442  22796056.208    22796054.208
  20664122.658   -15839094.06844 -12330387.17942  20664124.625    20664122.564
 04  5 20  2 34  0.0000000  0  5G16G25G20G13G 1
  21457831.890   -16620981.48443 -12691240.32942  21457833.819    21457831.164
  23947098.437    -2614914.67743  -2024627.16542  23947100.594    23947098.796
  20427629.036   -19359922.05244 -13655462.80142  20427630.819    20427628.430
  22781917.767    -4967261.02543  -3839526.56442  22781920.512    22781918.650
  20659935.743   -15861096.33044 -12347531.78742  20659937.712    20659935.711
 04  5 20  2 34 30.0000000  0  5G16G25G20G13G 1
  21452718.865   -16647850.08943 -12712176.86942  21452720.829    21452718.201
  23963755.981    -2527378.52743  -1956417.21242  23963758.283    23963756.549
  20433670.311   -19328174.91244 -13630724.79042  20433672.067    20433669.745
  22767798.244    -5041459.53043  -3897343.52942  22767800.932    22767799.109
  20655789.563   -15882884.78844 -12364509.79242  20655791.538    20655789.536
 04  5 20  2 35  0.0000000  0  5G16G25G20G13G 1
  21447714.577   -16674147.66943 -12732668.45142  21447716.522    21447713.916
  23980418.722    -2439815.68943  -1888186.46942  23980420.858    23980419.286
  20439818.786   -19295864.55144 -13605547.91242  20439820.532    20439818.242
  22753695.164    -5115570.52243  -3955092.28142  22753697.914    22753696.197
  20651684.733   -15904455.75144 -12381318.32342  20651686.709    20651684.666
 04  5 20  2 35 30.0000000  0  5G16G25G20G13G 1
  21442818.857   -16699874.57143 -12752715.35742  21442820.862    21442818.251
  23997085.531    -2352228.94943  -1819937.05742  23997087.867    23997086.384
  20446074.051   -19262993.10144 -13579933.82242  20446075.796    20446073.533
  22739608.797    -5189594.65043  -4012773.37442  22739611.438    22739609.647
  20647621.051   -15925810.18644 -12397958.12642  20647623.005    20647621.007
 04  5 20  2 36  0.0000000  0  5G16G25G20G13G 1
  21438030.880   -16725034.85943 -12772320.74442  21438032.941    21438030.404
  24013756.322    -2264624.76043  -1751674.07742  24013758.270    24013756.909
  20452435.043   -19229566.00444 -13553886.75642  20452436.815    20452434.493
  22725538.108    -5263536.41943  -4070390.28142  22725540.747    22725538.810
  20643597.819   -15946952.56744 -12414432.69942  20643599.777    20643597.739
 04  5 20  2 36 30.0000000  0  5G16G25G20G13G 1
  21433352.180   -16749622.23143 -12791479.71842  21433354.138    21433351.589
  24030431.220    -2176998.89243  -1683394.20442  24030433.078    24030431.566
  20458902.597   -19195578.83844 -13527403.27142  20458904.377    20458902.031
  22711484.158    -5337390.06643  -4127938.51542  22711486.920    22711484.951
  20639616.037   -15967876.97644 -12430737.42342  20639618.018    20639615.964
 04  5 20  2 37  0.0000000  0  5G16G25G20G13G 1
  21428782.107   -16773638.19843 -12810193.43242  21428784.078    21428781.532
  24047109.289    -2089354.93943  -1615100.23442  24047111.391    24047109.576
  20465476.109   -19161034.82044 -13500485.88242  20465477.894    20465475.545
  22697446.828    -5411157.30943  -4185419.42842  22697449.557    22697447.571
  20635675.374   -15988585.30144 -12446873.76542  20635677.327    20635675.285
 04  5 20  2 37 30.0000000  0  5G16G25G20G13G 1
  21424321.443   -16797078.80543 -12828458.81542  21424323.431    21424320.884
  24063791.021    -2001691.58243  -1546791.15542  24063793.094    24063791.363
  20472156.049   -19125931.76444 -13473132.87542  20472157.813    20472155.449
  22683426.406    -5484834.82443  -4242830.39642  22683429.146    22683427.267
  20631776.403   -16009074.02044 -12462838.98742  20631778.381    20631776.394
 04  5 20  2 38  0.0000000  0  5G16G25G20G13G 1
  21419970.569   -16819942.85143 -12846274.93042  21419972.548    21419970.005
  24080475.988    -1914009.91043  -1478467.74642  24080478.251    24080476.597
  20478942.189   -19090270.20744 -13445344.66942  20478943.976    20478941.602
  22669423.284    -5558421.75643  -4300170.81942  22669425.967    22669423.975
  20627919.538   -16029342.19944 -12478632.35842  20627921.487    20627919.552
 04  5 20  2 38 30.0000000  0  5G16G25G20G13G 1
  21415729.315   -16842230.93643 -12863642.24542  21415731.284    21415728.632
  24097164.222    -1826312.76843  -1410132.33842  24097166.401    24097164.872
  20485834.203   -19054052.17644 -13417122.85442  20485835.974    20485833.708
  22655437.124    -5631918.99943  -4357441.34942  22655439.952    22655437.841
  20624104.422   -16049390.77144 -12494254.60842  20624106.409    20624104.431
 04  5 20  2 39  0.0000000  0  5G16G25G20G13G 1
  21411597.732   -16863942.19243 -12880560.08242  21411599.714    21411597.052
  24113855.243    -1738601.43343  -1341785.86542  24113857.396    24113855.854
  20492831.998   -19017278.77844 -13388468.28342  20492833.720    20492831.514
  22641468.236    -5705325.95843  -4414641.54342  22641471.093    22641468.921
  20620331.186   -16069219.08944 -12509705.23242  20620333.183    20620331.235
 04  5 20  2 39 30.0000000  0  5G16G25G20G13G 1
  21407576.049   -16885076.36043 -12897028.24042  21407578.034    21407575.316
  24130548.594    -1650877.38143  -1273429.47242  24130550.609    24130549.181
  20499935.183   -18979951.47644 -13359382.09542  20499936.896    20499934.677
  22627516.522    -5778642.56743  -4471771.32642  22627519.361    22627517.182
  20616599.855   -16088827.24044 -12524984.30242  20616601.842    20616599.903
 04  5 20  2 40  0.0000000  0  5G16G25G20G13G 1
  21403664.779   -16905629.89043 -12913043.95442  21403666.755    21403664.004
  24147244.404    -1563139.36243  -1205062.18642  24147246.486    24147245.307
  20507144.167   -18942068.33044 -13329862.78442  20507145.875    20507143.606
  22613582.582    -5851865.90243  -4528828.43542  22613585.437    22613583.129
  20612911.079   -16108211.94044 -12540089.26542  20612913.081    20612911.045
 04  5 20  2 40 30.0000000  0  5G16G25G20G13G 1
  21399863.026   -16925607.76443 -12928611.11042  21399865.006    21399862.258
  24163941.784    -1475394.54343  -1136689.61542  24163943.804    24163942.644
  20514457.679   -18903635.89644 -13299915.46142  20514459.410    20514457.077
  22599665.658    -5925000.63043  -4585816.51042  22599668.508    22599666.183
  20609263.815   -16127378.42444 -12555024.18342  20609265.762    20609263.735
 04  5 20  2 41  0.0000000  0  5G16G25G20G13G 1
  21396172.952   -16944998.60243 -12943720.82942  21396174.941    21396172.282
  24180642.419    -1387633.77143  -1068304.60942  24180644.401    24180642.924
  20521877.452   -18864644.87344 -13269532.86842  20521879.196    20521876.816
  22585767.197    -5998036.23843  -4642727.32342  22585770.083    22585767.921
  20605660.133   -16146315.81244 -12569780.58042  20605662.113    20605660.096
 04  5 20  2 41 30.0000000  0  5G16G25G20G13G 1
  21392593.622   -16963808.60143 -12958377.95742  21392595.487    21392592.873
  24197344.244    -1299864.99643   -999913.36142  24197346.431    24197344.684
  20529402.109   -18825102.53544 -13238720.67842  20529403.877    20529401.489
  22571886.835    -6070978.27743  -4699565.24642  22571889.596    22571887.247
  20602099.028   -16165029.79344 -12584362.90142  20602100.997    20602098.989
 04  5 20  2 42  0.0000000  0  5G16G25G20G13G 1
  21389124.761   -16982037.62143 -12972582.36742  21389126.636    21389124.028
  24214047.295    -1212090.13643   -931517.38842  24214049.577    24214047.770
  20537031.340   -18785010.63744 -13207480.26142  20537033.104    20537030.749
  22558024.245    -6143826.84443  -4756330.31342  22558026.929    22558024.574
  20598580.288   -16183520.58244 -12598771.29942  20598582.273    20598580.311
 04  5 20  2 42 30.0000000  0  5G16G25G20G13G 1
  21385767.097   -16999682.04843 -12986331.25142  21385768.994    21385766.418
  24230751.616    -1124307.43943   -863115.28942  24230753.929    24230752.285
  20544765.466   -18744367.46544 -13175810.29442  20544767.231    20544764.915
  22544179.953    -6216578.40143  -4813019.80042  22544182.732    22544180.292
  20595104.783   -16201784.74844 -12613003.11042  20595106.726    20595104.675
 04  5 20  2 43  0.0000000  0  5G16G25G20G13G 1
  21382520.345   -17016744.07443 -12999626.30342  21382522.236    21382519.679
  24247456.692    -1036521.16443   -794710.39442  24247458.873    24247457.447
  20552603.765   -18703177.08544 -13143713.93042  20552605.522    20552603.205
  22530353.808    -6289235.79943  -4869635.92142  22530356.490    22530353.924
  20591671.819   -16219824.90844 -12627060.37242  20591673.777    20591671.689
 04  5 20  2 43 30.0000000  0  5G16G25G20G13G 1
  21379385.091   -17033220.10943 -13012464.75442  21379387.009    21379384.422
  24264163.141     -948729.27943   -726301.10742  24264165.293    24264163.779
  20560546.624   -18661437.19844 -13111189.37042  20560548.357    20560546.050
  22516546.152    -6361794.93943  -4926175.46542  22516548.817    22516546.438
  20588282.234   -16237637.16444 -12640940.04042  20588284.206    20588282.141
 04  5 20  2 44  0.0000000  0  5G16G25G20G13G 1
  21376361.272   -17049110.70643 -13024847.01542  21376363.175    21376360.485
  24280870.131     -860934.61043   -657889.70442  24280872.326    24280870.411
  20568593.616   -18619150.19344 -13078238.49042  20568595.334    20568593.055
  22502757.075    -6434256.55943  -4982639.02542  22502759.765    22502757.454
  20584935.971   -16255222.28144 -12654642.72342  20584937.940    20584935.807
 04  5 20  2 44 30.0000000  0  5G16G25G20G13G 1
  21373448.791   -17064415.56643 -13036772.85242  21373450.770    21373448.029
  24297577.301     -773138.39343   -589477.07042  24297579.487    24297577.255
  20576744.524   -18576317.27844 -13044862.22242  20576746.210    20576743.898
  22488986.667    -6506620.17943  -5039026.22442  22488989.289    22488987.159
  20581632.981   -16272579.55644 -12668167.86042  20581634.972    20581632.814
 04  5 20  2 45  0.0000000  0  5G16G25G20G13G 1
  21370648.654   -17079130.19343 -13048238.76842  21370650.631    21370647.948
  24314284.815     -685337.92243   -521061.14042  24314287.213    24314285.062
  20584999.753   -18532935.60444 -13011058.35642  20585001.459    20584999.216
  22475235.818    -6578881.03743  -5095333.33242  22475238.487    22475236.433
  20578374.179   -16289704.52844 -12681511.98442  20578376.173    20578374.006
 04  5 20  2 45 30.0000000  0  5G16G25G20G13G 1
  21367959.780   -17093259.91243 -13059248.91742  21367961.780    21367959.126
  24330991.811     -597540.53043   -452647.58742  24330994.302    24330992.404
  20593358.028   -18489012.53844 -12976832.61742  20593359.717    20593357.493
  22461503.729    -6651044.60143  -5151564.65442  22461506.322    22461504.171
  20575158.477   -16306602.83044 -12694679.47742  20575160.464    20575158.316
 04  5 20  2 46  0.0000000  0  5G16G25G20G13G 1
  21365383.356   -17106799.26643 -13069799.04742  21365385.292    21365382.631
  24347699.357     -509742.33843   -384233.41242  24347701.586    24347699.970
  20601820.165   -18444544.04144 -12942181.86842  20601821.835    20601819.616
  22447790.977    -6723105.37743  -5207715.85842  22447793.667    22447791.382
  20571987.102   -16323268.66844 -12707665.83742  20571989.056    20571986.916
 04  5 20  2 46 30.0000000  0  5G16G25G20G13G 1
  21362918.476   -17119751.81443 -13079891.91442  21362920.396    21362917.769
  24364405.959     -421948.73043   -315822.81742  24364408.208    24364406.550
  20610385.000   -18399535.41544 -12907110.22942  20610386.702    20610384.603
  22434097.261    -6795066.69743  -5263789.58242  22434099.929    22434097.519
  20568859.257   -16339705.58644 -12720473.81142  20568861.234    20568859.098
 04  5 20  2 47  0.0000000  0  5G16G25G20G13G 1
  21360565.969   -17132113.86443 -13089524.65442  21360567.887    21360565.314
  24381112.255     -334157.29343   -247413.93942  24381114.313    24381112.734
  20619053.157   -18353984.42744 -12871615.99042  20619054.839    20619052.648
  22420422.999    -6866924.48343  -5319782.62342  22420425.802    22420423.431
  20565775.758   -16355909.50344 -12733100.23242  20565777.733    20565775.606
 04  5 20  2 47 30.0000000  0  5G16G25G20G13G 1
  21358326.449   -17143882.54543 -13098695.02442  21358328.366    21358325.802
  24397818.154     -246366.71943   -179005.71842  24397820.400    24397818.563
  20627824.694   -18307889.91144 -12835698.22242  20627826.416    20627824.125
  22406769.253    -6938675.45243  -5375692.43042  22406772.072    22406769.620
  20562737.129   -16371877.44444 -12745542.77142  20562739.079    20562736.985
 04  5 20  2 48  0.0000000  0  5G16G25G20G13G 1
  21356198.582   -17155064.58443 -13107408.28042  21356200.483    21356197.877
  24414522.316     -158585.54043   -110604.81442  24414524.552    24414522.801
  20636698.011   -18261260.28544 -12799363.49042  20636699.767    20636697.450
  22393134.404    -7010326.60243  -5431524.44442  22393137.279    22393134.864
  20559742.100   -16387616.07244 -12757806.62542  20559744.063    20559742.026
 04  5 20  2 48 30.0000000  0  5G16G25G20G13G 1
  21354183.701   -17165653.16343 -13115659.10042  21354185.593    21354182.899
  24431225.606      -70808.21943    -42206.90142  24431227.860    24431226.312
  20645674.176   -18214090.31744 -12762607.71142  20645675.924    20645673.667
  22379520.141    -7081870.30943  -5487272.74142  22379522.998    22379520.594
  20556792.239   -16403118.11044 -12769886.12642  20556794.175    20556792.039
 04  5 20  2 49  0.0000000  0  5G16G25G20G13G 1
  21352281.335   -17175649.93843 -13123448.77242  21352283.291    21352280.515
  24447927.700       16962.13043     26185.59742  24447929.881    24447928.509
  20654752.498   -18166383.34444 -12725433.48142  20654754.233    20654752.048
  22365925.736    -7153308.27443  -5542938.63342  22365928.641    22365926.267
  20553886.998   -16418385.14844 -12781782.50642  20553888.981    20553886.839
 04  5 20  2 49 30.0000000  0  5G16G25G20G13G 1
  21350491.621   -17185054.88943 -13130777.28442  21350493.612    21350490.782
  24464628.267      104723.76743     94571.26942  24464630.450    24464629.192
  20663932.759   -18118140.82744 -12687841.92642  20663934.487    20663932.337
  22352351.621    -7224639.87943  -5598521.65042  22352354.536    22352352.182
  20551026.555   -16433416.64544 -12793495.34942  20551028.566    20551026.425
 04  5 20  2 50  0.0000000  0  5G16G25G20G13G 1
  21348814.082   -17193870.79043 -13137646.80342  21348816.034    21348813.135
  24481326.402      192472.52543    162946.90942  24481328.595    24481327.134
  20673214.065   -18069367.38444 -12649836.67842  20673215.793    20673213.711
  22338797.622    -7295867.47743  -5654023.63142  22338800.373    22338798.021
  20548210.489   -16448215.24844 -12805026.72142  20548212.502    20548210.354
 04  5 20  2 50 30.0000000  0  5G16G25G20G13G 1
  21347249.949   -17202089.97943 -13144051.34742  21347251.957    21347249.023
  24498023.369      280214.78943    231317.53642  24498025.574    24498023.772
  20682597.564   -18020056.81444 -12611412.90642  20682599.275    20682597.196
  22325264.762    -7366982.93043  -5709438.24442  22325267.573    22325265.146
  20545440.302   -16462772.71544 -12816370.19342  20545442.305    20545440.100
 04  5 20  2 51  0.0000000  0  5G16G25G20G13G 1
  21345798.604   -17209716.37943 -13149993.97542  21345800.628    21345797.758
  24514717.986      367944.68543    299678.49142  24514720.123    24514718.155
  20692082.225   -17970214.80944 -12572575.01442  20692083.917    20692081.831
  22311752.451    -7437990.05043  -5764768.42342  22311755.304    22311752.920
  20542715.206   -16477093.00144 -12827528.85542  20542717.238    20542715.007
 04  5 20  2 51 30.0000000  0  5G16G25G20G13G 1
  21344460.357   -17216748.80543 -13155473.77342  21344462.318    21344459.546
  24531409.917      455662.71443    368030.17142  24531412.264    24531410.406
  20701667.959   -17919841.63044 -12533323.21442  20701669.654    20701667.497
  22298261.322    -7508886.83643  -5820012.64242  22298264.037    22298261.584
  20540035.682   -16491174.11644 -12838501.15042  20540037.658    20540035.506
 04  5 20  2 52  0.0000000  0  5G16G25G20G13G 1
  21343235.417   -17223185.74743 -13160489.55242  21343237.376    21343234.658
  24548099.844      543368.98943    436372.71542  24548102.192    24548100.521
  20711354.696   -17868937.42944 -12493657.62942  20711356.393    20711354.244
  22284791.340    -7579671.15143  -5875169.20042  22284794.094    22284791.824
  20537402.027   -16505014.16044 -12849285.59542  20537403.969    20537401.827
 04  5 20  2 52 30.0000000  0  5G16G25G20G13G 1
  21342122.848   -17229032.11243 -13165045.14342  21342124.788    21342122.175
  24564786.463      631057.42643    504701.35842  24564788.744    24564787.404
  20721141.351   -17817508.68244 -12453583.31542  20721143.014    20721140.842
  22271342.169    -7650347.32343  -5930241.51142  22271344.834    22271342.481
  20534813.350   -16518617.55844 -12859885.64142  20534815.298    20534813.169
 04  5 20  2 53  0.0000000  0  5G16G25G20G13G 1
  21341124.177   -17234280.22343 -13169134.55942  21341126.108    21341123.473
  24581470.835      718734.46643    573021.13042  24581473.178    24581471.948
  20731029.003   -17765548.92344 -12413095.23042  20731030.682    20731028.463
  22257915.065    -7720907.08943  -5985223.10342  22257917.755    22257915.297
  20532271.388   -16531975.74044 -12870294.61242  20532273.316    20532271.165
 04  5 20  2 53 30.0000000  0  5G16G25G20G13G 1
  21340238.537   -17238934.09243 -13172760.93542  21340240.495    21340237.874
  24598152.080      806394.55143    641327.69842  24598154.395    24598153.122
  20741016.535   -17713064.35844 -12372198.18942  20741018.240    20741016.010
  22244509.464    -7791354.14143  -6040116.88042  22244512.180    22244509.644
  20529775.359   -16545092.52944 -12880515.49342  20529777.275    20529775.139
 04  5 20  2 54  0.0000000  0  5G16G25G20G13G 1
  21339466.299   -17242992.30643 -13175923.15942  21339468.256    21339465.597
  24614830.103      894037.89443    709621.22842  24614832.379    24614831.057
  20751103.942   -17660054.92844 -12330892.17542  20751105.679    20751103.413
  22231125.664    -7861685.94543  -6094920.83742  22231128.417    22231125.881
  20527325.547   -16557966.01544 -12890546.78042  20527327.484    20527325.393
 04  5 20  2 54 30.0000000  0  5G16G25G20G13G 1
  21338807.292   -17246455.13543 -13178621.44442  21338809.303    21338806.604
  24631504.535      981663.34843    777900.85042  24631506.954    24631505.389
  20761290.772   -17606522.68044 -12289178.77542  20761292.544    20761290.268
  22217763.851    -7931902.46843  -6149634.96442  22217766.569    22217764.070
  20524922.158   -16570595.99244 -12900388.32042  20524924.083    20524922.000
 04  5 20  2 55  0.0000000  0  5G16G25G20G13G 1
  21338261.680   -17249322.91943 -13180856.06542  21338263.611    21338260.818
  24648175.569     1069269.51843    846165.35242  24648177.829    24648176.092
  20771576.854   -17552469.22744 -12247059.23942  20771578.619    20771576.281
  22204424.149    -8002003.09143  -6204258.80942  22204426.839    22204424.266
  20522565.194   -16582982.07844 -12910039.82042  20522567.133    20522565.001
 04  5 20  2 55 30.0000000  0  5G16G25G20G13G 1
  21337829.531   -17251593.49443 -13182625.32042  21337831.580    21337828.694
  24664842.888     1156857.24743    914415.52542  24664845.149    24664843.488
  20781962.130   -17497894.09144 -12204533.18742  20781963.929    20781961.546
  22191107.024    -8071984.94343  -6258790.08642  22191109.728    22191107.118
  20520255.175   -16595121.54544 -12919499.14642  20520257.123    20520254.909
 04  5 20  2 56  0.0000000  0  5G16G25G20G13G 1
  21337510.644   -17253269.45643 -13183931.22642  21337512.663    21337509.662
  24681506.235     1244422.84143    982648.45642  24681508.384    24681506.799
  20792445.907   -17442801.42144 -12161603.86642  20792447.687    20792445.325
  22177812.129    -8141850.04243  -6313230.39642  22177814.831    22177812.152
  20517991.660   -16607016.18244 -12928767.69042  20517993.655    20517991.426
 04  5 20  2 56 30.0000000  0  5G16G25G20G13G 1
  21337305.246   -17254348.64543 -13184772.13642  21337307.299    21337304.229
  24698165.440     1331967.90243   1050865.39742  24698167.590    24698166.132
  20803028.338   -17387190.43844 -12118270.66242  20803030.082    20803027.793
  22164540.035    -8211595.02743  -6367577.11142  22164542.713    22164540.114
  20515775.261   -16618663.12444 -12937843.22442  20515777.262    20515775.062
 04  5 20  2 57  0.0000000  0  5G16G25G20G13G 1
  21337212.736   -17254834.82143 -13185150.94542  21337214.769    21337211.727
  24714819.839     1419487.61743   1119062.53942  24714821.876    24714820.479
  20813708.468   -17331066.39744 -12074537.67742  20813710.187    20813707.903
  22151290.225    -8281222.96043  -6421832.62342  22151292.878    22151290.244
  20513605.458   -16630065.39744 -12946728.11142  20513607.450    20513605.310
 04  5 20  2 57 30.0000000  0  5G16G25G20G13G 1
  21337234.415   -17254720.34943 -13185061.71742  21337236.502    21337233.516
  24731470.590     1506988.81143   1187245.27442  24731472.517    24731471.285
  20824487.247   -17274423.50744 -12030400.39942  20824489.004    20824486.772
  22138064.373    -8350725.16443  -6475990.14742  22138067.033    22138064.447
  20511483.863   -16641214.67444 -12955415.86942  20511485.820    20511483.663
 04  5 20  2 58  0.0000000  0  5G16G25G20G13G 1
  21337369.006   -17254013.06243 -13184510.55442  21337371.081    21337368.148
  24748116.500     1594462.71343   1255406.74842  24748118.414    24748116.841
  20835363.046   -17217270.96744 -11985865.99442  20835364.781    20835362.653
  22124861.074    -8420108.51243  -6530055.05442  22124863.789    22124861.235
  20509409.094   -16652117.85144 -12963911.86142  20509411.047    20509408.832
 04  5 20  2 58 30.0000000  0  5G16G25G20G13G 1
  21337617.128   -17252709.05043 -13183494.41942  21337619.195    21337616.272
  24764757.685     1681911.91043   1323548.98242  24764759.764    24764757.743
  20846336.259   -17159606.44144 -11940932.63142  20846338.004    20846335.938
  22111681.324    -8489368.31743  -6584023.68442  22111684.035    22111681.477
  20507381.958   -16662770.33444 -12972212.49142  20507383.911    20507381.830
 04  5 20  2 59  0.0000000  0  5G16G25G20G13G 1
  21337979.284   -17250805.64043 -13182011.21042  21337981.369    21337978.506
  24781394.051     1769338.56043   1391673.67242  24781396.491    24781394.380
  20857407.201   -17101428.66944 -11895599.34242  20857408.929    20857406.814
  22098525.845    -8558500.84943  -6637893.13142  22098528.573    22098525.925
  20505403.274   -16673168.47644 -12980314.93242  20505405.244    20505403.161
 04  5 20  2 59 30.0000000  0  5G16G25G20G13G 1
  21338454.180   -17248310.36643 -13180066.80542  21338456.205    21338453.316
  24798025.055     1856734.30443   1459774.24242  24798027.239    24798025.033
  20868573.989   -17042746.93244 -11849873.35742  20868575.735    20868573.626
  22085393.426    -8627512.75543  -6691668.60042  22085396.173    22085393.472
  20503471.670   -16683319.18144 -12988224.57242  20503473.637    20503471.533
 04  5 20  3  0  0.0000000  0  5G16G25G20G13G 1
  21339042.549   -17245218.17643 -13177657.27842  21339044.581    21339041.734
  24814650.717     1944103.40143   1527854.05242  24814652.991    24814650.701
  20879837.381   -16983557.27044 -11803751.57142  20879839.166    20879837.094
  22072284.911    -8696397.60043  -6745345.04742  22072287.704    22072285.107
  20501588.292   -16693216.26044 -12995936.58342  20501590.271    20501588.145
 04  5 20  3  0 30.0000000  0  5G16G25G20G13G 1
  21339744.276   -17241530.07043 -13174783.39442  21339746.349    21339743.509
  24831271.464     2031444.20143   1595911.80942  24831273.623    24831271.314
  20891196.970   -16923862.57844 -11757236.26842  20891198.704    20891196.632
  22059200.745    -8765155.52643  -6798922.61042  22059203.481    22059200.966
  20499753.174   -16702859.83144 -13003451.05642  20499755.144    20499753.085
 04  5 20  3  1  0.0000000  0  5G16G25G20G13G 1
  21340559.494   -17237245.98943 -13171445.13042  21340561.550    21340558.658
  24847886.345     2118756.28543   1663947.19542  24847888.525    24847886.837
  20902652.359   -16863663.90744 -11710328.24742  20902654.111    20902652.049
  22046141.050    -8833785.21943  -6852400.25842  22046143.784    22046141.128
  20497966.457   -16712248.86944 -13010767.18442  20497968.470    20497966.405
 04  5 20  3  1 30.0000000  0  5G16G25G20G13G 1
  21341488.401   -17232364.32543 -13167641.21742  21341490.436    21341487.554
  24864495.683     2206040.16343   1731960.63642  24864498.059    24864496.704
  20914203.769   -16802961.34244 -11663027.59242  20914205.454    20914203.409
  22033106.139    -8902283.91843  -6905775.83542  22033108.921    22033106.165
  20496228.728   -16721380.88444 -13017883.03442  20496230.709    20496228.636
 04  5 20  3  2  0.0000000  0  5G16G25G20G13G 1
  21342529.968   -17226890.83143 -13163376.12942  21342531.920    21342529.104
  24881098.822     2293289.73843   1799947.25442  24881100.968    24881099.700
  20925849.577   -16741762.21744 -11615340.00242  20925851.301    20925849.295
  22020095.221    -8970656.19343  -6959052.88142  22020097.986    22020095.261
  20494538.943   -16730260.43644 -13024802.15742  20494540.926    20494538.858
 04  5 20  3  2 30.0000000  0  5G16G25G20G13G 1
  21343685.265   -17220819.80743 -13158645.43942  21343687.227    21343684.309
  24897696.297     2380510.02443   1867911.13142  24897698.512    24897697.111
  20937590.684   -16680062.31144 -11567262.18842  20937592.389    20937590.429
  22007109.796    -9038895.39543  -7012226.22642  22007112.563    22007109.836
  20492898.488   -16738880.99044 -13031519.47042  20492900.470    20492898.425
 04  5 20  3  3  0.0000000  0  5G16G25G20G13G 1
  21344953.751   -17214154.14443 -13153451.38942  21344955.680    21344952.743
  24914287.405     2467697.55643   1935849.42242  24914289.748    24914288.455
  20949426.376   -16617865.77844 -11518797.38942  20949428.068    20949426.050
  21994149.338    -9107002.68443  -7065296.77842  21994152.205    21994149.449
  20491307.049   -16747244.18944 -13038036.24142  20491309.010    20491306.923
 04  5 20  3  3 30.0000000  0  4G16G20G13G 1
  21346339.809   -17206869.65943 -13147775.14942  21346341.834    21346338.926
  20961360.859   -16555149.76544 -11469927.79542  20961362.585    20961360.533
  21981218.718    -9174952.64343  -7118244.73242  21981221.609    21981219.033
  20489769.381   -16755324.73144 -13044332.76242  20489771.342    20489769.260
 04  5 20  3  4  0.0000000  0  4G16G20G13G 1
  21347834.898   -17199013.65644 -13141653.56342  21347836.881    21347833.804
  20973384.842   -16491963.27744 -11420691.60842  20973386.572    20973384.552
  21968309.282    -9242791.40743  -7171106.04142  21968312.159    21968309.634
  20488276.687   -16763168.92144 -13050445.11242  20488278.637    20488276.598
 04  5 20  3  4 30.0000000  0  4G16G20G13G 1
  21349443.192   -17190561.60443 -13135067.53242  21349445.167    21349442.149
  20985502.863   -16428282.92944 -11371070.58042  20985504.588    20985502.582
  21955426.046    -9310493.29543  -7223860.69342  21955428.862    21955426.269
  20486833.913   -16770750.91344 -13056353.15542  20486835.831    20486833.815
 04  5 20  3  5  0.0000000  0  5G16G20G13G 1G27
  21351161.193   -17181533.16743 -13128032.35742  21351163.202    21351160.184
  20997710.779   -16364130.18044 -11321081.45242  20997712.507    20997710.417
  21942565.477    -9378076.28643  -7276522.70942  21942568.254    21942565.497
  20485437.422   -16778089.43244 -13062071.48242  20485439.360    20485437.292
  23631794.072    -1368105.20253  -1056625.67552  23631796.120    23631797.820
 04  5 20  3  5 30.0000000  0  5G16G20G13G 1G27
  21352994.222   -17171900.34643 -13120526.25042  21352996.210    21352993.206
  21010013.621   -16299478.20944 -11270703.32242  21010015.399    21010013.256
  21929733.068    -9445511.04243  -7329069.21442  21929735.843    21929732.879
  20484092.807   -16785155.14644 -13067577.22642  20484094.767    20484092.743
  23618107.733    -1440024.51743  -1112666.64242  23618109.747    23618111.325
 04  5 20  3  6  0.0000000  0  5G16G20G13G 1G27
  21354940.764   -17161671.55043 -13112555.73842  21354942.703    21354939.649
  21022409.646   -16234336.94444 -11219943.93442  21022411.377    21022409.291
  21916927.480    -9512804.35843  -7381505.50042  21916930.306    21916927.425
  20482798.863   -16791955.22644 -13072875.98442  20482800.805    20482798.738
  23604455.310    -1511768.42543  -1168570.89042  23604457.247    23604458.441
 04  5 20  3  6 30.0000000  0  5G16G20G13G 1G27
  21357000.141   -17150849.27743 -13104122.78042  21357002.077    21356999.034
  21034898.049   -16168710.06344 -11168806.13842  21034899.752    21034897.715
  21904148.569    -9579957.33543  -7433832.42942  21904151.391    21904148.665
  20481555.153   -16798490.91844 -13077968.71842  20481557.133    20481554.978
  23590835.946    -1583338.69843  -1224339.82942  23590837.971    23590839.157
 04  5 20  3  7  0.0000000  0  5G16G20G13G 1G27
  21359172.119   -17139435.14043 -13095228.63242  21359174.120    21359171.027
  21047478.213   -16102601.04244 -11117292.64942  21047479.908    21047477.843
  21891396.448    -9646970.30643  -7486050.28642  21891399.253    21891396.469
  20480361.560   -16804762.76144 -13082855.85142  20480363.581    20480361.461
  23577249.172    -1654736.56543  -1279974.44142  23577251.266    23577252.481
 04  5 20  3  7 30.0000000  0  5G16G20G13G 1G27
  21361456.850   -17127428.88843 -13085873.09642  21361458.823    21361455.747
  21060149.953   -16036010.62744 -11065404.05742  21060151.646    21060149.620
  21878671.389    -9713841.17643  -7538157.40342  21878674.182    21878671.230
  20479218.587   -16810768.96344 -13087535.99742  20479220.621    20479218.535
  23563695.570    -1725960.72443  -1335473.71342  23563697.797    23563698.836
 04  5 20  3  8  0.0000000  0  5G16G20G13G 1G27
  21363854.179   -17114830.76643 -13076056.35942  21363856.190    21363853.139
  21072912.990   -15968940.67444 -11013141.80242  21072914.664    21072912.655
  21865973.443    -9780568.83343  -7590152.92342  21865976.310    21865973.323
  20478126.426   -16816508.49844 -13092008.35042  20478128.442    20478126.376
  23550175.296    -1797010.95043  -1390837.45942  23550177.344    23550178.379
 04  5 20  3  8 30.0000000  0  5G16G20G13G 1G27
  21366363.820   -17101642.64544 -13065779.88342  21366365.807    21366362.817
  21085766.640   -15901394.13444 -10960508.17242  21085768.383    21085766.377
  21853302.779    -9847153.47343  -7642037.02342  21853305.603    21853302.567
  20477084.860   -16821981.89344 -13096273.32142  20477086.910    20477084.869
  23536687.681    -1867888.38843  -1446066.51642  23536689.814    23536690.700
 04  5 20  3  9  0.0000000  0  5G16G20G13G 1G27
  21368986.133   -17087862.04143 -13055041.73842  21368988.132    21368985.175
  21098711.257   -15833370.06144 -10907502.45242  21098712.990    21098710.983
  21840659.976    -9913590.84243  -7693806.33242  21840662.802    21840659.989
  20476094.693   -16827185.38844 -13100327.98842  20476096.759    20476094.649
  23523233.543    -1938589.87343  -1501158.49042  23523235.707    23523236.324
 04  5 20  3  9 30.0000000  0  5G16G20G13G 1G27
  21371719.930   -17073495.99443 -13043847.40342  21371721.923    21371718.946
  21111745.115   -15764876.91644 -10854131.21642  21111746.858    21111744.872
  21828044.443    -9979886.29843  -7745465.09042  21828047.200    21828044.329
  20475154.773   -16832124.56044 -13104176.67442  20475156.846    20475154.733
  23509811.845    -2009121.72543  -1556118.27342  23509813.994    23509814.557
 04  5 20  3 10  0.0000000  0  5G16G20G13G 1G27
  21374566.597   -17058536.51943 -13032190.65142  21374568.607    21374565.691
  21124869.539   -15695907.79344 -10800389.07942  21124871.290    21124869.302
  21815457.740   -10046030.21044  -7797005.76542  21815460.513    21815457.483
  20474266.962   -16836789.94544 -13107812.03042  20474269.008    20474266.918
  23496423.745    -2079475.20143  -1610939.06842  23496425.999    23496426.699
 04  5 20  3 10 30.0000000  0  5G16G20G13G 1G27
  21377524.888   -17042990.24243 -13020076.65142  21377526.959    21377524.028
  21138083.022   -15626470.81844 -10746282.38342  21138084.750    21138082.738
  21802898.835   -10112027.64843  -7848432.30242  21802901.650    21802898.519
  20473430.213   -16841186.68544 -13111238.04342  20473432.292    20473430.302
  23483068.719    -2149656.31943  -1665625.55542  23483070.898    23483071.578
 04  5 20  3 11  0.0000000  0  5G16G20G13G 1G27
  21380594.972   -17026857.18744 -13007505.42642  21380596.950    21380594.036
  21151385.189   -15556567.35244 -10691812.18842  21151386.926    21151384.994
  21790368.061   -10177876.43643  -7899743.00742  21790370.891    21790367.845
  20472644.933   -16845313.27644 -13114453.55742  20472646.978    20472645.016
  23469746.557    -2219664.08243  -1720176.96842  23469748.774    23469749.424
 04  5 20  3 11 30.0000000  0  5G16G20G13G 1G27
  21383777.269   -17010133.96944 -12994474.32842  21383779.247    21383776.303
  21164776.490   -15486195.40044 -10636976.94242  21164778.265    21164776.393
  21777866.680   -10243571.68743  -7950934.06642  21777869.449    21777866.399
  20471912.095   -16849164.83044 -13117454.75442  20471914.070    20471912.053
  23456458.361    -2289494.17443  -1774589.93342  23456460.533    23456461.210
 04  5 20  3 12  0.0000000  0  5G16G20G13G 1G27
  21387070.436   -16992827.95043 -12980989.09442  21387072.450    21387069.554
  21178255.397   -15415363.54744 -10581783.34042  21178257.106    21178255.279
  21765393.448   -10309118.80143  -8002009.71442  21765396.206    21765393.154
  20471230.368   -16852747.24444 -13120246.23042  20471232.342    20471230.308
  23443202.594    -2359153.41343  -1828869.76142  23443204.791    23443205.439
 04  5 20  3 12 30.0000000  0  5G16G20G13G 1G27
  21390475.933   -16974932.18443 -12967044.33042  21390477.875    21390474.915
  21191822.881   -15344066.13544 -10526226.95942  21191824.603    21191822.781
  21752950.093   -10374509.09843  -8052963.15942  21752952.803    21752949.810
  20470601.441   -16856051.97044 -13122821.32642  20470603.416    20470601.391
  23429980.552    -2428633.84043  -1883010.27242  23429982.819    23429983.598
 04  5 20  3 13  0.0000000  0  5G16G20G13G 1G27
  21393992.421   -16956452.53943 -12952644.59242  21393994.394    21393991.493
  21205477.554   -15272310.56644 -10470313.56942  21205479.306    21205477.507
  21740535.804   -10439746.60343  -8103797.54442  21740538.462    21740535.475
  20470024.569   -16859083.38344 -13125183.45242  20470026.533    20470024.548
  23416791.919    -2497940.67643  -1937015.50942  23416794.003    23416794.871
 04  5 20  3 13 30.0000000  0  5G16G20G13G 1G27
  21397620.012   -16937389.08643 -12937789.94142  21397621.971    21397619.128
  21219219.221   -15200097.87344 -10414043.97142  21219220.956    21219219.205
  21728150.997   -10504829.17443  -8154511.21842  21728153.697    21728150.538
  20469500.048   -16861839.84544 -13127331.33242  20469502.012    20469500.035
  23403636.350    -2567072.84043  -1990884.64542  23403638.533    23403639.368
 04  5 20  3 14  0.0000000  0  5G16G20G13G 1G27
  21401358.410   -16917743.33443 -12922481.55542  21401360.348    21401357.540
  21233047.219   -15127431.00144 -10357420.46442  21233048.988    21233047.308
  21715795.568   -10569756.76643  -8205104.11942  21715798.313    21715795.158
  20469027.839   -16864321.28944 -13129264.91442  20469029.819    20469027.778
  23390514.084    -2636031.01243  -2044618.21042  23390516.240    23390517.006
 04  5 20  3 14 30.0000000  0  5G16G20G13G 1G27
  21405208.187   -16897512.53843 -12906717.27842  21405210.079    21405207.264
  21246962.062   -15054308.21344 -10300441.71142  21246963.800    21246962.131
  21703470.724   -10634524.11543  -8255572.16042  21703473.460    21703470.347
  20468608.867   -16866522.99744 -13130980.51542  20468610.864    20468608.789
  23377425.594    -2704811.46043  -2098213.25142  23377427.703    23377428.298
 04  5 20  3 15  0.0000000  0  5G16G20G13G 1G27
  21409168.458   -16876701.62643 -12890500.96642  21409170.274    21409167.388
  21260962.393   -14980735.77644 -10243112.57242  21260964.153    21260962.480
  21691175.792   -10699134.41143  -8305917.82242  21691178.540    21691175.459
  20468242.399   -16868448.48544 -13132480.88342  20468244.409    20468242.357
  23364369.994    -2773418.37843  -2151673.07442  23364372.189    23364372.634
 04  5 20  3 15 30.0000000  0  5G16G20G13G 1G27
  21413239.298   -16855309.21144 -12873831.54142  21413241.166    21413238.233
  21275048.269   -14906713.88444 -10185433.21342  21275050.029    21275048.374
  21678911.441   -10763584.13043  -8356138.35742  21678914.199    21678911.091
  20467929.125   -16870094.70844 -13133763.64542  20467931.098    20467929.031
  23351347.945    -2841849.40343  -2204995.83742  23351350.168    23351350.457
 04  5 20  3 16  0.0000000  0  5G16G20G13G 1G27
  21417420.676   -16833336.03843 -12856709.57442  21417422.571    21417419.578
  21289219.392   -14832244.47743 -10127405.15242  21289221.085    21289219.438
  21666677.719   -10827872.49243  -8406233.14742  21666680.513    21666677.445
  20467669.242   -16871460.65444 -13134828.01342  20467671.189    20467669.067
  23338359.427    -2910104.23043  -2258181.31042  23338361.676    23338361.861
 04  5 20  3 16 30.0000000  0  5G16G20G13G 1G27
  21421712.308   -16810783.31143 -12839136.00142  21421714.238    21421711.167
  21303475.233   -14757329.60443 -10069029.96442  21303476.928    21303475.304
  21654475.070   -10891997.56343  -8456200.71142  21654477.888    21654474.824
  20467462.804   -16872545.64544 -13135673.45042  20467464.743    20467462.613
  23325404.398    -2978182.84343  -2311229.48742  23325406.625    23325406.965
 04  5 20  3 17  0.0000000  0  5G16G20G13G 1G27
  21426114.159   -16787651.44143 -12821111.15842  21426116.088    21426112.966
  21317815.664   -14681971.05044 -10010309.06642  21317817.303    21317815.596
  21642303.768   -10955958.00243  -8506039.98342  21642306.545    21642303.578
  20467310.039   -16873348.33044 -13136298.90142  20467312.011    20467309.903
  23312482.999    -3046084.79343  -2364140.02042  23312485.236    23312485.597
 04  5 20  3 17 30.0000000  0  5G16G20G13G 1G27
  21430625.900   -16763941.83843 -12802636.12942  21430627.840    21430624.681
  21332239.846   -14606171.75144  -9951244.72142  21332241.550    21332239.801
  21630163.865   -11019753.47843  -8555750.70642  21630166.594    21630163.758
  20467210.997   -16873868.58644 -13136704.28342  20467213.015    20467210.880
  23299595.097    -3113810.65943  -2416913.35142  23299597.313    23299597.631
 04  5 20  3 18  0.0000000  0  5G16G20G13G 1G27
  21435247.374   -16739655.32143 -12783711.55142  21435249.319    21435246.226
  21346747.505   -14529933.46144  -9891838.30142  21346749.233    21346747.583
  21618055.612   -11083382.29343  -8605331.56042  21618058.342    21618055.487
  20467165.958   -16874105.15044 -13136888.61342  20467167.994    20467165.831
  23286740.783    -3181360.08543  -2469549.19642  23286743.060    23286743.447
 04  5 20  3 18 30.0000000  0  5G16G20G13G 1G27
  21439978.237   -16714794.86743 -12764339.75442  21439980.088    21439977.003
  21361337.922   -14453260.42544  -9832093.13142  21361339.655    21361338.023
  21605979.125   -11146845.19943  -8654783.14942  21605981.868    21605978.854
  20467174.633   -16874059.40944 -13136852.95142  20467176.668    20467174.525
  23273919.788    -3248734.97443  -2522049.01742  23273922.004    23273922.385
 04  5 20  3 19  0.0000000  0  5G16G20G13G 1G27
  21444818.243   -16689360.36043 -12744520.63842  21444820.110    21444817.045
  21376010.873   -14376153.75044  -9772010.04842  21376012.611    21376010.945
  21593934.372   -11210139.97243  -8704103.70942  21593937.170    21593934.207
  20467237.439   -16873729.29944 -13136595.71842  20467239.486    20467237.341
  23261132.027    -3315934.19343  -2574411.95442  23261134.336    23261134.719
 04  5 20  3 19 30.0000000  0  5G16G20G13G 1G27
  21449767.583   -16663351.27843 -12724253.80242  21449769.501    21449766.399
  21390766.254   -14298613.91544  -9711589.42542  21390767.982    21390766.292
  21581922.340   -11273263.49744  -8753290.83542  21581925.127    21581922.130
  20467354.827   -16873112.29044 -13136114.92542  20467356.856    20467354.733
  23248378.238    -3382955.91743  -2626636.59842  23248380.457    23248380.828
 04  5 20  3 20  0.0000000  0  5G16G20G13G 1G27
  21454825.564   -16636771.77543 -12703542.48742  21454827.450    21454824.249
  21405603.085   -14220646.30944  -9650835.47442  21405604.817    21405603.099
  21569942.517   -11336217.97043  -8802346.23942  21569945.299    21569942.233
  20467526.417   -16872210.74244 -13135412.41442  20467528.396    20467526.304
  23235657.588    -3449803.41543  -2678725.49342  23235659.730    23235660.062
 04  5 20  3 20 30.0000000  0  5G16G20G13G 1G27
  21459992.715   -16609617.97643 -12682383.66342  21459994.639    21459991.468
  21420521.798   -14142247.99544  -9589745.90942  21420523.622    21420521.780
  21557996.077   -11398996.95743  -8851264.89742  21557998.809    21557995.701
  20467753.253   -16871018.61844 -13134483.48242  20467755.223    20467753.152
  23222971.008    -3516471.35943  -2730674.46442  23222973.251    23222973.477
 04  5 20  3 21  0.0000000  0  5G16G20G13G 1G27
  21465268.443   -16581893.30443 -12660780.01042  21465270.389    21465267.337
  21435521.517   -14063424.03743  -9528324.69342  21435523.302    21435521.502
  21546082.717   -11461601.60343  -8900047.71342  21546085.484    21546082.356
  20468035.043   -16869537.63744 -13133329.46242  20468037.018    20468034.942
  23210318.167    -3582962.40343  -2782485.58442  23210320.379    23210320.515
 04  5 20  3 21 30.0000000  0  5G16G20G13G 1G27
  21470652.390   -16553600.41643 -12638733.57942  21470654.358    21470651.245
  21450601.588   -13984178.04244  -9466574.61842  21450603.294    21450601.556
  21534202.754   -11524031.97143  -8948694.72442  21534205.423    21534202.260
  20468371.775   -16867768.30944 -13131950.75842  20468373.748    20468371.609
  23197698.576    -3649277.82343  -2834159.84642  23197700.830    23197701.033
 04  5 20  3 22  0.0000000  0  5G16G20G13G 1G27
  21476144.356   -16524739.97743 -12616244.91042  21476146.296    21476143.190
  21465761.611   -13904511.62143  -9404496.93642  21465763.260    21465761.626
  21522355.903   -11586286.39543  -8997204.62342  21522358.678    21522355.632
  20468763.578   -16865709.31844 -13130346.33742  20468765.609    20468763.462
  23185112.535    -3715417.05243  -2885696.81042  23185114.811    23185115.185
 04  5 20  3 22 30.0000000  0  5G16G20G13G 1G27
  21481744.581   -16495310.53943 -12593312.86442  21481746.550    21481743.482
  21481001.638   -13824424.56643  -9342091.48142  21481003.336    21481001.729
  21510543.395   -11648361.22943  -9045574.57742  21510546.112    21510543.222
  20469211.130   -16863357.27744 -13128513.56442  20469213.186    20469211.046
  23172560.684    -3781377.57943  -2937094.52242  23172562.932    23172563.326
 04  5 20  3 23  0.0000000  0  5G16G20G13G 1G27
  21487451.935   -16465317.98443 -12569942.01942  21487453.952    21487450.955
  21496320.451   -13743923.92843  -9279363.75342  21496322.168    21496320.535
  21498764.598   -11710259.28743  -9093806.79042  21498767.250    21498764.352
  20469713.728   -16860715.98944 -13126455.40742  20469715.775    20469713.693
  23160041.922    -3847163.92943  -2988356.54342  23160044.140    23160044.560
 04  5 20  3 23 30.0000000  0  5G16G20G13G 1G27
  21493266.438   -16434762.54543 -12546132.57442  21493268.421    21493265.453
  21511717.721   -13663010.97643  -9216314.73342  21511719.437    21511717.806
  21487019.815   -11771978.65044  -9141899.76742  21487022.513    21487019.582
  20470271.681   -16857783.78144 -13124170.56242  20470273.729    20470271.660
  23147556.629    -3912775.04843  -3039481.99042  23147558.746    23147559.102
 04  5 20  3 24  0.0000000  0  5G16G20G13G 1G27
  21499189.263   -16403637.64043 -12521879.37842  21499191.276    21499188.310
  21527194.452   -13581680.16043  -9152940.10242  21527196.207    21527194.586
  21475310.714   -11833510.27144  -9189846.44842  21475313.442    21475310.500
  20470886.733   -16854551.96644 -13121652.26042  20470888.740    20470886.628
  23135105.899    -3978203.32943  -3090464.95642  23135108.129    23135108.452
 04  5 20  3 24 30.0000000  0  5G16G20G13G 1G27
  21505218.255   -16371955.14543 -12497191.69942  21505220.237    21505217.280
  21542748.313   -13499944.57743  -9089250.07942  21542750.011    21542748.387
  21463635.582   -11894863.12444  -9237653.83942  21463638.333    21463635.312
  20471556.872   -16851030.30544 -13118908.10842  20471558.867    20471556.736
  23122687.990    -4043459.23843  -3141313.63342  23122690.186    23122690.561
 04  5 20  3 25  0.0000000  0  5G16G20G13G 1G27
  21511354.294   -16339709.57543 -12472065.26642  21511356.279    21511353.396
  21558379.895   -13417799.89343  -9025241.28142  21558381.617    21558380.013
  21451995.964   -11956029.65544  -9285316.04442  21451998.679    21451995.626
  20472283.612   -16847211.28244 -13115932.25242  20472285.598    20472283.445
  23110304.182    -4108535.96343  -3192022.68442  23110306.457    23110306.726
 04  5 20  3 25 30.0000000  0  5G16G20G13G 1G27
  21517596.076   -16306909.24043 -12446506.54442  21517597.963    21517595.001
  21574087.624   -13335255.47343  -8960921.00242  21574089.334    21574087.773
  21440390.852   -12017015.24044  -9332837.25442  21440393.537    21440390.373
  20473065.767   -16843100.93544 -13112729.38442  20473067.781    20473065.582
  23097953.147    -4173440.62943  -3242597.67042  23097955.395    23097955.659
 04  5 20  3 26  0.0000000  0  5G16G20G13G 1G27
  21523944.541   -16273547.88743 -12420510.67742  21523946.444    21523943.371
  21589872.348   -13252306.03043  -8896285.12542  21589874.089    21589872.499
  21428821.763   -12077810.93143  -9380210.48342  21428824.481    21428821.361
  20473904.988   -16838690.92744 -13109293.01442  20473907.019    20473904.786
  23085636.386    -4238165.62443  -3293032.66642  23085638.567    23085638.778
 04  5 20  3 26 30.0000000  0  5G16G20G13G 1G27
  21530398.802   -16239630.32043 -12394081.38742  21530400.746    21530397.619
  21605733.109   -13168957.42543  -8831338.20942  21605734.834    21605733.215
  21417288.392   -12138418.84944  -9427437.38842  21417291.117    21417288.082
  20474800.718   -16833983.74044 -13105625.07142  20474802.735    20474800.524
  23073353.061    -4302714.24243  -3343330.19542  23073355.291    23073355.488
 04  5 20  3 27  0.0000000  0  5G16G20G13G 1G27
  21536959.785   -16205151.69143 -12367214.90842  21536961.760    21536958.743
  21621670.614   -13085205.81543  -8766077.25742  21621672.320    21621670.719
  21405792.211   -12198831.58844  -9474512.21342  21405794.932    21405791.929
  20475754.341   -16828972.58644 -13101720.27142  20475756.347    20475754.112
  23061104.326    -4367080.49843  -3393485.60642  23061106.585    23061106.841
 04  5 20  3 27 30.0000000  0  5G16G20G13G 1G27
  21543625.003   -16170125.93843 -12339922.09542  21543626.962    21543623.949
  21637681.866   -13001065.97743  -8700513.76842  21637683.643    21637682.076
  21394331.084   -12259060.20544  -9521443.56442  21394333.792    21394330.819
  20476763.627   -16823668.82044 -13097587.46342  20476765.661    20476763.472
  23048888.148    -4431276.69143  -3443508.51742  23048890.397    23048890.638
 04  5 20  3 28  0.0000000  0  5G16G20G13G 1G27
  21550395.770   -16134545.50343 -12312197.07142  21550397.685    21550394.682
  21653768.206   -12916531.76943  -8634642.99642  21653769.970    21653768.426
  21382906.893   -12319094.67944  -9568223.64042  21382909.583    21382906.645
  20477830.324   -16818063.23944 -13093219.48542  20477832.382    20477830.200
  23036705.935    -4495294.34543  -3493392.31742  23036708.219    23036708.467
 04  5 20  3 28 30.0000000  0  5G16G20G13G 1G27
  21557270.751   -16098417.08843 -12284045.04742  21557272.710    21557269.740
  21669928.223   -12831610.50943  -8568470.63642  21669929.954    21669928.451
  21371519.061   -12378937.95044  -9614854.72442  21371521.759    21371518.790
  20478953.617   -16812159.86244 -13088619.45042  20478955.694    20478953.570
  23024556.910    -4559138.27443  -3543140.74042  23024559.121    23024559.265
 04  5 20  3 29  0.0000000  0  5G16G20G13G 1G27
  21564251.216   -16061734.37243 -12255461.10042  21564253.169    21564250.214
  21686162.832   -12746297.16043  -8501992.74542  21686164.610    21686163.050
  21360169.256   -12438581.67444  -9661330.32342  21360171.949    21360168.888
  20480135.239   -16805950.25644 -13083780.79842  20480137.301    20480135.186
  23012442.156    -4622801.04943  -3592747.98642  23012444.398    23012444.642
 04  5 20  3 29 30.0000000  0  6G16G20G13G 3G 1G27
  21571327.407   -16024548.80343 -12226485.32642  21571329.341    21571326.385
  21702462.116   -12660644.02043  -8435250.07442  21702463.925    21702462.255
  21348848.077   -12498074.69244  -9707688.49042  21348850.787    21348847.725
  24570962.690    -2961022.57953  -2269544.03552  24570965.034    24570966.134
  20481365.839   -16799483.47044 -13078741.75142  20481367.877    20481365.750
  23000352.464    -4686332.49543  -3642252.90342  23000354.656    23000354.882
 04  5 20  3 30  0.0000000  0  6G16G20G13G 3G 1G27
  21578516.836   -15986767.98343 -12197045.71742  21578518.801    21578515.771
  21718843.575   -12574559.49243  -8368171.26542  21718845.314    21718843.581
  21337573.873   -12557321.22643  -9753854.59742  21337576.570    21337573.383
  24556453.786    -3037266.14143  -2328954.44742  24556456.156    24556457.429
  20482663.399   -16792664.75744 -13073428.46942  20482665.402    20482663.200
  22988305.687    -4749638.77543  -3691582.36642  22988307.835    22988307.886
 04  5 20  3 30 30.0000000  0  6G16G20G13G 3G 1G27
  21585809.453   -15948444.67143 -12167183.39342  21585811.432    21585808.437
  21735296.719   -12488097.56643  -8300798.36142  21735298.515    21735296.771
  21326336.851   -12616371.31744  -9799867.62142  21326339.561    21326336.471
  24541964.543    -3113406.04843  -2388284.10542  24541966.887    24541968.525
  20484018.388   -16785544.63544 -13067880.32242  20484020.361    20484018.113
  22976291.955    -4812771.26243  -3740776.38742  22976294.142    22976294.126
 04  5 20  3 31  0.0000000  0  6G16G20G13G 3G 1G27
  21593205.475   -15909579.00843 -12136898.45442  21593207.390    21593204.386
  21751821.566   -12401259.28843  -8233132.20942  21751823.341    21751821.612
  21315137.867   -12675222.19144  -9845725.41542  21315140.559    21315137.552
  24527496.170    -3189437.85543  -2447529.56842  24527498.376    24527499.978
  20485431.062   -16778120.98144 -13062095.65442  20485433.086    20485430.813
  22964311.425    -4875728.65943  -3789833.99642  22964313.712    22964313.674
 04  5 20  3 31 30.0000000  0  6G16G20G13G 3G 1G27
  21600705.034   -15870168.74243 -12106189.14842  21600706.946    21600703.870
  21768418.258   -12314043.50643  -8165171.88242  21768420.071    21768418.316
  21303977.811   -12733868.91544  -9891424.12842  21303980.488    21303977.461
  24513049.084    -3265354.69943  -2506685.42242  24513051.472    24513053.312
  20486902.317   -16770389.19444 -13056070.87642  20486904.353    20486902.178
  22952364.979    -4938507.04743  -3838752.11142  22952367.288    22952367.308
 04  5 20  3 32  0.0000000  0  6G16G20G13G 3G 1G27
  21608307.089   -15830219.24943 -12075059.66242  21608309.048    21608306.002
  21785085.449   -12226456.33043  -8096922.17242  21785087.320    21785085.795
  21292856.162   -12792313.60644  -9936965.41542  21292858.839    21292855.801
  24498624.251    -3341157.63843  -2565752.48542  24498626.265    24498628.459
  20488431.766   -16762352.12444 -13049808.21542  20488433.807    20488431.666
  22940451.897    -5001110.44243  -3887533.85342  22940454.185    22940454.315
 04  5 20  3 32 30.0000000  0  6G16G20G13G 3G 1G27
  21616012.207   -15789728.26443 -12043508.23842  21616014.128    21616011.123
  21801823.685   -12138496.61143  -8028382.16842  21801825.523    21801824.064
  21281773.948   -12850550.97144  -9982345.14342  21281776.620    21281773.534
  24484221.681    -3416839.42953  -2624725.08552  24484223.986    24484226.948
  20490020.078   -16754005.28244 -13043304.17242  20490022.155    20490020.032
  22928572.760    -5063534.99843  -3936176.25942  22928575.053    22928575.194
 04  5 20  3 33  0.0000000  0  6G16G20G13G 3G 1G27
  21623818.816   -15748704.01743 -12011541.28042  21623820.748    21623817.735
  21818631.113   -12050173.40543  -7959558.93742  21818632.954    21818631.443
  21270730.181   -12908586.41644 -10027567.54442  21270732.882    21270729.683
  24469842.488    -3492403.89843  -2683606.34342  24469844.480    24469847.322
  20491666.270   -16745354.44344 -13036563.25742  20491668.344    20491666.173
  22916726.501    -5125787.32043  -3984684.47642  22916728.740    22916728.781
 04  5 20  3 33 30.0000000  0  6G16G20G13G 3G 1G27
  21631727.596   -15707142.71043 -11979155.84542  21631729.493    21631726.569
  21835508.187   -11961483.83343  -7890450.22142  21835510.012    21835508.622
  21259726.056   -12966413.06344 -10072627.23942  21259728.743    21259725.549
  24455487.256    -3567842.55143  -2742389.59942  24455489.146    24455491.775
  20493371.458   -16736393.38844 -13029580.61242  20493373.544    20493371.358
  22904913.913    -5187862.25543  -4033054.45142  22904916.117    22904916.128
 04  5 20  3 34  0.0000000  0  6G16G20G13G 3G 1G27
  21639737.644   -15665049.41743 -11946355.87042  21639739.552    21639736.637
  21852453.911   -11872433.96543  -7821060.75542  21852455.676    21852454.312
  21248761.421   -13024032.55544 -10117525.51042  21248764.084    21248760.883
  24441155.855    -3643155.59243  -2801074.98242  24441157.829    24441159.928
  20495135.196   -16727124.68144 -13022358.23842  20495137.272    20495135.120
  22893134.480    -5249763.16543  -4081288.83442  22893136.659    22893136.576
 04  5 20  3 34 30.0000000  0  6G16G20G13G 3G 1G27
  21647849.997   -15622418.86243 -11913137.25842  21647851.894    21647848.915
  21869468.920   -11783019.35843  -7751387.09642  21869470.668    21869469.382
  21237837.748   -13081436.88644 -10162256.13342  21237840.425    21237837.116
  24426849.949    -3718333.20543  -2859654.76742  24426852.220    24426853.891
  20496959.008   -16717540.56744 -13014890.08742  20496961.054    20496958.909
  22881389.522    -5311483.10843  -4129382.17042  22881391.708    22881391.531
 04  5 20  3 35  0.0000000  0  6G16G20G13G 3G 1G27
  21656063.554   -15579256.62543 -11879504.34542  21656065.428    21656062.420
  21886552.124   -11693246.44943  -7681434.21742  21886553.920    21886552.562
  21226954.453   -13138628.57944 -10206821.06742  21226957.189    21226953.905
  24412569.527    -3793376.24943  -2918129.77542  24412572.045    24412573.441
  20498842.244   -16707644.12944 -13007178.57442  20498844.284    20498842.140
  22869678.222    -5373026.09943  -4177337.63242  22869680.407    22869680.251
 04  5 20  3 35 30.0000000  0  6G16G20G13G 3G 1G27
  21664377.082   -15535569.01343 -11845462.04642  21664378.961    21664375.840
  21903702.196   -11603122.60843  -7611207.89142  21903703.963    21903702.588
  21216110.995   -13195610.99644 -10251222.92742  21216113.741    21216110.517
  24398314.527    -3868286.71043  -2976501.45142  24398316.974    24398318.432
  20500784.113   -16697439.57244 -12999226.96142  20500786.127    20500784.049
  22857999.689    -5434397.00343  -4225159.01242  22858001.877    22858001.690
 04  5 20  3 36  0.0000000  0  6G16G20G13G 3G 1G27
  21672791.379   -15491351.57643 -11811006.89742  21672793.270    21672790.151
  21920919.721   -11512643.80543  -7540704.97242  21920921.506    21920920.157
  21205308.964   -13252376.08644 -10295455.43842  21205311.629    21205308.474
  24384086.475    -3943054.88043  -3034762.22742  24384088.944    24384090.278
  20502786.011   -16686919.53844 -12991029.51442  20502788.030    20502785.920
  22846355.065    -5495589.66243  -4272841.49042  22846357.263    22846357.003
 04  5 20  3 36 30.0000000  0  6G16G20G13G 3G 1G27
  21681305.508   -15446609.47843 -11776142.92942  21681307.395    21681304.303
  21938203.590   -11421816.54343  -7469930.50742  21938205.429    21938203.970
  21194547.814   -13308925.97644 -10339520.26242  21194550.516    21194547.325
  24369885.739    -4017681.26443  -3092912.53342  24369888.093    24369889.200
  20504847.310   -16676087.08144 -12982588.63142  20504849.343    20504847.225
  22834743.610    -5556607.62643  -4320387.83942  22834745.826    22834745.498
 04  5 20  3 37  0.0000000  0  6G16G20G13G 3G 1G27
  21689919.784   -15401341.59443 -11740869.25142  21689921.611    21689918.489
  21955553.814   -11330640.36643  -7398884.16742  21955555.662    21955554.201
  21183828.500   -13365256.33644 -10383414.01242  21183831.185    21183828.052
  24355712.664    -4092159.89043  -3150947.70142  24355715.209    24355716.162
  20506968.831   -16664938.37944 -12973901.31842  20506970.835    20506968.716
  22823165.942    -5617447.91543  -4367795.74242  22823168.208    22823167.811
 04  5 20  3 37 30.0000000  0  6G16G20G13G 3G 1G27
  21698634.166   -15355546.62143 -11705184.85642  21698636.091    21698632.926
  21972970.634   -11239114.87743  -7327565.63742  21972972.440    21972970.919
  21173151.795   -13421362.77144 -10427133.28542  21173154.527    21173151.290
  24341568.358    -4166484.70243  -3208862.96842  24341571.057    24341572.405
  20509151.300   -16653469.49544 -12964964.51442  20509153.321    20509151.164
  22811622.718    -5678107.87443  -4415063.13442  22811624.954    22811624.618
 04  5 20  3 38  0.0000000  0  6G16G20G13G 3G 1G27
  21707446.824   -15309235.95243 -11669098.62142  21707448.730    21707445.516
  21990451.517   -11147252.24343  -7255984.40342  21990453.342    21990451.878
  21162516.133   -13477253.51844 -10470684.48742  21162518.887    21162515.522
  24327452.877    -4240662.42643  -3266663.67042  24327455.152    24327456.872
  20511392.981   -16641689.29244 -12955785.12742  20511394.990    20511392.846
  22800111.958    -5738596.91943  -4462197.35542  22800114.129    22800113.807
 04  5 20  3 38 30.0000000  0  6G16G20G13G 3G 1G27
  21716358.174   -15262406.77943 -11632608.35642  21716360.091    21716356.856
  22007996.950   -11055050.40443  -7184138.84742  22007998.789    22007997.334
  21151922.776   -13532922.24344 -10514062.68542  21151925.534    21151922.054
  24313366.826    -4314685.48843  -3324343.78542  24313368.893    24313370.748
  20513694.980   -16629592.34144 -12946358.92442  20513696.985    20513694.818
  22788634.567    -5798910.77843  -4509195.05342  22788636.740    22788636.359
 04  5 20  3 39  0.0000000  0  6G16G20G13G 3G 1G27
  21725368.281   -15215057.74443 -11595712.99442  21725370.304    21725367.055
  22025607.061   -10962508.76443  -7112028.51742  22025608.887    22025607.471
  21141372.522   -13588364.10244 -10557264.10242  21141375.292    21141371.791
  24299311.277    -4388547.56443  -3381898.49642  24299313.413    24299315.034
  20516057.960   -16617174.80744 -12936682.91542  20516059.947    20516057.756
  22777191.075    -5859046.25343  -4556053.77342  22777193.315    22777192.819
 04  5 20  3 39 30.0000000  0  6G16G20G13G 3G 1G27
  21734476.129   -15167195.92743 -11558418.06942  21734478.156    21734474.770
  22043280.245   -10869635.54043  -7039659.80642  22043282.046    22043280.714
  21130864.727   -13643583.02544 -10600291.80342  21130867.472    21130864.007
  24285286.024    -4462250.72043  -3439329.41642  24285288.186    24285289.606
  20518481.038   -16604441.22844 -12926760.63242  20518483.034    20518480.927
  22765780.541    -5919008.69143  -4602777.67242  22765782.743    22765782.094
 04  5 20  3 40  0.0000000  0  6G16G20G13G 3G 1G27
  21743682.081   -15118818.80743 -11520721.60642  21743684.055    21743680.501
  22061016.824   -10776428.78943  -6967031.21042  22061018.659    22061017.444
  21120400.304   -13698573.42144 -10643141.41942  21120403.077    21120399.643
  24271292.204    -4535787.54043  -3496630.66442  24271294.508    24271295.973
  20520965.217   -16591386.53344 -12916588.12442  20520967.229    20520965.139
  22754403.757    -5978793.89943  -4649363.44442  22754405.938    22754405.210
 04  5 20  3 40 30.0000000  0  6G16G20G13G 3G 1G27
  21752984.982   -15069931.56243 -11482627.65142  21752986.979    21752983.465
  22078815.992   -10682894.51543  -6894147.38642  22078817.747    22078816.368
  21109979.126   -13753336.90744 -10685814.22742  21109981.872    21109978.424
  24257330.341    -4609158.17643  -3553802.43942  24257332.507    24257333.807
  20523510.081   -16578013.13844 -12906167.28742  20523512.108    20523510.000
  22743060.073    -6038405.29543  -4695813.80242  22743062.229    22743061.508
 04  5 20  3 41  0.0000000  0  6G16G20G13G 3G 1G27
  21762385.223   -15020532.78943 -11444135.09342  21762387.225    21762383.806
  22096677.385   -10589032.03543  -6821007.82942  22096679.207    22096677.637
  21099602.087   -13807868.89844 -10728306.65242  21099604.802    21099601.332
  24243400.848    -4682356.52643  -3610839.96442  24243403.257    24243404.529
  20526116.416   -16564317.06944 -12895495.01942  20526118.432    20526116.274
  22731749.985    -6097839.80743  -4742126.32642  22731752.113    22731751.316
 04  5 20  3 41 30.0000000  0  6G16G20G13G 3G 1G27
  21771882.337   -14970624.83543 -11405245.77942  21771884.326    21771880.966
  22114600.868   -10494844.32543  -6747614.86142  22114602.639    22114600.929
  21089269.194   -13862168.14644 -10770617.71242  21089271.938    21089268.571
  24229504.872    -4755379.82643  -3667741.11242  24229507.296    24229508.498
  20528784.106   -16550298.07344 -12884571.11142  20528786.164    20528783.991
  22720473.368    -6157097.76343  -4788301.24542  22720475.511    22720474.823
 04  5 20  3 42  0.0000000  0  6G16G20G13G 3G 1G27
  21781475.309   -14920213.97743 -11365964.58842  21781477.213    21781473.840
  22132584.639   -10400338.88743  -6673974.31042  22132586.491    22132584.845
  21078980.044   -13916237.63244 -10812749.74242  21078982.784    21078979.428
  24215642.114    -4828229.65843  -3724507.12942  24215644.311    24215645.369
  20531512.550   -16535959.90244 -12873398.49742  20531514.587    20531512.435
  22709229.495    -6216183.88743  -4834342.26542  22709231.684    22709231.134
 04  5 20  3 42 30.0000000  0  6G16G20G13G 3G 1G27
  21791164.344   -14869297.52643 -11326289.41642  21791166.321    21791162.940
  22150629.440   -10305513.48143  -6600084.42942  22150631.217    22150629.663
  21068735.800   -13970071.22444 -10854697.95542  21068738.527    21068735.218
  24201813.641    -4900898.17943  -3781131.78442  24201815.904    24201816.930
  20534302.811   -16521296.95644 -12861972.82242  20534304.836    20534302.688
  22698019.297    -6275093.57543  -4880245.83542  22698021.519    22698020.831
 04  5 20  3 43  0.0000000  0  6G16G20G13G 3G 1G27
  21800949.375   -14817876.91843 -11286221.41542  21800951.379    21800948.175
  22168734.578   -10210370.14243  -6525946.79142  22168736.403    22168734.886
  21058536.908   -14023666.69744 -10896460.62742  21058539.624    21058536.265
  24188020.158    -4973381.77843  -3837612.34142  24188022.488    24188023.725
  20537155.147   -16506307.99344 -12850293.10042  20537157.128    20537155.013
  22686842.730    -6333826.41943  -4926011.61342  22686844.903    22686844.224
 04  5 20  3 43 30.0000000  0  6G16G20G13G 3G 1G27
  21810828.824   -14765959.90243 -11245766.58542  21810830.907    21810827.753
  22186898.520   -10114917.72743  -6451568.31342  22186900.371    22186898.922
  21048382.365   -14077028.72544 -10938041.39042  21048385.110    21048381.680
  24174261.550    -5045683.41143  -3893951.12142  24174263.885    24174264.983
  20540068.413   -16490998.35044 -12838363.49542  20540070.425    20540068.332
  22675698.705    -6392388.48443  -4971644.31342  22675700.851    22675700.153
 04  5 20  3 44  0.0000000  0  6G16G20G13G 3G 1G27
  21820803.392   -14713543.17843 -11204922.38642  21820805.451    21820802.345
  22205121.916   -10019153.66743  -6376947.00242  22205123.768    22205122.296
  21038273.695   -14130150.34444 -10979434.82742  21038276.411    21038272.880
  24160539.364    -5117794.73643  -3950141.62342  24160541.555    24160542.580
  20543043.943   -16475361.97244 -12826179.29642  20543045.899    20543043.860
  22664588.173    -6450774.60343  -5017139.92642  22664590.315    22664589.523
 04  5 20  3 44 30.0000000  0  6G16G20G13G 3G 1G27
  21830872.954   -14660627.27943 -11163689.21542  21830874.995    21830871.881
  22223404.413    -9923079.01843  -6302083.70742  22223406.253    22223404.820
  21028211.369   -14183028.13344 -11020638.26742  21028214.084    21028210.529
  24146853.745    -5189711.02543  -4006180.10242  24146856.107    24146857.188
  20546082.028   -16459396.44144 -12813738.61442  20546084.006    20546082.003
  22653511.361    -6508983.31143  -5062497.28942  22653513.538    22653512.765
 04  5 20  3 45  0.0000000  0  6G16G20G13G 3G 1G27
  21841036.229   -14607218.74443 -11122072.17642  21841038.269    21841035.182
  22241744.488    -9826701.07343  -6226984.07942  22241746.330    22241744.961
  21018194.798   -14235665.69644 -11061654.51242  21018197.496    21018193.928
  24133205.243    -5261433.90243  -4062067.93342  24133207.691    24133208.456
  20549182.122   -16443105.74444 -12801044.56042  20549184.086    20549182.005
  22642467.381    -6567019.31143  -5107720.05342  22642469.550    22642468.870
 04  5 20  3 45 30.0000000  0  6G16G20G13G 3G 1G27
  21851292.745   -14553320.57843 -11080073.60642  21851294.735    21851291.718
  22260141.593    -9730023.38543  -6151650.88342  22260143.401    22260142.208
  21008223.998   -14288062.37244 -11102483.04942  21008226.721    21008223.235
  24119594.092    -5332961.18843  -4117803.32742  24119596.565    24119597.070
  20552343.860   -16426490.28544 -12788097.44542  20552345.878    20552343.753
  22631456.061    -6624883.81843  -5152809.22142  22631458.293    22631457.432
 04  5 20  3 46  0.0000000  0  6G16G20G13G 3G 1G27
  21861643.126   -14498928.86043 -11037690.45442  21861645.098    21861642.143
  22278596.477    -9633042.81943  -6076081.65142  22278598.168    22278597.033
  20998300.477   -14340210.59244 -11143117.98042  20998303.199    20998299.750
  24106021.462    -5404284.02243  -4173379.36542  24106024.066    24106024.437
  20555568.778   -16409543.40044 -12774892.07542  20555570.755    20555568.620
  22620478.494    -6682571.08443  -5197760.28842  22620480.695    22620479.711
 04  5 20  3 46 30.0000000  0  6G16G20G13G 3G 1G27
  21872086.120   -14444050.34043 -10994927.96542  21872088.148    21872085.150
  22297107.457    -9535766.80043  -6000282.19942  22297109.227    22297108.195
  20988423.644   -14392113.36544 -11183561.66742  20988426.420    20988422.972
  24092487.569    -5475404.11743  -4228797.48642  24092489.995    24092490.475
  20558855.901   -16392269.13444 -12761431.60442  20558857.918    20558855.782
  22609533.733    -6740085.90643  -5242576.96742  22609535.921    22609534.903
 04  5 20  3 47  0.0000000  0  6G16G20G13G 3G 1G27
  21882621.902   -14388684.72643 -10951785.92742  21882623.844    21882620.797
  22315674.817    -9438195.72443  -5924252.82942  22315676.481    22315675.354
  20978594.333   -14443766.71144 -11223810.99142  20978597.112    20978593.661
  24078993.370    -5546315.98343  -4284053.35842  24078995.734    24078995.910
  20562205.987   -16374664.38244 -12747713.62042  20562207.978    20562205.827
  22598622.170    -6797426.03543  -5287257.52742  22598624.381    22598623.578
 04  5 20  3 47 30.0000000  0  6G16G20G13G 3G 1G27
  21893249.492   -14332836.31543 -10908267.67442  21893251.501    21893248.375
  22334297.234    -9340334.59043  -5847997.43142  22334298.954    22334297.660
  20968812.276   -14495171.79444 -11263866.86742  20968815.006    20968811.538
  24065538.945    -5617018.97843  -4339146.47442  24065541.290    24065541.488
  20565618.733   -16356730.62344 -12733739.26342  20565620.721    20565618.514
  22587743.549    -6854593.73943  -5331803.70342  22587745.691    22587744.971
 04  5 20  3 48  0.0000000  0  6G16G20G13G 3G 1G27
  21903968.940   -14276504.78143 -10864372.96442  21903970.999    21903967.861
  22352974.725    -9242183.94943  -5771516.46742  22352976.463    22352975.091
  20959078.184   -14546324.67644 -11303726.23342  20959080.934    20959077.391
  24052125.339    -5687507.75043  -4394072.60142  24052127.673    24052127.907
  20569094.565   -16338464.89944 -12719506.23242  20569096.574    20569094.332
  22576898.070    -6911587.12343  -5376214.08042  22576900.175    22576899.384
 04  5 20  3 48 30.0000000  0  6G16G20G13G 3G 1G27
  21914780.081   -14219692.41543 -10820103.58542  21914782.073    21914778.838
  22371706.799    -9143746.64743  -5694812.12242  22371708.545    22371707.110
  20949392.381   -14597223.73644 -11343387.81142  20949395.150    20949391.582
  24038752.773    -5757779.59243  -4448829.77642  24038755.078    24038755.374
  20572633.720   -16319866.70044 -12705014.12642  20572635.674    20572633.447
  22566085.631    -6968406.47843  -5420488.84042  22566087.785    22566086.949
 04  5 20  3 49  0.0000000  0  6G16G20G13G 3G 1G27
  21925681.756   -14162403.71943 -10775463.04442  21925683.732    21925680.531
  22390492.387    -9045027.58243  -5617888.23942  22390494.175    22390492.800
  20939754.757   -14647869.50444 -11382852.01342  20939757.501    20939753.963
  24025422.082    -5827833.51043  -4503417.09442  24025424.224    24025424.497
  20576235.782   -16300937.42644 -12690264.03342  20576237.777    20576235.569
  22555305.916    -7025054.06143  -5464629.76242  22555308.063    22555307.194
 04  5 20  3 49 30.0000000  0  6G16G20G13G 3G 1G27
  21936674.136   -14104638.56543 -10730451.23142  21936676.108    21936672.823
  22409331.459    -8946027.61743  -5540745.46242  22409333.232    22409331.931
  20930165.970   -14698258.64044 -11422116.23842  20930168.690    20930165.191
  24012133.764    -5897664.12743  -4557830.48042  24012136.021    24012136.323
  20579901.398   -16281674.66544 -12675254.08942  20579903.364    20579901.160
  22544559.276    -7081528.02943  -5508635.41242  22544561.381    22544560.498
 04  5 20  3 50  0.0000000  0  6G16G20G13G 3G 1G27
  21947756.425   -14046400.58943 -10685070.98742  21947758.412    21947755.011
  22428223.314    -8846750.76243  -5463386.92742  22428225.048    22428223.728
  20920626.124   -14748390.88844 -11461180.29742  20920628.828    20920625.333
  23998888.220    -5967270.06843  -4612068.76742  23998890.510    23998890.936
  20583630.357   -16262078.87544 -12659984.63542  20583632.347    20583630.147
  22533845.339    -7137829.81543  -5552506.86442  22533847.428    22533846.588
 04  5 20  3 50 30.0000000  0  6G16G20G13G 3G 1G27
  21958928.939   -13987688.08843 -10639320.98342  21958930.958    21958927.578
  22447167.956    -8747196.04543  -5385811.88142  22447169.720    22447168.392
  20911136.180   -14798260.87744 -11500040.00242  20911138.873    20911135.402
  23985686.468    -6036644.53843  -4666126.63242  23985688.982    23985689.423
  20587423.557   -16242145.84744 -12644452.41142  20587425.509    20587423.245
  22523164.786    -7193956.01143  -5596241.50042  22523166.926    22523166.034
 04  5 20  3 51  0.0000000  0  6G16G20G13G 3G 1G27
  21970190.315   -13928509.23243 -10593207.59142  21970192.295    21970188.987
  22466163.735    -8647372.24943  -5308027.16142  22466165.490    22466164.263
  20901695.301   -14847872.89644 -11538698.68742  20901698.021    20901694.574
  23972528.220    -6105790.46843  -4720006.43542  23972530.847    23972531.378
  20591279.756   -16221880.88844 -12628661.52642  20591281.756    20591279.562
  22512516.543    -7249912.70243  -5639844.05142  22512518.691    22512517.790
 04  5 20  3 51 30.0000000  0  6G16G20G13G 3G 1G27
  21981540.993   -13868861.38643 -10546728.75242  21981542.907    21981539.675
  22485211.088    -8547277.23843  -5230031.08942  22485212.936    22485211.789
  20892304.749   -14897220.80644 -11577151.57742  20892307.462    20892304.003
  23959415.085    -6174699.92943  -4773701.97142  23959417.723    23959418.256
  20595200.311   -16201278.40344 -12612607.63842  20595202.286    20595200.106
  22501901.397    -7305695.17543  -5683310.83342  22501903.508    22501902.676
 04  5 20  3 52  0.0000000  0  6G16G20G13G 3G 1G27
  21992980.001   -13808748.61043 -10499887.63042  21992981.984    21992978.829
  22504309.459    -8446915.56943  -5151827.22842  22504311.178    22504310.147
  20882964.377   -14946304.70644 -11615398.74742  20882967.108    20882963.636
  23946347.194    -6243371.95743  -4827212.53042  23946349.782    23946350.080
  20599184.801   -16180339.67744 -12596291.75142  20599186.786    20599184.641
  22491319.052    -7361305.49043  -5726643.49042  22491321.128    22491320.363
 04  5 20  3 52 30.0000000  0  6G16G20G13G 3G 1G27
  22004506.861   -13748174.35543 -10452686.91342  22004508.821    22004505.733
  22523457.556    -8346291.50243  -5073418.91342  22523459.277    22523458.371
  20873674.338   -14995123.99244 -11653439.71942  20873677.068    20873673.585
  23933324.603    -6311804.66343  -4880536.59242  23933327.140    23933327.578
  20603233.139   -16159065.26744 -12579714.29042  20603235.173    20603233.064
  22480769.154    -7416744.92443  -5769842.97542  22480771.291    22480770.512
 04  5 20  3 53  0.0000000  0  6G16G20G13G 3G 1G27
  22016121.751   -13687137.65343 -10405125.84642  22016123.678    22016120.563
  22542655.619    -8245404.79543  -4994805.93842  22542657.381    22542656.463
  20864435.343   -15043674.56844 -11691271.29842  20864438.094    20864434.700
  23920349.014    -6379991.84043  -4933669.35842  23920351.470    23920351.893
  20607346.121   -16137451.46244 -12562872.35642  20607348.127    20607346.047
  22470252.347    -7472010.91043  -5812907.31042  22470254.437    22470253.598
 04  5 20  3 53 30.0000000  0  6G16G20G13G 3G 1G27
  22027823.915   -13625642.17943 -10357207.28942  22027825.821    22027822.710
  22561903.114    -8144259.35743  -4915991.35242  22561904.784    22561903.847
  20855247.689   -15091956.05444 -11728893.21042  20855250.370    20855246.927
  23907420.257    -6447932.21343  -4986609.72442  23907422.800    23907423.127
  20611523.587   -16115499.01344 -12545766.54042  20611525.561    20611523.444
  22459768.240    -7527104.81243  -5855837.56942  22459770.365    22459769.446
 04  5 20  3 54  0.0000000  0  6G16G20G13G 3G 1G27
  22039612.966   -13563690.36143 -10308933.14642  22039614.846    22039611.719
  22581199.238    -8042858.22343  -4836977.50642  22581200.957    22581199.836
  20846111.486   -15139967.00444 -11766304.31742  20846114.157    20846110.665
  23894539.158    -6515622.87443  -5039355.60442  23894541.491    23894541.627
  20615765.455   -16093207.56844 -12528396.56542  20615767.495    20615765.367
  22449316.855    -7582026.99843  -5898634.02642  22449318.989    22449318.101
 04  5 20  3 54 30.0000000  0  6G16G20G13G 3G 1G27
  22051487.790   -13501288.19143 -10260308.07742  22051489.620    22051486.351
  22600542.573    -7941207.96343  -4757769.54642  22600544.380    22600543.290
  20837026.459   -15187709.40644 -11803506.16842  20837029.121    20837025.520
  23881705.415    -6583064.45343  -5091907.33742  23881707.694    23881707.776
  20620071.302   -16070580.16244 -12510764.81742  20620073.342    20620071.208
  22438897.483    -7636781.40043  -5941299.70642  22438899.589    22438898.781
 04  5 20  3 55  0.0000000  0  6G16G20G13G 3G 1G27
  22063449.071   -13438430.93843 -10211328.40342  22063451.003    22063447.677
  22619934.257    -7839304.78843  -4678364.52542  22619935.971    22619934.897
  20827993.989   -15235175.07244 -11840492.38442  20827996.681    20827993.062
  23868920.869    -6650247.09243  -5144257.34042  23868923.023    23868922.898
  20624442.475   -16047609.54444 -12492865.62342  20624444.521    20624442.380
  22428511.244    -7691361.43843  -5983829.53942  22428513.359    22428512.416
 04  5 20  3 55 30.0000000  0  6G16G20G13G 3G 1G27
  22075496.198   -13375122.91143 -10161997.46842  22075498.089    22075494.726
  22639373.066    -7737153.38843  -4598766.07542  22639374.861    22639373.737
  20819014.168   -15282364.18544 -11877263.09542  20819016.862    20819013.250
  23856185.749    -6717169.85843  -5196404.80742  23856187.835    23856187.789
  20628878.750   -16024297.01744 -12474700.02542  20628880.785    20628878.600
  22418157.662    -7745769.26443  -6026225.17242  22418159.815    22418158.826
 04  5 20  3 56  0.0000000  0  6G16G20G13G 3G 1G27
  22087628.327   -13311368.46743 -10112318.67542  22087630.191    22087626.880
  22658858.155    -7634758.37543  -4518977.78042  22658860.059    22658858.913
  20810086.957   -15329277.22144 -11913818.68942  20810089.648    20810086.006
  23843500.116    -6783831.83943  -5248349.09342  23843502.243    23843502.393
  20633379.754   -16000644.05544 -12456269.14042  20633381.800    20633379.550
  22407836.553    -7800006.96343  -6068488.24142  22407838.699    22407837.625
 04  5 20  3 56 30.0000000  0  6G16G20G13G 3G 1G27
  22099844.809   -13247169.94843 -10062293.85642  22099846.721    22099843.499
  22678389.132    -7532122.64343  -4439001.93342  22678391.040    22678389.870
  20801212.517   -15375912.36944 -11950157.74142  20801215.215    20801211.607
  23830864.807    -6850229.95243  -5300087.70942  23830866.973    23830867.335
  20637945.580   -15976650.03144 -12437572.49042  20637947.670    20637945.412
  22397547.633    -7854074.82943  -6110618.97242  22397549.821    22397548.776
 04  5 20  3 57  0.0000000  0  6G16G20G13G 3G 1G27
  22112145.775   -13182528.58743 -10011923.96342  22112147.631    22112144.342
  22697965.683    -7429248.11543  -4358840.02542  22697967.498    22697966.206
  20792391.486   -15422267.33244 -11986278.48442  20792394.200    20792390.538
  23818280.642    -6916360.06943  -5351617.58642  23818282.740    23818283.243
  20642576.758   -15952313.18644 -12418608.71742  20642578.813    20642576.510
  22387291.436    -7907971.88343  -6152616.63442  22387293.571    22387292.474
 04  5 20  3 57 30.0000000  0  6G16G20G13G 3G 1G27
  22124530.532   -13117445.95043  -9961210.21042  22124532.471    22124529.197
  22717587.039    -7326137.02943  -4278493.76542  22717589.014    22717587.563
  20783624.165   -15468339.74844 -12022179.04942  20783626.867    20783623.247
  23805748.050    -6982218.94543  -5402936.04442  23805750.190    23805750.967
  20647273.345   -15927632.44944 -12399376.97142  20647275.388    20647273.069
  22377067.597    -7961697.90443  -6194481.00342  22377069.720    22377068.654
 04  5 20  3 58  0.0000000  0  6G16G20G13G 3G 1G27
  22136998.731   -13051925.14643  -9910155.02542  22137000.678    22136997.341
  22737252.878    -7222792.64043  -4197965.72842  22737254.781    22737253.302
  20774910.755   -15514128.82444 -12057858.83442  20774913.445    20774909.857
  23793267.449    -7047804.36043  -5454041.44842  23793269.677    23793270.404
  20652035.321   -15902608.11344 -12379877.49042  20652037.358    20652035.078
  22366876.287    -8015253.72643  -6236212.75642  22366878.394    22366877.173
 04  5 20  3 58 30.0000000  0  6G16G20G13G 3G 1G27
  22149549.550   -12985969.72243  -9858761.17542  22149551.479    22149548.276
  22756962.312    -7119219.26043  -4117259.23542  22756964.173    22756962.659
  20766251.334   -15559634.17144 -12093317.53342  20766254.008    20766250.457
  23780839.328    -7113114.50543  -5504932.36242  23780841.441    23780842.179
  20656862.422   -15877241.00144 -12360110.90842  20656864.500    20656862.322
  22356717.025    -8068640.92043  -6277813.08142  22356719.193    22356717.997
 04  5 20  3 59  0.0000000  0  6G16G20G13G 3G 1G27
  22162183.622   -12919576.89143  -9807026.49242  22162185.557    22162182.394
  22776715.652    -7015414.64943  -4036372.58342  22776717.494    22776716.124
  20757647.294   -15604848.96144 -12128549.81942  20757649.955    20757646.375
  23768465.112    -7178141.08743  -5555602.31642  23768467.344    23768467.961
  20661756.048   -15851525.20644 -12340072.63042  20661758.091    20661755.869
  22346590.709    -8121854.38643  -6319278.04142  22346592.865    22346591.759
 04  5 20  3 59 30.0000000  0  6G16G20G13G 3G 1G27
  22174899.140   -12852756.53943  -9754958.66642  22174901.057    22174897.809
  22796510.983    -6911389.13043  -3955313.78442  22796512.846    22796511.605
  20749097.335   -15649779.32744 -12163560.47642  20749099.991    20749096.403
  23756143.882    -7242888.94243  -5606055.03242  23756146.100    23756146.755
  20666714.663   -15825467.66744 -12319768.05342  20666716.695    20666714.404
  22336496.132    -8174902.04843  -6360613.82642  22336498.229    22336497.060
 04  5 20  4  0  0.0000000  0  6G16G20G13G 3G 1G27
  22187696.533   -12785506.69443  -9702556.17942  22187698.440    22187695.065
  22816348.802    -6807141.24243  -3874081.70642  22816350.629    22816349.400
  20740602.649   -15694419.03244 -12198344.64742  20740605.351    20740601.686
  23743877.147    -7307350.55143  -5656284.74842  23743879.380    23743879.872
  20671739.214   -15799063.62544 -12299193.48442  20671741.226    20671738.938
  22326433.832    -8227779.66443  -6401817.09642  22326435.944    22326434.683
 04  5 20  4  0 30.0000000  0  6G16G20G13G 3G 1G27
  22200574.647   -12717830.89743  -9649821.77742  22200576.665    22200573.418
  22836228.189    -6702674.97143  -3792679.49442  22836229.943    22836228.824
  20732163.329   -15738768.04144 -12232902.30842  20732166.027    20732162.340
  23731665.210    -7371524.51943  -5706290.30742  23731667.491    23731667.703
  20676829.433   -15772314.07344 -12278349.67942  20676831.456    20676829.220
  22316403.561    -8280488.77443  -6442889.04842  22316405.644    22316404.376
 04  5 20  4  1  0.0000000  0  6G16G20G13G 3G 1G27
  22213533.677   -12649730.57143  -9596756.57342  22213535.582    22213532.429
  22856148.683    -6597992.08143  -3711108.47042  22856150.466    22856149.338
  20723779.870   -15782823.29444 -12267231.06842  20723782.593    20723778.886
  23719508.762    -7435406.55243  -5756068.42242  23719511.072    23719511.012
  20681985.821   -15745217.02844 -12257235.10842  20681987.847    20681985.613
  22306405.568    -8333028.30243  -6483828.86642  22306407.669    22306406.345
 04  5 20  4  1 30.0000000  0  6G16G20G13G 3G 1G27
  22226573.116   -12581208.01143  -9543362.37342  22226574.979    22226571.832
  22876109.837    -6493095.11843  -3629370.63842  22876111.693    22876110.592
  20715452.633   -15826583.22344 -12301329.70542  20715455.366    20715451.649
  23707408.542    -7498993.76043  -5805616.78542  23707410.815    23707410.581
  20687208.463   -15717771.84244 -12235849.24942  20687210.488    20687208.232
  22296439.778    -8385398.34643  -6524636.62842  22296441.876    22296440.493
 04  5 20  4  2  0.0000000  0  6G16G20G13G 3G 1G27
  22239692.646   -12512264.73143  -9489640.31742  22239694.541    22239691.184
  22896111.325    -6387986.56443  -3547467.93042  22896113.133    22896112.229
  20707181.934   -15870045.62744 -12335196.49942  20707184.684    20707181.050
  23695364.913    -7562282.86943  -5854932.84742  23695367.263    23695366.935
  20692497.522   -15689977.67144 -12214191.46042  20692499.529    20692497.246
  22286506.329    -8437598.66443  -6565312.12942  22286508.437    22286507.015
 04  5 20  4  2 30.0000000  0  6G16G20G13G 3G 1G27
  22252891.076   -12442905.92643  -9435594.48742  22252893.060    22252889.713
  22916151.726    -6282671.83543  -3465404.54642  22916153.635    22916152.991
  20698967.761   -15913211.51244 -12368832.24142  20698970.477    20698966.820
  23683378.362    -7625273.15643  -5904016.07742  23683380.585    23683380.150
  20697852.573   -15661836.50944 -12192263.28442  20697854.614    20697852.369
  22276604.645    -8489631.91243  -6605857.42442  22276606.778    22276605.441
 04  5 20  4  3  0.0000000  0  6G16G20G13G 3G 1G27
  22266168.635   -12373131.74343  -9381224.99242  22266170.524    22266167.282
  22936231.802    -6177151.21043  -3383180.72842  22936233.515    22936232.915
  20690810.780   -15956076.78844 -12402233.73742  20690813.484    20690809.793
  23671449.376    -7687959.24943  -5952862.28542  23671451.692    23671451.229
  20703274.297   -15633345.39844 -12170062.42242  20703276.296    20703274.070
  22266735.089    -8541496.15943  -6646271.04842  22266737.265    22266735.959
 04  5 20  4  3 30.0000000  0  6G16G20G13G 3G 1G27
  22279525.319   -12302941.92543  -9326531.61842  22279527.176    22279523.943
  22956350.920    -6071425.36843  -3300796.97842  22956352.609    22956351.928
  20682711.731   -15998637.56744 -12435397.96642  20682714.451    20682710.738
  23659579.284    -7750336.42243  -6001467.77742  23659581.485    23659581.145
  20708763.085   -15604501.52144 -12147586.67142  20708765.117    20708762.890
  22256898.124    -8593189.19143  -6686551.27142  22256900.254    22256898.984
 04  5 20  4  4  0.0000000  0  6G16G20G13G 3G 1G27
  22292959.445   -12232344.67943  -9271520.77242  22292961.323    22292958.158
  22976507.209    -5965502.77443  -3218259.94242  22976509.020    22976508.480
  20674669.886   -16040897.72844 -12468327.93942  20674672.653    20674668.872
  23647767.505    -7812407.22643  -6049834.56142  23647769.643    23647769.362
  20714318.056   -15575310.06644 -12124840.07942  20714320.117    20714317.870
  22247092.793    -8644716.75043  -6726702.55042  22247094.872    22247093.566
 04  5 20  4  4 30.0000000  0  6G16G20G13G 3G 1G27
  22306470.993   -12161341.27543  -9216193.43742  22306472.793    22306469.662
  22996700.864    -5859385.13643  -3135570.90542  22996702.584    22996702.029
  20666685.784   -16082854.47544 -12501021.48042  20666688.561    20666684.770
  23636014.738    -7874167.67143  -6097959.49042  23636016.875    23636016.719
  20719939.458   -15545769.42644 -12101821.39742  20719941.486    20719939.287
  22237319.043    -8696077.94643  -6766724.19642  22237321.138    22237319.833
 04  5 20  4  5  0.0000000  0  6G16G20G13G 3G 1G27
  22320060.349   -12089928.85043  -9160547.38242  22320062.225    22320059.127
  23016932.004    -5753070.10243  -3052728.06742  23016933.744    23016933.116
  20658760.706   -16124501.04944 -12533473.33542  20658763.488    20658759.698
  23624322.341    -7935609.59943  -6145836.23542  23624324.614    23624324.679
  20725628.334   -15515873.98744 -12078526.24842  20725630.395    20725628.272
  22227577.931    -8747267.60343  -6806612.17742  22227580.027    22227578.780
 04  5 20  4  5 30.0000000  0  6G16G20G13G 3G 1G27
  22333725.361   -12018118.48043  -9104591.24742  22333727.273    22333724.249
  23037198.589    -5646568.99843  -2969740.23942  23037200.331    23037199.658
  20650893.256   -16165844.37844 -12565688.88642  20650896.057    20650892.267
  23612689.936    -7996738.63043  -6193469.11842  23612692.001    23612692.113
  20731383.272   -15485631.80144 -12054960.90942  20731385.293    20731383.235
  22217867.810    -8798294.75943  -6846373.53842  22217869.887    22217868.527
 04  5 20  4  6  0.0000000  0  6G16G20G13G 3G 1G27
  22347466.723   -11945907.31643  -9048322.80842  22347468.661    22347465.617
  23057501.111    -5539879.36243  -2886605.51842  23057502.795    23057502.160
  20643084.909   -16206877.60044 -12597662.79642  20643087.705    20643083.885
  23601118.740    -8057546.61343  -6240851.88842  23601120.744    23601120.641
  20737205.277   -15455037.20344 -12031120.96042  20737207.311    20737205.223
  22208189.500    -8849154.31743  -6886004.30442  22208191.604    22208190.226
 04  5 20  4  6 30.0000000  0  6G16G20G13G 3G 1G27
  22361284.246   -11873295.03843  -8991741.79642  22361286.296    22361283.323
  23077839.322    -5433001.22343  -2803323.90242  23077841.151    23077840.386
  20635336.397   -16247596.11444 -12629391.47842  20635339.208    20635335.413
  23589609.529    -8118027.84943  -6287979.99142  23589611.645    23589611.279
  20743094.897   -15424086.87144 -12007003.80842  20743096.939    20743094.850
  22198543.568    -8899843.59443  -6925502.38242  22198545.698    22198544.233
 04  5 20  4  7  0.0000000  0  6G16G20G13G 3G 1G27
  22375176.765   -11800289.27843  -8934854.19942  22375178.687    22375175.901
  23098212.022    -5325942.68443  -2719901.70242  23098213.809    23098212.875
  20627647.168   -16288003.64444 -12660877.83942  20627649.931    20627646.076
  23578162.048    -8178184.48043  -6334855.19742  23578164.265    23578163.873
  20749051.283   -15392785.61744 -11982613.22442  20749053.329    20749051.162
  22188929.101    -8950367.88743  -6964871.88742  22188931.166    22188929.606
 04  5 20  4  7 30.0000000  0  6G16G20G13G 3G 1G27
  22389143.970   -11726890.90443  -8877660.65142  22389145.861    22389143.081
  23118618.619    -5218705.12043  -2636340.00542  23118620.445    23118619.581
  20620017.501   -16328097.19244 -12692119.53842  20620020.281    20620016.473
  23566777.237    -8238012.40743  -6381474.24042  23566779.349    23566778.844
  20755074.821   -15361131.45944 -11957947.64642  20755076.892    20755074.720
  22179346.112    -9000726.06543  -7004111.96142  22179348.220    22179346.684
 04  5 20  4  8  0.0000000  0  6G16G20G13G 3G 1G27
  22403185.591   -11653101.98243  -8820162.78442  22403187.522    22403184.623
  23139058.834    -5111291.00143  -2552640.69742  23139060.739    23139059.790
  20612448.082   -16367874.55644 -12723114.85142  20612450.818    20612447.051
  23555455.279    -8297508.30943  -6427834.54942  23555457.512    23555457.088
  20761165.736   -15329123.69644 -11933006.52642  20761167.756    20761165.569
  22169794.920    -9050917.85643  -7043222.38842  22169797.007    22169795.567
 04  5 20  4  8 30.0000000  0  6G16G20G13G 3G 1G27
  22417301.078   -11578924.59743  -8762362.22242  22417303.021    22417300.039
  23159532.295    -5003702.68843  -2468805.67142  23159534.152    23159533.052
  20604939.318   -16407333.16844 -12753861.78342  20604942.055    20604938.271
  23544197.349    -8356668.71543  -6473933.47742  23544199.507    23544199.140
  20767324.073   -15296761.24544 -11907789.01842  20767326.096    20767323.933
  22160275.368    -9100942.86343  -7082202.84542  22160277.472    22160276.101
 04  5 20  4  9  0.0000000  0  6G16G20G13G 3G 1G27
  22431490.016   -11504361.22643  -8704260.88942  22431491.937    22431488.905
  23180038.348    -4895942.93843  -2384837.07242  23180040.118    23180038.903
  20597491.483   -16446471.87344 -12784359.44342  20597494.212    20597490.384
  23533003.690    -8415491.33043  -6519769.15442  23533005.811    23533005.577
  20773549.956   -15264044.03244 -11882295.07842  20773551.971    20773549.777
  22150787.522    -9150801.64943  -7121053.77642  22150789.617    22150788.269
 04  5 20  4  9 30.0000000  0  6G16G20G13G 3G 1G27
  22445751.267   -11429417.62143  -8645863.27142  22445753.220    22445750.228
  23200575.856    -4788017.93043  -2300739.72442  23200577.634    23200576.400
  20590104.091   -16485292.55444 -12814609.28342  20590106.837    20590103.085
  23521874.115    -8473976.34543  -6565341.80242  23521876.295    23521876.153
  20779842.768   -15230974.86544 -11856526.88942  20779844.788    20779842.651
  22141330.702    -9200497.49743  -7159777.75142  22141332.790    22141331.402
 04  5 20  4 10  0.0000000  0  6G16G20G13G 3G 1G27
  22460085.600   -11354090.64843  -8587166.92742  22460087.513    22460084.541
  23221145.148    -4679924.96443  -2216511.46742  23221147.047    23221145.777
  20582778.705   -16523787.72144 -12844605.48542  20582781.457    20582777.622
  23510810.646    -8532115.48243  -6610644.94242  23510812.858    23510812.498
  20786203.812   -15197547.69744 -11830479.75042  20786205.790    20786203.616
  22131905.936    -9250025.08843  -7198370.62442  22131908.006    22131906.627
 04  5 20  4 10 30.0000000  0  6G16G20G13G 3G 1G27
  22474491.803   -11278385.31843  -8528175.75742  22474493.823    22474490.824
  23241745.548    -4571669.60743  -2132156.69242  23241747.365    23241746.122
  20575515.096   -16561958.08844 -12874348.59542  20575517.852    20575513.984
  23499812.720    -8589908.41143  -6655678.30542  23499815.065    23499814.682
  20792632.537   -15163764.68144 -11804155.31442  20792634.528    20792632.222
  22122512.565    -9299387.13843  -7236834.49542  22122514.660    22122513.270
 04  5 20  4 11  0.0000000  0  6G16G20G13G 3G 1G27
  22488969.545   -11202304.30343  -8468891.84442  22488971.535    22488968.588
  23262376.228    -4463254.36543  -2047677.31742  23262378.102    23262377.032
  20568313.537   -16599802.56244 -12903837.75842  20568316.264    20568312.381
  23488881.499    -8647352.38943  -6700439.73942  23488883.715    23488883.407
  20799129.060   -15129625.34044 -11777553.23342  20799131.071    20799128.639
  22113150.709    -9348583.92343  -7275169.59942  22113152.750    22113151.327
 04  5 20  4 11 30.0000000  0  6G16G20G13G 3G 1G27
  22503517.925   -11125851.42843  -8409318.17542  22503519.992    22503516.997
  23283036.487    -4354683.61443  -1963076.76942  23283038.413    23283037.689
  20561174.130   -16637320.44944 -12933072.43542  20561176.848    20561172.958
  23478016.969    -8704446.08543  -6744928.25342  23478019.151    23478018.694
  20805693.129   -15095130.81744 -11750674.38342  20805695.152    20805692.747
  22103820.064    -9397617.10343  -7313377.21842  22103822.081    22103820.574
 04  5 20  4 12  0.0000000  0  6G16G20G13G 3G 1G27
  22518137.047   -11049028.07143  -8349455.82942  22518138.913    22518136.001
  23303725.961    -4245959.33443  -1878356.59542  23303727.792    23303727.488
  20554097.242   -16674509.37544 -12962050.78042  20554099.979    20554096.151
  23467219.870    -8761185.81643  -6789140.94342  23467222.045    23467221.347
  20812325.029   -15060279.87144 -11723517.80542  20812327.056    20812324.763
  22094520.495    -9446485.92943  -7351456.76042  22094522.580    22094521.062
 04  5 20  4 12 30.0000000  0  6G16G20G13G 3G 1G27
  22532826.092   -10971836.71143  -8289306.71942  22532827.984    22532824.976
  23324444.206    -4137084.21443  -1793518.87942  23324445.947    23324445.841
  20547083.349   -16711367.59044 -12990771.43742  20547086.096    20547082.256
  23456490.437    -8817568.54543  -6833075.43042  23456492.718    23456491.962
  20819024.847   -15025071.98244 -11696083.08842  20819026.899    20819024.696
  22085252.312    -9495190.34743  -7389408.20142  22085254.371    22085252.788
 04  5 20  4 13  0.0000000  0  6G16G20G13G 3G 1G27
  22547584.968   -10894278.15743  -8228871.48742  22547586.866    22547583.736
  23345191.149    -4028059.33443  -1708564.46542  23345192.837    23345192.792
  20540133.072   -16747891.70344 -13019231.76742  20540135.800    20540131.887
  23445829.670    -8873589.90743  -6876728.34542  23445832.113    23445831.423
  20825793.046   -14989505.16244 -11668368.68042  20825795.078    20825792.840
  22076015.702    -9543728.95143  -7427230.42242  22076017.765    22076016.121
 04  5 20  4 13 30.0000000  0  6G16G20G13G 3G 1G27
  22562413.178   -10816355.57943  -8168152.58742  22562415.111    22562411.772
  23365965.833    -3918888.30043  -1623496.14442  23365967.635    23365967.289
  20533246.533   -16784080.70144 -13047430.96842  20533249.238    20533245.355
  23435238.259    -8929247.80043  -6920098.00342  23435240.655    23435239.981
  20832629.464   -14953579.72344 -11640374.83242  20832631.507    20832629.205
  22066810.436    -9592102.52443  -7464924.05742  22066812.530    22066810.839
 04  5 20  4 14  0.0000000  0  6G16G20G13G 3G 1G27
  22577309.516   -10738075.04043  -8107154.76442  22577311.392    22577308.058
  23386767.144    -3809577.12043  -1538318.66042  23386769.009    23386768.485
  20526423.457   -16819936.24444 -13075370.32742  20526426.171    20526422.218
  23424716.222    -8984542.79143  -6963184.94342  23424718.479    23424717.496
  20839533.457   -14917298.72244 -11612103.92242  20839535.516    20839533.173
  22057635.928    -9640314.76043  -7502491.98842  22057637.994    22057636.242
 04  5 20  4 14 30.0000000  0  6G16G20G13G 3G 1G27
  22592274.216   -10659434.98843  -8045876.79842  22592276.071    22592272.834
  23407595.250    -3700125.00043  -1453031.31642  23407597.064    23407596.298
  20519664.776   -16855452.94844 -13103045.65542  20519667.528    20519663.584
  23414263.908    -9039468.63543  -7005984.22542  23414266.357    23414265.264
  20846506.033   -14880658.02644 -11583552.74242  20846508.042    20846505.637
  22048492.764    -9688361.99743  -7539931.34442  22048494.864    22048493.053
 04  5 20  4 15  0.0000000  0  6G16G20G13G 3G 1G27
  22607306.393   -10580439.86143  -7984322.17442  22607308.252    22607305.195
  23428449.219    -3590536.43643  -1367637.68842  23428451.055    23428450.266
  20512970.642   -16890630.90244 -13130457.02442  20512973.356    20512969.434
  23403882.127    -9094023.99043  -7048494.79442  23403884.571    23403883.685
  20853546.714   -14843659.06144 -11554722.38742  20853548.721    20853546.332
  22039380.659    -9736246.23543  -7577243.68842  22039382.744    22039380.968
 04  5 20  4 15 30.0000000  0  6G16G20G13G 3G 1G27
  22622406.102   -10501090.20443  -7922491.28142  22622407.978    22622405.076
  23449328.932    -3480812.54943  -1282138.60742  23449330.735    23449330.005
  20506341.488   -16925466.83444 -13157601.89242  20506344.242    20506340.344
  23393571.774    -9148204.68943  -7090713.40242  23393574.214    23393573.285
  20860655.939   -14806299.72844 -11525611.22042  20860657.966    20860655.594
  22030299.790    -9783965.71743  -7614427.65142  22030301.949    22030300.177
 04  5 20  4 16  0.0000000  0  6G16G20G13G 3G 1G27
  22637572.011   -10421392.48843  -7860389.15442  22637573.943    22637570.953
  23470233.217    -3370959.87643  -1196539.15542  23470235.041    23470234.378
  20499777.084   -16959962.85044 -13184481.88642  20499779.830    20499775.955
  23383332.599    -9202011.73543  -7132640.85442  23383334.891    23383333.994
  20867833.064   -14768583.47244 -11496221.93742  20867835.111    20867832.760
  22021249.703    -9831524.47343  -7651486.38642  22021251.777    22021249.963
 04  5 20  4 16 30.0000000  0  6G16G20G13G 3G 1G27
  22652804.637   -10341345.18243  -7798014.62642  22652806.520    22652803.373
  23491162.249    -3260977.16843  -1110838.41242  23491164.066    23491163.406
  20493278.402   -16994113.44844 -13211092.72142  20493281.132    20493277.312
  23373165.810    -9255438.24843  -7174271.81742  23373168.055    23373167.015
  20875078.925   -14730506.10344 -11466551.25842  20875080.950    20875078.609
  22012230.788    -9878918.77843  -7688416.95642  22012232.877    22012231.160
 04  5 20  4 17  0.0000000  0  6G16G20G13G 3G 1G27
  22668102.787   -10260953.15443  -7735371.48342  22668104.698    22668101.554
  23512115.036    -3150869.61243  -1025040.31642  23512116.921    23512116.210
  20486845.444   -17027919.08044 -13237434.75842  20486848.150    20486844.269
  23363071.567    -9308483.98143  -7215606.08142  23363073.786    23363072.711
  20882393.124   -14692069.59744 -11436600.73342  20882395.167    20882392.833
  22003242.806    -9926151.26543  -7725221.45042  22003244.842    22003242.991
 04  5 20  4 17 30.0000000  0  6G16G20G13G 3G 1G27
  22683466.285   -10180217.96443  -7672460.94642  22683468.189    22683465.056
  23533091.246    -3040639.27343   -939146.59042  23533093.028    23533092.550
  20480478.548   -17061377.36044 -13263506.13642  20480481.262    20480477.282
  23353050.399    -9361145.20643  -7256640.69942  23353052.585    23353051.590
  20889775.977   -14653272.89044 -11406369.54142  20889777.989    20889775.610
  21994285.560    -9973221.01043  -7761899.10742  21994287.668    21994285.947
 04  5 20  4 18  0.0000000  0  7G16G19G20G13G 3G 1G27
  22698894.961   -10099139.86043  -7609283.20042  22698896.928    22698893.814
  24621354.606     -754234.66253   -552317.02852  24621352.050    24621350.604
  23554090.766    -2930286.53643   -853157.48042  23554092.366    23554092.051
  20474178.575   -17094484.05944 -13289303.55442  20474181.273    20474177.227
  23343103.286    -9413417.03943  -7297371.90542  23343105.463    23343104.576
  20897227.852   -14614113.21544 -11375855.51042  20897229.897    20897227.506
  21985359.898   -10020125.85043  -7798448.28742  21985361.957    21985360.234
 04  5 20  4 18 30.0000000  0  7G16G19G20G13G 3G 1G27
  22714386.039   -10017734.32343  -7545850.31342  22714387.988    22714384.814
  24605512.416     -837474.96443   -617179.44842  24605513.777    24605511.308
  23575110.545    -2819827.10143   -767085.25742  23575112.116    23575111.821
  20467943.302   -17127250.51144 -13314835.83642  20467945.997    20467941.910
  23333228.386    -9465309.77543  -7337807.71342  23333230.566    23333229.587
  20904746.277   -14574603.26944 -11345068.54542  20904748.367    20904746.022
  21976463.093   -10066878.98743  -7834879.25142  21976465.130    21976463.360
 04  5 20  4 19  0.0000000  0  7G16G19G20G13G 3G 1G27
  22729942.327    -9935985.25043  -7482149.72942  22729944.320    22729941.052
  24589681.092     -920664.91743   -682002.62342  24589683.074    24589680.659
  23596153.636    -2709245.03643   -680917.47242  23596155.218    23596154.835
  20461776.636   -17159656.73244 -13340087.42442  20461779.324    20461775.208
  23323429.627    -9516802.43543  -7377931.78142  23323431.917    23323430.930
  20912334.962   -14534724.37844 -11313994.08742  20912337.025    20912334.715
  21967598.591   -10113462.02943  -7871177.68142  21967600.648    21967598.806
 04  5 20  4 19 30.0000000  0  7G16G19G20G13G 3G 1G27
  22745561.933    -9853902.88643  -7418189.45542  22745563.949    22745560.722
  24573859.104    -1003809.16443   -746790.18942  24573860.948    24573858.942
  23617217.862    -2598551.15143   -594662.55542  23617219.522    23617219.085
  20455677.376   -17191708.60744 -13365062.90342  20455680.070    20455675.924
  23313705.870    -9567899.92243  -7417747.92042  23313708.143    23313707.410
  20919992.450   -14494483.91344 -11282637.87542  20919994.525    20919992.245
  21958764.940   -10159882.95843  -7907349.80142  21958766.943    21958765.135
 04  5 20  4 20  0.0000000  0  7G16G19G20G13G 3G 1G27
  22761244.423    -9771490.82243  -7353972.26942  22761246.402    22761243.173
  24558046.051    -1086905.67143   -811540.53042  24558048.064    24558046.341
  23638303.060    -2487749.09943   -508323.30842  23638304.750    23638303.951
  20449645.567   -17223405.63244 -13389761.85942  20449648.259    20449644.202
  23304057.816    -9618600.57243  -7457254.83342  23304060.072    23304059.303
  20927718.622   -14453882.71244 -11251000.57842  20927720.701    20927718.368
  21949961.894   -10206142.82943  -7943396.39742  21949963.954    21949962.246
 04  5 20  4 20 30.0000000  0  7G16G19G20G13G 3G 1G27
  22776989.292    -9688751.60143  -7289500.14942  22776991.214    22776987.917
  24542242.723    -1169951.45643   -876251.34342  24542244.979    24542243.201
  23659407.883    -2376841.87343   -421902.19142  23659409.606    23659408.946
  20443681.619   -17254746.22944 -13414183.07842  20443684.334    20443680.312
  23294485.681    -9668901.87143  -7496450.54842  23294487.974    23294487.279
  20935513.488   -14412920.50944 -11219081.97542  20935515.534    20935513.226
  21941189.548   -10252241.85143  -7979317.68142  21941191.557    21941189.824
 04  5 20  4 21  0.0000000  0  7G16G19G20G13G 3G 1G27
  22792795.986    -9605686.80643  -7224774.33042  22792797.950    22792794.659
  24526449.742    -1252942.54943   -940919.53942  24526452.131    24526450.457
  23680532.486    -2265831.22643   -335400.44842  23680534.202    23680533.648
  20437785.999   -17285728.01444 -13438324.71742  20437788.683    20437784.581
  23284990.220    -9718800.50843  -7535332.51742  23284992.547    23284991.777
  20943377.175   -14371596.19044 -11186881.21042  20943379.278    20943376.950
  21932447.865   -10298179.38243  -8015113.10942  21932449.884    21932448.118
 04  5 20  4 21 30.0000000  0  7G16G19G20G13G 3G 1G27
  22808663.967    -9522299.39643  -7159797.13942  22808666.041    22808662.765
  24510667.586    -1335876.36943  -1005543.14542  24510670.036    24510668.359
  23701676.316    -2154720.10743   -248820.44042  23701677.965    23701677.591
  20431958.948   -17316349.38344 -13462185.49942  20431961.654    20431957.474
  23275571.881    -9768293.93743  -7573898.72142  23275574.205    23275573.371
  20951309.825   -14329909.73744 -11154398.24942  20951311.868    20951309.542
  21923736.893   -10343955.71043  -8050782.92742  21923738.885    21923737.056
 04  5 20  4 22  0.0000000  0  7G16G19G20G13G 3G 1G27
  22824592.988    -9438592.73643  -7094571.19042  22824594.921    22824591.729
  24494897.022    -1418751.35843  -1070120.88142  24494899.222    24494897.543
  23722838.645    -2043512.51143   -162165.24442  23722840.205    23722839.923
  20426200.507   -17346609.72544 -13485764.96542  20426203.236    20426199.111
  23266231.071    -9817380.71243  -7612148.05442  23266233.237    23266232.259
  20959311.147   -14287862.23344 -11121633.95642  20959313.190    20959310.914
  21915056.317   -10389572.16443  -8086328.17342  21915058.372    21915056.521
 04  5 20  4 22 30.0000000  0  7G16G19G20G13G 3G 1G27
  22840582.490    -9354567.60043  -7029097.07642  22840584.395    22840581.224
  24479138.557    -1501562.06443  -1134648.54842  24479140.670    24479139.046
  23744018.797    -1932209.24643    -75435.45342  23744020.522    23744020.201
  20420511.518   -17376505.56744 -13509060.40242  20420514.243    20420510.081
  23256968.349    -9866056.17343  -7650076.91642  23256970.540    23256969.483
  20967381.596   -14245451.55044 -11088586.66742  20967383.609    20967381.412
  21906406.521   -10435026.89143  -8121747.40542  21906408.571    21906406.735
 04  5 20  4 23  0.0000000  0  7G16G19G20G13G 3G 1G27
  22856631.377    -9270229.79643  -6963379.31142  22856633.339    22856630.127
  24463392.267    -1584308.52343  -1199126.16642  24463394.355    24463393.065
  23765216.161    -1820816.39043     11364.10242  23765217.911    23765217.629
  20414891.520   -17406038.77044 -13532073.26542  20414894.236    20414890.103
  23247783.837    -9914321.27543  -7687686.01442  23247786.016    23247784.922
  20975520.649   -14202680.82944 -11055258.83442  20975522.619    20975520.413
  21897786.949   -10480323.57443  -8157043.48942  21897788.917    21897787.028
 04  5 20  4 23 30.0000000  0  7G16G19G20G13G 3G 1G27
  22872740.078    -9185577.46643  -6897416.44342  22872742.084    22872738.886
  24447659.740    -1666983.54843  -1263548.11542  24447661.607    24447660.591
  23786431.003    -1709332.18243     98234.89842  23786432.662    23786432.449
  20409341.637   -17435203.17344 -13554798.74242  20409344.356    20409340.334
  23238678.657    -9962169.12543  -7724969.97642  23238680.937    23238679.588
  20983729.110   -14159545.38344 -11021646.80642  20983731.085    20983728.752
  21889198.079   -10525457.80443  -8192212.98442  21889200.097    21889198.204
 04  5 20  4 24  0.0000000  0  7G16G19G20G13G 3G 1G27
  22888907.747    -9100616.35643  -6831212.99742  22888909.683    22888906.547
  24431940.520    -1749587.66643  -1327914.80342  24431942.379    24431941.474
  23807661.853    -1597762.93343    185171.93342  23807663.585    23807663.209
  20403861.702   -17464000.50744 -13577238.19542  20403864.405    20403860.366
  23229652.691   -10009600.52843  -7761929.43242  23229655.110    23229653.547
  20992006.318   -14116048.38844 -10987753.04942  20992008.279    20992005.956
  21880639.477   -10570433.27243  -8227258.75042  21880641.503    21880639.639
 04  5 20  4 24 30.0000000  0  7G16G19G20G13G 3G 1G27
  22905133.907    -9015346.79943  -6764769.17742  22905136.021    22905132.858
  24416235.731    -1832115.51143  -1392222.07742  24416237.661    24416236.768
  23828909.153    -1486109.09243    272174.83342  23828910.706    23828910.624
  20398452.322   -17492427.15144 -13599388.80642  20398454.979    20398450.983
  23220706.657   -10056610.96943  -7798560.86342  23220709.208    23220707.461
  21000352.787   -14072187.48644 -10953575.72142  21000354.779    21000352.402
  21872111.571   -10615247.69743  -8262179.03242  21872113.575    21872111.699
 04  5 20  4 25  0.0000000  0  7G16G19G20G13G 3G 1G27
  22921417.947    -8929773.12543  -6698088.39742  22921420.135    22921417.022
  24400546.053    -1914565.80243  -1456468.88442  24400547.877    24400546.700
  23850171.343    -1374375.10243    359240.21442  23850173.015    23850173.104
  20393113.499   -17520482.79944 -13621250.33542  20393116.170    20393112.142
  23211841.100   -10103199.45943  -7834863.51442  23211843.731    23211841.915
  21008768.222   -14027964.18644 -10919116.01242  21008770.216    21008767.842
  21863613.923   -10659902.94443  -8296975.29842  21863615.903    21863613.994
 04  5 20  4 25 30.0000000  0  7G16G19G20G13G 3G 1G27
  22937759.750    -8843896.66043  -6631171.66742  22937761.833    22937758.766
  24384871.780    -1996934.23243  -1520651.90442  24384873.743    24384872.311
  23871448.490    -1262562.70243    446366.75342  23871450.184    23871450.398
  20387845.781   -17548164.85844 -13642820.75342  20387848.439    20387844.436
  23203056.527   -10149361.94043  -7870834.20842  23203059.103    23203057.440
  21017252.891   -13983377.07544 -10884372.80542  21017254.900    21017252.514
  21855146.749   -10704398.03743  -8331646.76442  21855148.710    21855146.798
 04  5 20  4 26  0.0000000  0  7G16G19G20G13G 3G 1G27
  22954158.154    -8757722.14643  -6564022.67642  22954160.271    22954157.184
  24369212.975    -2079220.24643  -1584770.72342  24369215.077    24369213.795
  23892739.829    -1150676.82543    533550.47142  23892741.402    23892741.637
  20382648.901   -17575474.28644 -13664100.81242  20382651.558    20382647.582
  23194353.103   -10195098.67043  -7906473.14342  23194355.450    23194353.995
  21025806.281   -13938428.50844 -10849347.95442  21025808.361    21025805.997
  21846709.554   -10748735.37643  -8366195.29542  21846711.529    21846709.634
 04  5 20  4 26 30.0000000  0  7G16G19G20G13G 3G 1G27
  22970613.315    -8671249.22043  -6496641.17542  22970615.450    22970612.401
  24353571.031    -2161417.57143  -1648820.43442  24353573.173    24353572.078
  23914044.807    -1038717.04343    620791.84142  23914046.649    23914046.985
  20377523.977   -17602406.14944 -13685086.66442  20377526.618    20377522.597
  23185731.791   -10240403.91343  -7941775.86342  23185733.999    23185732.676
  21034429.148   -13893115.25344 -10814038.93042  21034431.198    21034428.815
  21838302.970   -10792912.19643  -8400618.74742  21838304.922    21838302.991
 04  5 20  4 27  0.0000000  0  7G16G19G20G13G 3G 1G27
  22987124.434    -8584483.54543  -6429031.56442  22987126.390    22987123.267
  24337946.182    -2243526.60043  -1712801.33642  24337948.184    24337947.255
  23935363.080     -926689.62243    708085.90242  23935364.824    23935365.125
  20372470.532   -17628962.15144 -13705779.64542  20372473.164    20372469.102
  23177192.199   -10285278.75243  -7976743.20842  23177194.479    23177193.187
  21043120.733   -13847440.56044 -10778448.26342  21043122.772    21043120.417
  21829926.283   -10836931.91943  -8434919.79542  21829928.255    21829926.313
 04  5 20  4 27 30.0000000  0  7G16G19G20G13G 3G 1G27
  23003691.002    -8497425.92943  -6361194.43342  23003692.969    23003689.861
  24322339.067    -2325542.31843  -1776709.56542  24322341.098    24322339.959
  23956694.030     -814595.25843    795432.05142  23956695.795    23956696.312
  20367489.312   -17655138.87944 -13726177.08542  20367491.939    20367487.820
  23168735.480   -10329718.77343  -8011371.72542  23168737.731    23168736.459
  21051881.502   -13801402.49344 -10742574.46042  21051883.543    21051881.136
  21821579.893   -10880792.64243  -8469096.94742  21821581.838    21821579.870
 04  5 20  4 28  0.0000000  0  7G16G19G20G13G 3G 1G27
  23020312.171    -8410081.06543  -6293133.50242  23020314.062    23020311.120
  24306749.734    -2407464.00943  -1840544.51142  24306751.836    24306750.648
  23978036.917     -702439.09043    882826.44642  23978038.640    23978038.809
  20362580.091   -17680936.87944 -13746279.41642  20362582.773    20362578.642
  23160361.638   -10373723.83343  -8045661.33042  23160363.856    23160362.594
  21060710.954   -13755003.21044 -10706419.18542  21060712.980    21060710.630
  21813263.142   -10924496.92943  -8503152.19942  21813265.132    21813263.153
 04  5 20  4 28 30.0000000  0  7G16G19G20G13G 3G 1G27
  23036988.402    -8322446.80943  -6224847.05542  23036990.356    23036987.349
  24291179.900    -2489283.89743  -1904300.13342  24291181.895    24291180.480
  23999391.580     -590219.19143    970270.47142  23999393.456    23999393.605
  20357744.119   -17706350.16744 -13766081.97342  20357746.789    20357742.631
  23152071.704   -10417287.10643  -8079606.64542  23152073.864    23152072.911
  21069610.027   -13708237.91144 -10669978.69642  21069612.085    21069609.793
  21804977.091   -10968040.13543  -8537081.93642  21804979.102    21804976.983
 04  5 20  4 29  0.0000000  0  7G16G19G20G13G 3G 1G27
  23053718.639    -8234529.00443  -6156339.67742  23053720.552    23053717.459
  24275629.572    -2571002.12243  -1967976.59342  24275631.558    24275629.869
  24020757.319     -477941.61443   1057759.41842  24020759.234    24020759.237
  20352980.974   -17731380.42744 -13785586.05842  20352983.671    20352979.563
  23143865.862   -10460409.33943  -8113208.30342  23143868.080    23143866.983
  21078578.261   -13661109.85144 -10633255.54742  21078580.238    21078578.103
  21796721.050   -11011425.75543  -8570888.86942  21796723.078    21796720.978
 04  5 20  4 29 30.0000000  0  7G16G19G20G13G 3G 1G27
  23070502.380    -8146329.74643  -6087612.98742  23070504.355    23070501.167
  24260099.020    -2652615.36043  -2031571.22542  24260101.045    24260098.950
  24042133.681     -365608.63143   1145291.54642  24042135.520    24042135.086
  20348291.124   -17756025.62544 -13804790.09542  20348293.818    20348289.755
  23135744.259   -10503087.67543  -8146464.08142  23135746.599    23135745.567
  21087615.518   -13613618.62244 -10596249.41042  21087617.495    21087615.350
  21788495.014   -11054653.56443  -8604572.84042  21788497.057    21788494.988
 04  5 20  4 30  0.0000000  0  8G16G19G20G13G 3G 1G27G 8
  23087338.507    -8057855.10043  -6018671.69242  23087340.580    23087337.422
  24244588.326    -2734123.98743  -2095084.29942  24244590.419    24244588.073
  24063519.362     -253226.24243   1232862.13842  24063521.078    24063520.686
  20343674.218   -17780287.56044 -13823695.49442  20343676.902    20343672.798
  23127707.192   -10545323.50043  -8179375.07142  23127709.388    23127708.192
  21096721.306   -13565767.58344 -10558962.89042  21096723.309    21096721.114
  21780298.416   -11097727.21443  -8638136.69642  21780300.437    21780298.326
  23701421.654    -1046166.60853   -808597.46952  23701422.208    23701423.443
 04  5 20  4 30 30.0000000  0  8G16G19G20G13G 3G 1G27G 8
  23104227.068    -7969105.35443  -5949516.03442  23104229.081    23104225.979
  24229098.571    -2815522.32843  -2158511.46842  24229100.833    24229098.235
  24084914.313     -140795.17943   1320470.70242  24084916.208    24084915.688
  20339130.922   -17804162.50344 -13842299.33342  20339133.617    20339129.513
  23119755.097   -10587111.94143  -8211937.45142  23119757.352    23119755.981
  21105896.031   -13517554.36944 -10521394.17142  21105898.017    21105895.828
  21772131.513   -11140644.39643  -8671578.62042  21772133.510    21772131.414
  23686007.646    -1127168.30143   -871715.58042  23686008.283    23686008.849
 04  5 20  4 31  0.0000000  0  8G16G19G20G13G 3G 1G27G 8
  23121168.356    -7880077.57543  -5880143.72142  23121170.439    23121167.271
  24213631.289    -2896802.39043  -2221846.48942  24213633.577    24213630.951
  24106319.120      -28312.73243   1408119.25942  24106320.925    24106320.740
  20334662.646   -17827643.56044 -13860596.24342  20334665.319    20334661.202
  23111889.538   -10628445.41643  -8244145.24942  23111891.882    23111890.574
  21115140.600   -13468973.75944 -10483539.16642  21115142.582    21115140.414
  21763995.276   -11183400.04443  -8704894.67442  21763997.283    21763995.224
  23670617.012    -1208046.73343   -934737.60042  23670617.666    23670617.922
 04  5 20  4 31 30.0000000  0  8G16G19G20G13G 3G 1G27G 8
  23138161.547    -7790778.31643  -5810559.89442  23138163.530    23138160.402
  24198186.412    -2977965.23043  -2285090.11842  24198188.564    24198186.322
  24127732.433       84214.44343   1495802.71442  24127734.319    24127734.196
  20330268.768   -17850733.22144 -13878588.17742  20330271.471    20330267.320
  23104110.295   -10669325.60243  -8275999.89942  23104112.587    23104111.251
  21124454.368   -13420029.59744 -10445400.87142  21124456.356    21124454.145
  21755889.197   -11225998.26743  -8738088.06442  21755891.136    21755889.029
  23655248.948    -1288805.75643   -997666.60142  23655249.574    23655249.800
 04  5 20  4 32  0.0000000  0  8G16G19G20G13G 3G 1G27G 8
  23155206.050    -7701209.04443  -5740765.65442  23155207.973    23155204.895
  24182764.619    -3059006.25743  -2348238.86842  24182766.829    24182764.819
  24149153.855      196784.65543   1583519.72942  24149155.870    24149155.809
  20325949.948   -17873428.79244 -13896273.02142  20325952.638    20325948.496
  23096417.914   -10709749.36943  -8307498.87942  23096420.169    23096418.740
  21133837.573   -13370720.89944 -10406978.52742  21133839.533    21133837.344
  21747813.076   -11268438.15243  -8771158.07942  21747815.101    21747812.995
  23639903.982    -1369444.07243  -1060501.54942  23639904.650    23639904.741
 04  5 20  4 32 30.0000000  0  8G16G19G20G13G 3G 1G27G 8
  23172301.016    -7611373.77043  -5670764.13642  23172303.026    23172299.867
  24167366.527    -3139923.75443  -2411291.36042  24167368.664    24167366.717
  24170582.622      309393.76243   1671267.00742  24170584.512    24170584.862
  20321706.174   -17895730.20444 -13913650.73142  20321708.844    20321704.675
  23088812.508   -10749715.60143  -8338641.35442  23088814.806    23088813.238
  21143289.771   -13321049.01844 -10368273.17842  21143291.779    21143289.647
  21739766.908   -11310721.14843  -8804105.83342  21739768.914    21739766.804
  23624581.644    -1449962.40843  -1123243.00342  23624582.423    23624582.523
 04  5 20  4 33  0.0000000  0  8G16G19G20G13G 3G 1G27G 8
  23189445.973    -7521276.35043  -5600558.35442  23189447.945    23189444.817
  24151992.405    -3220716.38743  -2474246.54142  24151994.443    24151992.325
  24192017.986      422037.52743   1759041.31042  24192019.793    24192020.381
  20317537.371   -17917637.32644 -13930721.20042  20317540.025    20317535.911
  23081294.275   -10789223.44843  -8369426.62042  23081296.545    23081295.077
  21152810.907   -13271015.38144 -10329285.94342  21152812.900    21152810.739
  21731750.242   -11352848.80943  -8836932.54642  21731752.238    21731750.124
  23609282.063    -1530361.98643  -1185891.85542  23609282.849    23609283.088
 04  5 20  4 33 30.0000000  0  8G16G19G20G13G 3G 1G27G 8
  23206641.198    -7430915.80343  -5530147.55442  23206643.087    23206639.920
  24136643.071    -3301377.43543  -2537099.22642  24136645.229    24136642.981
  24213460.057      534717.08043   1846843.46642  24213461.948    24213462.474
  20313444.494   -17939145.34444 -13947480.68442  20313447.172    20313443.071
  23073864.306   -10828267.20843  -8399850.27542  23073866.532    23073865.276
  21162401.494   -13220616.60344 -10290014.18142  21162403.516    21162401.369
  21723763.797   -11394817.72743  -8869635.56342  21723765.797    21723763.691
  23594005.770    -1610638.94443  -1248445.19442  23594006.697    23594006.776
 04  5 20  4 34  0.0000000  0  8G16G19G20G13G 3G 1G27G 8
  23223885.005    -7340299.56543  -5459537.50742  23223886.877    23223883.594
  24121318.260    -3381908.92543  -2599850.95242  24121320.414    24121318.347
  24234907.920      647424.84743   1934667.58242  24234909.611    24234909.762
  20309427.112   -17960257.12244 -13963931.42242  20309429.756    20309425.568
  23066522.453   -10866849.77843  -8429914.56842  23066524.511    23066522.989
  21172060.600   -13169857.63544 -10250461.75542  21172062.579    21172060.451
  21715806.596   -11436632.96143  -8902218.83342  21715808.604    21715806.433
  23578752.017    -1690797.99443  -1310906.70542  23578752.823    23578752.811
 04  5 20  4 34 30.0000000  0  8G16G19G20G13G 3G 1G27G 8
  23241177.536    -7249425.19143  -5388726.29542  23241179.633    23241176.381
  24106019.997    -3462302.52543  -2662495.22642  24106021.946    24106019.905
  24256361.382      760162.85543   2022515.30542  24256363.093    24256362.662
  20305486.206   -17980966.63244 -13980068.70042  20305488.847    20305484.685
  23059269.280   -10904963.94643  -8459613.88342  23059271.305    23059270.051
  21181789.273   -13118733.45544 -10210624.75442  21181791.237    21181789.027
  21707879.586   -11478289.63243  -8934678.53542  21707881.565    21707879.475
  23563521.618    -1770833.67443  -1373272.05242  23563522.579    23563522.636
 04  5 20  4 35  0.0000000  0  8G16G19G20G13G 3G 1G27G 8
  23258518.465    -7158297.72943  -5317717.88742  23258520.570    23258517.237
  24090747.638    -3542558.12843  -2725031.95142  24090749.741    24090747.596
  24277819.536      872925.60043   2110382.33442  24277821.274    24277820.519
  20301621.625   -18001275.07244 -13995893.44142  20301624.296    20301620.124
  23052105.495   -10942610.21643  -8488948.57642  23052107.389    23052106.145
  21191586.763   -13067247.07444 -10170505.49742  21191588.748    21191586.626
  21699982.198   -11519790.63643  -8967016.94342  21699984.185    21699982.059
  23548314.220    -1850748.62643  -1435543.33342  23548314.996    23548315.176
 04  5 20  4 35 30.0000000  0  8G16G19G20G13G 3G 1G27G 8
  23275907.204    -7066919.39243  -5246513.97142  23275909.176    23275906.021
  24075502.440    -3622672.11543  -2787458.30842  24075504.446    24075502.295
  24299282.013      985710.82843   2198266.87642  24299283.777    24299283.121
  20297833.774   -18021180.32344 -14011404.00942  20297836.427    20297832.312
  23045031.055   -10979785.94643  -8517916.63742  23045033.037    23045031.716
  21201453.283   -13015398.07544 -10130103.69742  21201455.252    21201453.181
  21692114.556   -11561135.72143  -8999233.86042  21692116.534    21692114.317
  23533129.682    -1930542.32243  -1497720.06842  23533130.650    23533130.907
 04  5 20  4 36  0.0000000  0  9G16G19G20G13G 3G 1G27G 8G31
  23293343.265    -6975292.06043  -5175116.05042  23293345.168    23293342.209
  24060284.683    -3702640.65843  -2849771.31242  24060286.916    24060284.513
  24320748.137     1098516.91143   2286167.64942  24320749.812    24320749.787
  20294123.113   -18040679.95244 -14026598.51242  20294125.761    20294121.639
  23038047.018   -11016488.41743  -8546515.92242  23038048.966    23038047.475
  21211388.979   -12963185.66844 -10089418.71342  21211390.907    21211388.873
  21684276.559   -11602324.05143  -9031328.62142  21684278.598    21684276.414
  23517968.696    -2010213.42243  -1559801.34142  23517969.810    23517969.680
  24279789.766
 04  5 20  4 36 30.0000000  0  9G16G19G20G13G 3G 1G27G 8G31
  23310825.794    -6883420.50243  -5103527.82142  23310827.646    23310824.861
  24045095.036    -3782462.95743  -2911970.49342  24045097.150    24045094.497
  24342217.019     1211338.56343   2374080.54442  24342218.566    24342219.239
  20290489.371   -18059775.32544 -14041477.99942  20290492.000    20290487.892
  23031152.839   -11052717.67943  -8574746.47342  23031154.892    23031153.271
  21221393.303   -12910612.41044 -10048452.55042  21221395.255    21221393.215
  21676467.979   -11643358.27844  -9063303.30742  21676469.974    21676467.849
  23502830.484    -2089764.20643  -1621788.89342  23502831.582    23502831.545
  24260602.967
 04  5 20  4 37  0.0000000  0  9G16G19G20G13G 3G 1G27G 8G31
  23328354.661    -6791305.57243  -5031749.92842  23328356.625    23328353.607
  24029933.912    -3862134.33043  -2974051.95742  24029936.014    24029933.584
  24363689.031     1324174.94843   2462004.96842  24363690.447    24363691.546
  20286933.173   -18078463.05244 -14056039.83642  20286935.826    20286931.729
  23024349.446   -11088470.01143  -8602605.38242  23024351.495    23024349.880
  21231466.613   -12857676.71144 -10007203.94942  21231468.567    21231466.522
  21668689.005   -11684236.90443  -9095156.75042  21668691.000    21668688.964
  23487715.352    -2169192.63853  -1683681.08552  23487716.650    23487716.801
  24241414.164    -1253285.39553   -931369.92852  24241415.015    24241415.096
 04  5 20  4 37 30.0000000  0  9G16G19G20G13G 3G 1G27G 8G31
  23345929.582    -6698949.21443  -4959783.94042  23345931.449    23345928.492
  24014802.115    -3941650.93243  -3036012.83642  24014804.275    24014801.990
  24385163.674     1437024.00143   2549939.21442  24385165.058    24385166.307
  20283454.955   -18096740.91444 -14070282.30442  20283457.629    20283453.572
  23017637.252   -11123742.60643  -8630090.46642  23017639.383    23017637.719
  21241609.045   -12804378.05744  -9965672.54142  21241611.004    21241608.959
  21660939.831   -11724959.03143  -9126888.23742  21660941.817    21660939.793
  23472624.160    -2248497.88843  -1745477.25442  23472625.303    23472625.295
  24222225.189    -1354118.35543  -1009940.92842  24222226.992    24222227.574
 04  5 20  4 38  0.0000000  0  9G16G19G20G13G 3G 1G27G 8G31
  23363549.578    -6606355.19043  -4887632.74542  23363551.492    23363548.560
  23999700.125    -4021011.15143  -3097851.82942  23999702.176    23999700.177
  24406639.950     1549881.58343   2637880.06442  24406641.476    24406642.539
  20280054.781   -18114609.19244 -14084205.62842  20280057.437    20280053.296
  23011016.523   -11158534.78243  -8657201.23142  23011018.631    23011016.858
  21251820.193   -12750717.81544  -9923859.36742  21251822.176    21251820.189
  21653220.060   -11765526.30543  -9158499.05742  21653222.057    21653220.027
  23457556.079    -2327680.80443  -1807178.12942  23457557.189    23457557.108
  24203037.740    -1454948.78843  -1088509.99442  24203039.567    24203040.154
 04  5 20  4 38 30.0000000  0  9G16G19G20G13G 3G 1G27G 8G31
  23381214.420    -6513525.58343  -4815297.97342  23381216.307    23381213.439
  23984628.973    -4100211.39643  -3159566.20442  23984630.745    23984628.674
  24428117.654     1662745.51043   2725825.89342  24428119.343    24428119.570
  20276732.901   -18132065.85744 -14097808.20642  20276735.567    20276731.327
  23004487.660   -11192844.30243  -8683935.87142  23004489.872    23004487.962
  21262100.187   -12696695.80444  -9881764.30142  21262102.159    21262100.176
  21645529.800   -11805938.58543  -9189989.10842  21645531.771    21645529.801
  23442511.462    -2406740.77443  -1868783.19042  23442512.350    23442512.473
  24183851.440    -1555773.68843  -1167074.72242  24183853.167    24183853.754
 04  5 20  4 39  0.0000000  0  9G16G19G20G13G 3G 1G27G 8G31
  23398923.658    -6420462.96343  -4742781.64542  23398925.472    23398922.633
  23969588.706    -4179248.69743  -3221153.61742  23969590.527    23969588.285
  24449595.709     1775613.11143   2813774.61942  24449597.433    24449597.074
  20273489.608   -18149109.36844 -14111088.83642  20273492.304    20273488.013
  22998051.003   -11226668.97843  -8710292.71842  22998053.200    22998051.078
  21272449.055   -12642312.35544  -9839387.58342  21272450.948    21272448.982
  21637869.072   -11846196.03643  -9221358.51642  21637871.054    21637869.076
  23427490.128    -2485677.90243  -1930292.54742  23427491.057    23427491.218
  24164666.621    -1656589.63843  -1245632.48642  24164668.319    24164669.268
 04  5 20  4 39 30.0000000  0  9G16G19G20G13G 3G 1G27G 8G31
  23416676.749    -6327168.77843  -4670084.90042  23416678.655    23416675.894
  23954580.108    -4258119.08743  -3282610.89942  23954581.851    23954579.728
  24471074.092     1888482.78043   2901724.97742  24471075.825    24471075.350
  20270325.328   -18165737.48744 -14124045.79042  20270328.030    20270323.760
  22991707.021   -11260005.63043  -8736269.29842  22991709.351    22991707.233
  21282866.866   -12587566.39144  -9796728.40342  21282868.748    21282866.794
  21630237.978   -11886297.40143  -9252606.28342  21630239.976    21630238.000
  23412492.524    -2564490.34743  -1991704.74942  23412493.220    23412493.588
  24145484.570    -1757392.73943  -1324180.23942  24145486.154    24145486.971
 04  5 20  4 40  0.0000000  0  9G16G19G20G13G 3G 1G27G 8G31
  23434473.304    -6233648.02443  -4597211.57942  23434475.126    23434472.179
  23939603.294    -4336821.92643  -3343937.71442  23939605.154    23939602.840
  24492552.124     2001349.33443   2989672.88542  24492553.642    24492553.179
  20267239.985   -18181951.17144 -14136679.81542  20267242.687    20267238.339
  22985456.016   -11292855.00243  -8761866.16842  22985458.244    22985456.072
  21293353.103   -12532460.68144  -9753788.88842  21293355.007    21293353.045
  21622636.171   -11926245.44444  -9283734.58942  21622638.139    21622636.091
  23397518.196    -2643180.75743  -2053021.84342  23397518.916    23397519.093
  24126304.972    -1858182.18243  -1402717.34942  24126306.747    24126307.283
 04  5 20  4 40 30.0000000  0  9G16G19G20G13G 3G 1G27G 8G31
  23452312.717    -6139901.01443  -4524161.94942  23452314.671    23452311.605
  23924659.413    -4415351.89343  -3405129.76542  23924661.396    23924659.107
  24514029.293     2114212.17743   3077617.88242  24514030.877    24514030.445
  20264234.168   -18197746.84244 -14148988.11242  20264236.857    20264232.523
  22979298.471   -11325212.83743  -8787080.00642  22979300.646    22979298.635
  21303908.371   -12476993.24244  -9710567.51342  21303910.226    21303908.117
  21615063.822   -11966038.25243  -9314741.93142  21615065.812    21615063.737
  23382567.599    -2721746.53243  -2114241.82642  23382568.352    23382568.348
  24107129.035    -1958952.80743  -1481239.82942  24107130.969    24107131.174
 04  5 20  4 41  0.0000000  0  9G16G19G20G13G 3G 1G27G 8G31
  23470194.950    -6045929.91343  -4450937.72742  23470196.746    23470193.676
  23909749.064    -4493705.71843  -3466184.55242  23909751.022    23909748.728
  24535504.963     2227068.98543   3165558.17342  24535506.801    24535506.608
  20261308.245   -18213122.83144 -14160969.39742  20261310.941    20261306.601
  22973234.896   -11357077.01343  -8811909.19242  22973236.851    22973235.024
  21314532.231   -12421163.98543  -9667064.19742  21314534.156    21314532.083
  21607521.031   -12005675.47543  -9345628.03342  21607523.021    21607520.980
  23367640.977    -2800187.05243  -2175364.18642  23367641.698    23367641.619
  24087956.956    -2059701.51843  -1559745.19742  24087959.172    24087959.284
 04  5 20  4 41 30.0000000  0  9G16G19G20G13G 3G 1G27G 8G31
  23488118.894    -5951739.80343  -4377542.83042  23488120.701    23488117.459
  23894872.330    -4571882.82043  -3527101.70242  23894874.360    23894871.843
  24556978.991     2339914.92343   3253490.01042  24556980.778    24556980.594
  20258461.886   -18228080.25444 -14172624.51642  20258464.606    20258460.271
  22967265.151   -11388448.04143  -8836354.11142  22967267.146    22967265.340
  21325224.529   -12364975.57244  -9623281.02042  21325226.502    21325224.369
  21600007.384   -12045159.75943  -9376394.97242  21600009.349    21600007.356
  23352737.479    -2878504.48543  -2236390.63642  23352738.314    23352738.330
  24068789.398    -2160426.95843  -1638232.40942  24068791.647    24068791.800
 04  5 20  4 42  0.0000000  0  9G16G19G20G13G 3G 1G27G 8G31
  23506084.307    -5857330.73343  -4303977.33042  23506086.174    23506082.976
  23880030.423    -4649877.56243  -3587876.75242  23880032.465    23880029.987
  24578450.907     2452749.66843   3341413.11442  24578452.688    24578452.468
  20255695.968   -18242615.15244 -14183950.38942  20255698.697    20255694.362
  22961390.282   -11419321.59243  -8860411.37842  22961392.147    22961390.306
  21335985.629   -12308425.88844  -9579216.33842  21335987.586    21335985.453
  21592523.349   -12084488.63843  -9407040.81042  21592525.309    21592523.278
  23337858.017    -2956696.25143  -2297319.15342  23337858.814    23337858.743
  24049627.398    -2261124.33043  -1716697.76042  24049629.689    24049629.565
 04  5 20  4 42 30.0000000  0  9G16G19G20G13G 3G 1G27G 8G31
  23524090.434    -5762708.10143  -4230245.40942  23524092.311    23524089.048
  23865223.146    -4727690.16743  -3648509.83742  23865225.071    23865222.784
  24599919.331     2565567.21343   3429322.83042  24599921.225    24599921.115
  20253010.124   -18256729.38344 -14194948.47542  20253012.829    20253008.467
  22955609.553   -11449698.83143  -8884081.90842  22955611.546    22955609.805
  21346814.627   -12251518.17643  -9534872.66342  21346816.687    21346814.639
  21585068.153   -12123665.44543  -9437568.14242  21585070.148    21585068.162
  23323002.052    -3034764.95743  -2358151.81342  23323002.917    23323002.550
  24030470.762    -2361792.99243  -1795140.75142  24030473.123    24030472.823
 04  5 20  4 43  0.0000000  0  9G16G19G20G13G 3G 1G27G 8G31
  23542137.642    -5667870.45543  -4156345.96342  23542139.482    23542136.158
  23850451.889    -4805313.22343  -3708995.19242  23850453.712    23850451.712
  24621384.753     2678369.15043   3517220.37642  24621386.682    24621386.688
  20250405.367   -18270417.48644 -14205614.51442  20250408.083    20250403.671
  22949924.508   -11479573.72243  -8907361.00942  22949926.600    22949924.683
  21357712.772   -12194248.82344  -9490247.20342  21357714.730    21357712.617
  21577642.778   -12162686.18443  -9467973.88142  21577644.771    21577642.664
  23308170.173    -3112706.66943  -2418885.54642  23308171.000    23308170.589
  24011320.661    -2462426.14243  -1873556.08042  24011323.229    24011322.819
 04  5 20  4 43 30.0000000  0  9G16G19G20G13G 3G 1G27G 8G31
  23560224.514    -5572823.33343  -4082283.27242  23560226.511    23560222.925
  23835716.322    -4882746.59143  -3769332.80242  23835718.456    23835716.400
  24642846.405     2791149.98443   3605101.48042  24642848.284    24642848.131
  20247881.354   -18283681.15944 -14215949.83342  20247884.065    20247879.666
  22944334.852   -11508947.74643  -8930249.82842  22944336.945    22944335.042
  21368678.985   -12136621.09944  -9445342.49942  21368680.968    21368678.759
  21570246.461   -12201553.86243  -9498260.34342  21570248.475    21570246.282
  23293362.070    -3190524.01843  -2479522.34842  23293362.829    23293362.450
  23992177.675    -2563023.61543  -1951943.62142  23992180.086    23992179.577
 04  5 20  4 44  0.0000000  0  9G16G19G20G13G 3G 1G27G 8G31
  23578351.077    -5477567.21143  -4008057.72842  23578353.208    23578349.487
  23821018.516    -4959985.39343  -3829518.81042  23821020.450    23821018.300
  24664303.732     2903909.04743   3692965.60342  24664305.732    24664305.536
  20245438.733   -18296517.21844 -14225951.94442  20245441.425    20245437.054
  22938841.146   -11537816.99543  -8952745.27842  22938843.300    22938841.534
  21379713.702   -12078633.12043  -9400157.07442  21379715.693    21379713.475
  21562879.586   -12240266.72243  -9528426.16542  21562881.615    21562879.432
  23278577.857    -3268214.66143  -2540060.40842  23278578.683    23278578.373
  23973042.294    -2663580.10543  -2030299.23242  23973044.753    23973044.287
 04  5 20  4 44 30.0000000  0  9G16G19G20G13G 3G 1G27G 8G31
  23596516.548    -5382107.21743  -3933673.34442  23596518.632    23596514.827
  23806357.708    -5037029.52843  -3889553.08142  23806359.651    23806357.288
  24685755.969     3016640.71043   3780808.38342  24685757.705    24685758.024
  20243077.212   -18308926.85944 -14235621.77542  20243079.910    20243075.586
  22933443.283   -11566182.40543  -8974848.16042  22933445.436    22933443.767
  21390816.452   -12020288.01644  -9354693.35842  21390818.406    21390816.153
  21555541.694   -12278827.35143  -9558473.37342  21555543.721    21555541.460
  23263817.498    -3345780.86943  -2600501.52042  23263818.277    23263817.909
  23953914.634    -2764095.54543  -2108622.85142  23953917.078    23953916.701
 04  5 20  4 45  0.0000000  0  9G16G19G20G13G 3G 1G27G 8G31
  23614720.708    -5286444.25243  -3859130.80342  23614722.617    23614718.926
  23791734.124    -5113874.09743  -3949431.85042  23791736.440    23791734.027
  24707202.766     3129344.21143   3868629.18642  24707204.515    24707205.135
  20240797.404   -18320907.03344 -14244956.94542  20240800.102    20240795.872
  22928141.975   -11594040.56843  -8996555.78442  22928144.238    22928142.263
  21401987.354   -11961584.19743  -9308950.13142  21401989.341    21401987.147
  21548233.078   -12317234.33944  -9588400.85242  21548235.094    21548232.791
  23249081.160    -3423221.02443  -2660844.40842  23249081.884    23249081.400
  23934795.916    -2864564.50843  -2186910.27342  23934798.290    23934798.158
 04  5 20  4 45 30.0000000  0  9G16G19G20G13G 3G 1G27G 8G31
  23632963.134    -5190578.29243  -3784430.06242  23632965.116    23632961.670
  23777150.109    -5190513.51043  -4009150.72842  23777152.376    23777149.825
  24728644.550     3242019.62243   3956428.11842  24728646.263    24728646.825
  20238600.031   -18332454.09244 -14253954.63842  20238602.750    20238598.511
  22922937.892   -11621387.27443  -9017864.87442  22922940.164    22922938.214
  21413227.002   -11902519.71843  -9262925.88042  21413228.984    21413226.760
  21540954.152   -12355485.34244  -9618206.78342  21540956.195    21540953.864
  23234369.257    -3500532.10343  -2721086.73642  23234369.974    23234369.497
  23915686.901    -2964982.00143  -2265157.58242  23915689.240    23915689.460
 04  5 20  4 46  0.0000000  0  9G16G19G20G13G 3G 1G27G 8G31
  23651243.150    -5094515.46643  -3709575.86942  23651245.077    23651241.870
  23762605.212    -5266948.69243  -4068710.55842  23762607.292    23762604.444
  24750079.575     3354660.42943   4044200.04442  24750081.732    24750081.612
  20236484.595   -18343570.35144 -14262616.63342  20236487.341    20236483.165
  22917831.080   -11648224.44643  -9038776.91342  22917833.264    22917831.305
  21424534.544   -11843098.52744  -9216623.66742  21424536.521    21424534.304
  21533704.074   -12393584.09543  -9647894.08142  21533706.153    21533703.880
  23219681.170    -3577717.97243  -2781231.49042  23219681.943    23219681.371
  23896587.777    -3065348.46543  -2343365.09042  23896589.823    23896590.399
 04  5 20  4 46 30.0000000  0  8G16G19G13G 3G 1G27G 8G31
  23669560.695    -4998255.15243  -3634567.82442  23669562.619    23669559.721
  23748099.915    -5343173.33143  -4128106.27742  23748101.980    23748099.235
  20234452.044   -18354251.57744 -14270939.64842  20234454.769    20234450.612
  22912822.164   -11674547.12143  -9059288.03642  22912824.301    22912822.208
  21435910.376   -11783317.99543  -9170041.43542  21435912.371    21435910.217
  21526483.696   -12431527.57643  -9677460.39342  21526485.717    21526483.425
  23205017.628    -3654775.25343  -2841276.04942  23205018.412    23205017.804
  23877499.639    -3165657.39243  -2421527.74342  23877501.722    23877502.122
 04  5 20  4 47  0.0000000  0  8G16G19G13G 3G 1G27G 8G31
  23687915.467    -4901801.88243  -3559409.43042  23687917.041    23687914.291
  23733635.056    -5419186.44243  -4187337.16442  23733636.950    23733634.069
  20232502.213   -18364498.14144 -14278923.96242  20232504.906    20232500.733
  22907910.797   -11700355.88043  -9079398.69442  22907913.083    22907910.933
  21447354.159   -11723180.60843  -9123181.16242  21447356.123    21447354.038
  21519292.361   -12469317.90043  -9706907.35042  21519294.387    21519292.122
  23190378.155    -3731705.70143  -2901221.73442  23190378.909    23190378.412
  23858422.514    -3265907.84643  -2499644.90742  23858424.738    23858424.914
 04  5 20  4 47 30.0000000  0  8G16G19G13G 3G 1G27G 8G31
  23706305.920    -4805159.72243  -3484103.83442  23706307.566    23706304.661
  23719210.603    -5494986.50043  -4246402.05742  23719212.429    23719209.532
  20230634.914   -18374310.90144 -14286570.25142  20230637.623    20230633.378
  22903097.241   -11725650.68243  -9099108.89342  22903099.569    22903097.393
  21458865.469   -11662688.25343  -9076044.28242  21458867.402    21458865.302
  21512129.961   -12506956.78943  -9736236.31642  21512131.909    21512129.718
  23175762.673    -3808510.35543  -2961069.45242  23175763.440    23175762.702
  23839356.985    -3366098.06343  -2577715.08842  23839359.071    23839359.220
 04  5 20  4 48  0.0000000  0  8G16G19G13G 3G 1G27G 8G31
  23724732.227    -4708329.03443  -3408651.34242  23724734.033    23724731.030
  23704828.042    -5570568.59243  -4305297.10442  23704829.716    23704826.581
  20228850.740   -18383686.51544 -14293875.89742  20228853.430    20228849.261
  22898382.269   -11750427.77243  -9118415.66642  22898384.557    22898382.397
  21470444.654   -11601839.20443  -9028629.46542  21470446.572    21470444.464
  21504996.598   -12544442.26943  -9765445.73242  21504998.585    21504996.483
  23161171.415    -3885187.38343  -3020817.68142  23161172.240    23161171.406
  23820303.745    -3466223.03543  -2655734.46542  23820305.993    23820305.894
 04  5 20  4 48 30.0000000  0  8G16G19G13G 3G 1G27G 8G31
  23743193.958    -4611311.52843  -3333053.27742  23743195.926    23743192.906
  23690487.094    -5645928.91443  -4364019.36242  23690488.896    23690485.815
  20227150.196   -18392623.09744 -14300839.46542  20227152.870    20227148.633
  22893766.120   -11774684.64643  -9137317.07242  22893768.360    22893766.484
  21482091.931   -11540632.96844  -8980936.32042  21482093.798    21482091.611
  21497892.646   -12581773.55943  -9794535.02142  21497894.633    21497892.503
  23146604.704    -3961735.25343  -3080465.27142  23146605.585    23146604.841
  23801263.726    -3566278.78643  -2733699.90242  23801266.029    23801265.675
 04  5 20  4 49  0.0000000  0  8G16G19G13G 3G 1G27G 8G31
  23761690.238    -4514112.74343  -3257313.98642  23761692.317    23761689.233
  23676188.522    -5721067.32343  -4422568.61942  23676190.348    23676187.686
  20225532.886   -18401122.00144 -14307461.97042  20225535.575    20225531.300
  22889248.907   -11798422.77343  -9155814.26842  22889251.027    22889249.282
  21493806.353   -11479073.11543  -8932967.62342  21493808.309    21493806.071
  21490817.465   -12618953.74343  -9823506.55642  21490819.447    21490817.257
  23132062.202    -4038156.82143  -3140014.44042  23132062.982    23132062.274
  23782237.126    -3666265.04543  -2811611.20842  23782239.253    23782238.766
 04  5 20  4 49 30.0000000  0  8G16G19G13G 3G 1G27G 8G31
  23780221.081    -4416732.11143  -3181432.96942  23780223.400    23780220.105
  23661933.544    -5795977.85643  -4480940.40242  23661935.293    23661932.571
  20223999.697   -18409179.22444 -14313740.31842  20224002.368    20223998.070
  22884831.179   -11821637.77343  -9173903.83842  22884833.160    22884831.669
  21505588.609   -11417157.18343  -8884721.44842  21505590.566    21505588.304
  21483771.601   -12655980.04444  -9852358.17342  21483773.557    21483771.346
  23117544.014    -4114449.37943  -3199463.09142  23117544.899    23117544.301
  23763224.713    -3766175.77643  -2889463.66642  23763226.799    23763226.205
 04  5 20  4 50  0.0000000  0  8G16G19G13G 3G 1G27G 8G31
  23798785.856    -4319174.30643  -3105413.89842  23798788.096    23798784.681
  23647722.222    -5870659.82943  -4539134.03842  23647723.813    23647721.045
  20222550.209   -18416796.08144 -14319675.50342  20222552.907    20222548.610
  22880513.004   -11844330.34043  -9191586.30342  22880514.924    22880513.319
  21517438.089   -11354887.90843  -8836199.97542  21517440.049    21517437.803
  21476754.574   -12692854.86844  -9881091.75742  21476756.540    21476754.271
  23103050.037    -4190614.89243  -3258812.74142  23103050.913    23103050.429
  23744226.578    -3866009.99243  -2967256.45142  23744228.751    23744228.145
 04  5 20  4 50 30.0000000  0  8G16G19G13G 3G 1G27G 8G31
  23817384.392    -4221437.65843  -3029255.47442  23817386.696    23817383.321
  23633555.485    -5945106.09043  -4597144.02742  23633557.085    23633554.385
  20221185.582   -18423967.05844 -14325263.26542  20221188.289    20221183.994
  22876295.048   -11866494.83243  -9208857.30042  22876297.040    22876295.389
  21529355.410   -11292261.42343  -8787400.13642  21529357.426    21529355.329
  21469767.161   -12729573.91244  -9909703.96142  21469769.139    21469766.851
  23088581.292    -4266648.63143  -3318059.69242  23088582.165    23088581.518
  23725244.427    -3965760.32943  -3044983.90942  23725246.794    23725245.979
 04  5 20  4 51  0.0000000  0  8G16G19G13G 3G 1G27G 8G31
  23836015.770    -4123528.93643  -2952962.95642  23836017.988    23836014.689
  23619433.292    -6019317.76743  -4654971.19642  23619435.128    23619432.490
  20219905.313   -18430695.01844 -14330505.81642  20219907.995    20219903.648
  22872177.241   -11888133.96043  -9225718.92942  22872179.233    22872177.520
  21541339.852   -11229282.51943  -8738325.69842  21541341.867    21541339.929
  21462808.580   -12766141.73244  -9938198.32742  21462810.547    21462808.248
  23074136.909    -4342554.59543  -3377207.11842  23074137.684    23074136.942
  23706278.515    -4065427.81343  -3122646.82642  23706280.735    23706279.749
 04  5 20  4 51 30.0000000  0  8G16G19G13G 3G 1G27G 8G31
  23854679.304    -4025451.51643  -2876538.97242  23854681.531    23854678.307
  23605356.267    -6093292.94143  -4712614.06042  23605358.220    23605355.653
  20218709.278   -18436979.96644 -14335403.16042  20218711.981    20218707.596
  22868159.685   -11909247.26343  -9242170.80042  22868161.521    22868159.653
  21553391.209   -11165952.82043  -8688977.91342  21553393.158    21553391.265
  21455878.501   -12802559.15744  -9966575.50842  21455880.487    21455878.181
  23059716.455    -4418333.91243  -3436255.85242  23059717.252    23059716.552
  23687328.624    -4165010.28843  -3200243.47942  23687330.941    23687329.832
 04  5 20  4 52  0.0000000  0  8G16G19G13G 3G 1G27G 8G31
  23873375.385    -3927203.36343  -2799981.95842  23873377.561    23873374.379
  23591325.601    -6167024.54543  -4770067.19342  23591327.580    23591324.811
  20217598.624   -18442816.43844 -14339951.04942  20217601.305    20217596.926
  22864242.965   -11929828.91143  -9258208.42042  22864244.887    22864243.066
  21565510.075   -11102268.39443  -8639353.70842  21565511.967    21565510.040
  21448977.897   -12838822.11544  -9994832.33642  21448979.874    21448977.499
  23045320.935    -4493982.08343  -3495202.34642  23045321.789    23045321.127
  23668396.332    -4264500.25143  -3277768.02842  23668398.603    23668397.638
 04  5 20  4 52 30.0000000  0  8G16G19G13G 3G 1G27G 8G31
  23892103.166    -3828789.15043  -2723295.56942  23892105.193    23892101.795
  23577341.526    -6240511.40243  -4827329.61042  23577343.561    23577340.674
  20216573.161   -18448205.32944 -14344150.17042  20216575.839    20216571.412
  22860427.538   -11949879.52243  -9273832.23542  22860429.442    22860427.517
  21577695.887   -11038231.82443  -8589455.12042  21577697.834    21577695.796
  21442106.338   -12874932.57344 -10022970.32942  21442108.301    21442105.853
  23030950.138    -4569500.34543  -3554047.60842  23030951.033    23030950.365
  23649481.836    -4363896.42443  -3355219.50042  23649484.156    23649483.337
